[[{"header":{"parameterUnit":"m.s-1","parameterCategory":1,"la1":30.6,"la2":29.2853,"lo1":-89.7004,"lo2":-87.6739,"dy":0.0162,"dx":0.0183,"nx":112,"ny":82,"refTime":"2025-08-23T00:00:00:Z","depth":0,"parameterNumber":2,"parameterNumberName":"U-component_of_WINDS"},"data":[0.0,0.0,0.0,0.0,0.0,0.0,0.0,0.0,0.0,0.0,0.0,0.0,0.0,0.0,0.0,0.0,0.0,0.0,0.0,0.0,0.0,0.0,0.0,0.0,0.0,0.0,0.0,0.0,0.0,0.0,0.0,0.0,0.0,0.0,0.0,0.0,0.0,0.0,0.0,0.0,0.0,0.0,0.0,0.0,0.0,0.0,0.0,0.0,0.0,0.0,0.0,0.0,0.0,0.0,0.0,0.0,0.0,0.0,0.0,0.0,0.0,0.0,0.0,0.0,0.0,0.0,0.0,0.0,0.0,0.0,0.0,0.0,0.0,0.0,0.0,0.0,0.0,0.0,0.0,0.0,0.0,0.0,0.0,0.0,0.0,0.0,0.0,0.0,0.0,0.0,0.0,0.9229,1.1799,1.4466,1.7176,1.6917,1.6804,1.7283,0.0,0.0,0.0,0.0,0.0,0.0,0.0,0.0,0.0,0.0,0.0,0.0,0.0,0.0,0.0,0.0,0.0,0.0,0.0,0.0,0.0,0.0,0.0,0.0,0.0,0.0,0.0,0.0,0.0,0.0,0.0,0.0,0.0,0.0,0.0,0.0,0.0,0.0,0.0,0.0,0.0,0.0,0.0,0.0,0.0,0.0,0.0,0.0,0.0,0.0,0.0,0.0,0.0,0.0,0.0,0.0,0.0,0.0,0.0,0.0,0.0,0.0,0.0,0.0,0.0,0.0,0.0,0.0,0.0,0.0,0.0,0.0,0.0,0.0,0.0,0.0,0.0,0.0,0.0,0.0,0.0,0.0,0.0,0.0,0.0,0.0,0.0,0.0,0.0,0.0,0.0,0.0,0.0,0.0,0.0,0.0,0.0,0.0,0.0,0.0,0.0,0.0,0.0,0.0,0.7995,1.0804,1.2501,1.3852,1.5013,1.5273,1.5024,1.4225,0.0,0.0,0.0,0.0,0.0,0.0,0.0,0.0,0.0,0.0,0.0,0.0,0.0,0.0,0.0,0.0,0.0,0.0,0.0,0.0,0.0,0.0,0.0,0.0,0.0,0.0,0.0,0.0,0.0,0.0,0.0,0.0,0.0,0.0,0.0,0.0,0.0,0.0,0.0,0.0,0.0,0.0,0.0,0.0,0.0,0.0,0.0,0.0,0.0,0.0,0.0,0.0,0.0,0.0,0.0,0.0,0.0,0.0,0.0,0.0,0.0,0.0,0.0,0.0,0.0,0.0,0.0,0.0,0.0,0.0,0.0,0.0,0.0,0.0,0.0,0.0,0.0,0.0,0.0,0.0,0.0,0.0,0.0,0.0,0.0,0.0,0.0,0.0,0.0,0.0,0.0,0.0,0.0,0.0,0.0,0.0,0.0,0.0,0.0,0.0,0.0,0.0,0.0,0.6703,0.7905,1.0073,1.1026,1.2184,1.3824,1.408,1.4212,1.4315,1.434,0.0,0.0,0.0,0.0,0.0,0.0,0.0,0.0,0.0,0.0,0.0,0.0,0.0,0.0,0.0,0.0,0.0,0.0,0.0,0.0,0.0,0.0,0.0,0.0,0.0,0.0,0.0,0.0,0.0,0.0,0.0,0.0,0.0,0.0,0.0,0.0,0.0,0.0,0.0,0.0,0.0,0.0,0.0,0.0,0.0,0.0,0.0,0.0,0.0,0.0,0.0,0.0,0.0,0.0,0.0,0.0,0.0,0.0,0.0,0.0,0.0,0.0,0.0,0.0,0.0,0.0,0.0,0.0,0.0,0.0,0.0,0.0,0.0,0.0,0.0,0.0,0.0,0.0,0.0,0.0,0.0,0.0,0.0,0.0,0.0,0.0,0.0,0.0,0.0,0.0,0.0,0.0,0.0,0.0,0.0,0.0,0.0,0.0,0.0,0.0,0.0,0.0,0.6636,0.7414,0.8748,0.9369,1.049,1.2494,1.2663,1.2946,1.3653,1.2882,0.0,0.0,0.0,0.0,0.0,0.0,0.0,0.0,0.0,0.0,0.0,0.0,0.0,0.0,0.0,0.0,0.0,0.0,0.0,0.0,0.0,0.0,0.0,0.0,0.0,0.0,0.0,0.0,0.0,0.0,0.0,0.0,0.0,0.0,0.0,0.0,0.0,0.0,0.0,0.0,0.0,0.0,0.0,0.0,0.0,0.0,0.0,0.0,0.0,0.0,0.0,0.0,0.0,0.0,0.0,0.0,0.0,0.0,0.0,0.0,0.0,0.0,0.0,0.0,0.0,0.0,0.0,0.0,0.0,0.0,0.0,0.0,0.0,0.0,0.0,0.0,0.0,0.0,0.0,0.0,0.0,0.0,0.0,0.0,0.0,0.0,0.0,0.0,0.0,0.0,0.0,0.0,0.0,0.0,0.0,0.0,0.0,0.0,0.0,0.0,0.0,0.0,0.5781,0.6433,0.7588,0.8535,0.9427,1.0349,1.0434,1.0279,0.9907,0.9185,0.0,0.0,0.0,0.0,0.0,0.0,0.0,0.0,0.0,0.0,0.0,0.0,0.0,0.0,0.0,0.0,0.0,0.0,0.0,0.0,0.0,0.0,0.0,0.0,0.0,0.0,0.0,0.0,0.0,0.0,0.0,0.0,0.0,0.0,0.0,0.0,0.0,0.0,0.0,0.0,0.0,0.0,0.0,0.0,0.0,0.0,0.0,0.0,0.0,0.0,0.0,0.0,0.0,0.0,0.0,0.0,0.0,0.0,0.0,0.0,0.0,0.0,0.0,0.0,0.0,0.0,0.0,0.0,0.0,0.0,0.0,0.0,0.0,0.0,0.0,0.0,0.0,0.0,0.0,0.0,0.0,0.0,0.0,0.0,0.0,0.0,0.0,0.0,0.0,0.0,0.0,0.0,0.0,0.0,0.0,0.0,0.0,0.0,0.0,0.0,0.0,0.0,0.5597,0.5995,0.0,0.7364,0.8136,0.9195,0.9278,0.9355,0.9605,0.0,0.0,0.0,0.0,0.0,0.0,0.0,0.0,0.0,0.0,0.0,0.0,0.0,0.0,0.0,0.0,0.0,0.0,0.0,0.0,0.0,0.0,0.0,0.0,0.0,0.0,0.0,0.0,0.0,0.0,0.0,0.0,0.0,0.0,0.0,0.0,0.0,0.0,0.0,0.0,0.0,0.0,0.0,0.0,0.0,0.0,0.0,0.0,0.0,0.0,0.0,0.0,0.0,0.0,0.0,0.0,0.0,0.0,0.0,0.0,0.0,0.0,0.0,0.0,0.0,0.0,0.0,0.0,0.0,0.0,0.0,0.0,0.0,0.0,0.0,0.0,0.0,0.0,0.0,0.0,0.0,0.0,0.0,0.0,0.0,0.0,0.0,0.0,0.0,0.0,0.0,0.0,0.0,0.0,0.0,0.0,0.0,0.0,0.0,0.0,0.0,0.0,0.4827,0.491,0.5104,0.0,0.6242,0.6828,0.7716,0.7717,0.7862,0.8328,0.0,0.0,0.0,0.0,0.0,0.0,0.0,0.0,0.0,0.0,0.0,0.0,0.0,0.0,0.0,0.0,0.0,0.0,0.0,0.0,0.0,0.0,0.0,0.0,0.0,0.0,0.0,0.0,0.0,0.0,0.0,0.0,0.0,0.0,0.0,0.0,0.0,0.0,0.0,0.0,0.0,0.0,0.0,0.0,0.0,0.0,0.0,0.0,0.0,0.0,0.0,0.0,0.0,0.0,0.0,0.0,0.0,0.0,0.0,0.0,0.0,0.0,0.0,0.0,0.0,0.0,0.0,0.0,0.0,0.0,0.0,0.0,0.0,0.0,0.0,0.0,0.0,0.0,0.0,0.0,0.0,0.0,0.0,0.0,0.0,0.0,0.0,0.0,0.0,0.0,0.0,0.0,0.0,0.0,0.0,0.0,0.0,0.0,0.0,0.0,0.0,0.0,0.3954,0.356,0.356,0.4577,0.5225,0.564,0.5783,0.5533,0.5419,0.0,0.0,0.0,0.0,0.0,0.0,0.0,0.0,0.0,0.0,0.0,0.0,0.0,0.0,0.0,0.0,0.0,0.0,0.0,0.0,0.0,0.0,0.0,0.0,0.0,0.0,0.0,0.0,0.0,0.0,0.0,0.0,0.0,0.0,0.0,0.0,0.0,0.0,0.0,0.0,0.0,0.0,0.0,0.0,0.0,0.0,0.0,0.0,0.0,0.0,0.0,0.0,0.0,0.0,0.0,0.0,0.0,0.0,0.0,0.0,0.0,0.0,0.0,0.0,0.0,0.0,0.0,0.0,0.0,0.0,0.0,0.0,0.0,0.0,0.0,0.0,0.0,0.0,0.0,0.0,0.0,0.0,0.0,0.0,0.0,0.0,0.0,0.0,0.0,0.0,0.0,0.0,0.0,0.0,0.0,0.0,0.0,0.0,0.0,0.0,0.0,0.0,0.0,0.3177,0.2792,0.2768,0.3688,0.3558,0.3977,0.5325,0.48,0.4597,0.5044,0.0,0.0,0.0,0.0,0.0,0.0,0.0,0.0,0.0,0.0,0.0,0.0,0.0,0.0,0.0,0.0,0.0,0.0,0.0,0.0,0.0,0.0,0.0,0.0,0.0,0.0,0.0,0.0,0.0,0.0,0.0,0.0,0.0,0.0,0.0,0.0,0.0,0.0,0.0,0.0,0.0,0.0,0.0,0.0,0.0,0.0,0.0,0.0,0.0,0.0,0.0,0.0,0.0,0.0,0.0,0.0,0.0,0.0,0.0,0.0,0.0,0.0,0.0,0.0,0.0,0.0,0.0,0.0,0.0,0.0,0.0,0.0,0.0,0.0,0.0,0.0,0.0,0.0,0.0,0.0,0.0,0.0,0.0,0.0,0.0,0.0,0.0,0.0,0.0,0.0,0.0,0.0,0.0,0.0,0.0,0.0,0.0,0.0,0.0,0.0,0.0,0.0,0.2657,0.2162,0.2012,0.288,0.2599,0.2812,0.4015,0.3535,0.3437,0.4002,0.0,0.0,0.0,0.0,0.0,0.0,0.0,0.0,0.0,0.0,0.0,0.0,0.0,0.0,0.0,0.0,0.0,0.0,0.0,0.0,0.0,0.0,0.0,0.0,0.0,0.0,0.0,0.0,0.0,0.0,0.0,0.0,0.0,0.0,0.0,0.0,0.0,0.0,0.0,0.0,0.0,0.0,0.0,0.0,0.0,0.0,0.0,0.0,0.0,0.0,0.0,0.0,0.0,0.0,0.0,0.0,0.0,0.0,0.0,0.0,0.0,0.0,0.0,0.0,0.0,0.0,0.0,0.0,0.0,0.0,0.0,0.0,0.0,0.0,0.0,0.0,0.0,0.0,0.0,0.0,0.0,0.0,0.0,0.0,0.0,0.0,0.0,0.0,0.0,0.0,0.0,0.0,0.0,0.0,0.0,0.0,0.0,0.0,0.0,0.0,0.0,0.0,0.2276,0.1715,0.1495,0.2315,0.2214,0.2169,0.2364,0.2141,0.2164,0.2587,0.0,0.0,0.0,0.0,0.0,0.0,0.0,0.0,0.0,0.0,0.0,0.0,0.0,0.0,0.0,0.0,0.0,0.0,0.0,0.0,0.0,0.0,0.0,0.0,0.0,0.0,0.0,0.0,0.0,0.0,0.0,0.0,0.0,0.0,0.0,0.0,0.0,0.0,0.0,0.0,0.0,0.0,0.0,0.0,0.0,0.0,0.0,0.0,0.0,0.0,0.0,0.0,0.0,0.0,0.0,0.0,0.0,0.0,0.0,0.0,-0.4218,0.0,0.0,0.0,0.0,0.0,0.0,0.0,0.0,0.0,0.0,0.0,0.0,0.0,0.0,0.0,0.0,0.0,0.0,0.0,0.0,0.0,0.0,0.0,0.0,0.0,0.0,0.0,0.0,0.0,0.0,0.0,0.0,0.0,0.0,0.0,0.0,0.0,0.0,0.0,0.0,0.0,0.1841,0.1866,0.2115,0.2922,0.2456,0.2353,0.2941,0.238,0.1993,0.2005,0.1634,0.0,0.0,0.0,0.0,0.0,0.0,0.0,0.0,0.0,0.0,0.0,0.0,0.0,0.0,0.0,0.0,0.0,0.0,0.0,0.0,0.0,0.0,0.0,0.0,0.0,0.0,0.0,0.0,0.0,0.0,0.0,0.0,0.0,0.0,0.0,0.0,0.0,0.0,0.0,0.0,0.0,0.0,0.0,0.0,0.0,0.0,0.0,0.0,0.0,0.0,0.0,0.0,0.0,0.0,0.0,0.0,0.0,0.0,0.0,0.0,-0.4455,0.0,0.0,0.0,0.0,0.0,0.0,0.0,0.0,0.0,0.0,0.0,0.0,0.0,0.0,0.0,0.0,0.0,0.0,0.0,0.0,0.0,0.0,0.0,0.0,0.0,0.0,0.0,0.0,0.0,0.0,0.0,0.0,0.0,0.0,0.0,0.0,0.0,0.0,0.0,0.0,0.1213,0.1138,0.1198,0.1602,0.1646,0.1779,0.2147,0.2091,0.2157,0.2371,0.1883,0.0,0.0,0.0,0.0,0.0,0.0,0.0,0.0,0.0,0.0,0.0,0.0,0.0,0.0,0.0,0.0,0.0,0.0,0.0,0.0,0.0,0.0,0.0,0.0,0.0,0.0,0.0,0.0,0.0,0.0,0.0,0.0,0.0,0.0,0.0,0.0,0.0,0.0,0.0,0.0,0.0,0.0,0.0,0.0,0.0,0.0,0.0,0.0,0.0,0.0,0.0,0.0,0.0,-0.374,-0.3278,-0.3852,-0.3576,-0.3969,-0.4776,-0.4685,-0.4423,-0.4187,-0.5295,0.0,0.0,0.0,0.0,0.0,0.0,0.0,0.0,0.0,0.0,0.0,0.0,0.0,0.0,0.0,0.0,0.0,0.0,0.0,0.0,0.0,0.0,0.0,0.0,-0.0031,0.0972,0.0,0.0,0.0,0.0,0.0,0.0,0.0,0.0,0.0,0.0,0.0,0.0,0.0724,0.0515,0.0347,0.0368,0.0908,0.1244,0.1109,0.161,0.2133,0.264,0.2039,0.2165,0.0,0.0,0.0,0.0,0.0,0.0,0.0,0.0,0.0,0.0,0.0,0.0,0.0,0.0,0.0,0.0,0.0,0.0,0.0,0.0,0.0,0.0,0.0,0.0,0.0,0.0,0.0,0.0,0.0,0.0,0.0,0.0,-0.6476,-0.6177,0.0,0.0,0.0,0.0,0.0,0.0,0.0,0.0,0.0,0.0,0.0,0.0,0.0,-0.6581,-0.5321,-0.4797,-0.3853,-0.2482,-0.3573,-0.4097,-0.4191,-0.4966,-0.5412,-0.5556,-0.554,0.0,-0.5685,-0.5532,0.0,0.0,0.0,0.0,0.0,0.0,0.0,0.0,0.0,0.0,0.0,0.0,0.0,0.0,0.0,0.0,0.0,0.0,0.0,0.0,0.0,0.0,-0.0441,-0.0432,-0.0135,0.0203,0.0,0.0808,0.1067,0.0933,0.0913,0.0,0.0,0.0,0.0,0.0,0.0,0.0,0.1015,0.145,0.1765,0.1802,0.1913,0.1745,0.1143,0.1172,0.1256,0.1354,0.1242,0.1676,0.2758,0.2697,0.0,0.0,0.0,0.0,0.0,0.0,0.0,0.0,0.0,0.0,0.0,0.0,0.0,0.0,0.0,0.0,0.0,0.0,0.0,0.0,0.0,0.0,0.0,0.0,0.0,0.0,0.0,0.0,0.0,-0.4833,-0.5254,-0.5427,-0.6187,-0.6696,0.0,0.0,0.0,0.0,0.0,0.0,0.0,0.0,0.0,-0.7078,-0.6412,-0.6139,-0.6341,-0.4468,-0.3689,-0.413,-0.3446,-0.3379,-0.3881,-0.4053,-0.4429,-0.4921,-0.4921,-0.5269,-0.5835,-0.5882,-0.6065,-0.633,0.0,0.0,0.0,0.0,-0.5696,-0.5143,-0.4276,-0.3987,0.0,-0.3623,0.0,0.0,0.0,0.0,0.0,0.0,0.0,0.0,0.0,0.0,-0.143,-0.1139,-0.0971,-0.0692,-0.01,0.0259,0.0464,0.0,0.0635,0.0621,-0.0075,0.0,0.0,0.0,0.0,0.0216,0.0358,0.0611,0.0789,0.0902,0.1276,0.1577,0.1644,0.1678,0.2003,0.2836,0.2109,0.2163,0.3313,0.3063,0.2992,0.0,0.0,0.0,0.0,0.0,0.0,0.0,0.0,0.0,0.0,0.0,0.0,0.0,0.0,0.0,0.0,0.0,0.0,0.0,0.0,0.0,0.0,0.0,0.0,0.0,0.0,0.0,0.0,-0.4228,-0.4493,-0.4908,-0.56,-0.609,0.0,0.0,0.0,0.0,0.0,0.0,-0.6944,-0.6925,-0.7023,-0.7308,-0.6293,-0.6116,-0.6869,-0.4553,-0.3998,-0.5152,-0.3518,-0.3118,-0.3789,-0.3859,-0.4162,-0.4654,-0.4877,-0.5322,-0.5998,-0.6012,-0.6272,-0.6596,-0.6525,-0.6534,-0.6577,-0.6762,-0.64,-0.5699,-0.5081,-0.4882,-0.4803,-0.4434,-0.4055,-0.3822,-0.4306,0.0,0.0,0.0,0.0,-0.28,-0.2854,-0.2571,-0.221,-0.1913,-0.1767,-0.1542,-0.0957,-0.0408,-0.0033,0.0,0.0364,0.0385,-0.0336,0.0,0.0,0.0,0.0,-0.0338,-0.0092,-0.0155,-0.0159,0.0,0.0505,0.1109,0.1779,0.1846,0.2442,0.3891,0.2929,0.2782,0.3835,0.3485,0.3346,0.345,0.0,0.0,0.0,0.0,0.0,0.0,0.0,0.0,0.0,0.0,0.0,0.0,0.0,0.0,0.0,0.0,0.0,0.0,0.0,0.0,0.0,0.0,0.0,0.0,0.0,0.0,0.0,0.0,0.0,-0.4847,-0.6229,0.0,0.0,0.0,0.0,-0.7015,-0.7512,-0.7607,-0.7119,-0.7313,-0.7432,-0.741,-0.7429,-0.6854,-0.5499,-0.5358,-0.4602,-0.3232,-0.3964,-0.4294,-0.4424,-0.5911,-0.6257,-0.5675,-0.639,-0.6704,-0.6681,-0.5752,-0.5753,-0.6273,-0.5822,-0.6074,-0.6659,-0.6505,-0.6408,-0.628,-0.5584,-0.5359,-0.5277,-0.4592,-0.486,-0.5407,-0.5635,-0.5474,0.0,0.0,-0.3311,-0.3143,-0.264,-0.2524,-0.2434,-0.2301,-0.2252,-0.2236,-0.2217,-0.1153,-0.0069,0.0,0.0392,0.0254,-0.0216,0.0,-0.0029,-0.0028,-0.0287,-0.0297,0.0307,-0.0032,-0.0228,-0.0034,0.0034,0.0337,0.1076,0.1143,0.1693,0.2972,0.2995,0.3197,0.3773,0.378,0.3719,0.3585,0.3603,0.0,0.0,0.0,0.0,0.0,0.0,0.0,0.0,0.0,0.0,0.0,0.0,0.0,0.0,0.0,0.0,0.0,0.0,0.0,0.0,0.0,0.0,0.0,0.0,0.0,0.0,0.0,0.0,-0.5675,-0.6511,0.0,-0.6226,-0.7119,-0.7558,-0.7149,-0.7525,-0.7792,-0.7816,-0.8071,-0.798,-0.7418,-0.6876,-0.6404,-0.6061,-0.4687,-0.4369,-0.5089,-0.4905,-0.4905,-0.4987,-0.571,-0.5609,-0.4881,-0.5581,-0.5905,-0.5899,-0.5982,-0.6451,-0.7017,-0.6062,-0.6254,-0.7096,-0.672,-0.6709,-0.6756,-0.6199,-0.6298,-0.6576,-0.5924,-0.5644,-0.5543,-0.5375,-0.4862,-0.4293,-0.4183,-0.3883,-0.3559,-0.339,-0.3328,-0.3257,-0.2831,-0.2948,-0.2987,-0.2407,-0.2131,-0.1907,-0.1522,-0.0701,-0.0202,-0.0721,-0.0955,-0.0989,-0.069,-0.0754,-0.0707,-0.0412,-0.0225,-0.0131,-0.0202,0.0101,0.0706,0.1678,0.1255,0.1756,0.3604,0.3223,0.319,0.3788,0.387,0.388,0.3736,0.3819,0.3695,0.0,0.0,0.0,0.0,0.0,0.0,0.0,0.0,0.0,0.0,0.0,0.0,0.0,0.0,0.0,0.0,0.0,0.0,0.0,0.0,0.0,0.0,0.0,0.0,0.0,0.0,-0.5678,-0.6301,-0.6714,-0.6927,-0.6861,-0.7494,-0.7844,-0.7551,-0.7978,-0.8301,-0.834,-0.8379,-0.8234,-0.7889,-0.6985,-0.6681,-0.6936,-0.5284,-0.5005,-0.6129,-0.5349,-0.5057,-0.5234,-0.5595,-0.5339,-0.4706,-0.5413,-0.5673,-0.5638,-0.5855,-0.6508,-0.7365,-0.6528,-0.6656,-0.7274,-0.7137,-0.7013,-0.6896,-0.6647,-0.7226,-0.7966,-0.7246,-0.7028,-0.6859,-0.6075,-0.5444,-0.4927,-0.4656,-0.436,-0.4077,-0.4003,-0.3997,-0.3919,-0.354,-0.3659,-0.3672,-0.2973,-0.288,-0.2859,-0.2745,-0.1801,-0.1021,-0.113,-0.1366,-0.1323,-0.0683,-0.0716,-0.0758,-0.058,-0.0391,-0.0297,-0.037,0.0,0.0629,0.1587,0.1225,0.1673,0.3279,0.3095,0.3045,0.3407,0.3697,0.3832,0.3747,0.3767,0.3742,0.3654,0.0,0.0,0.0,0.0,0.0,0.0,0.0,0.0,0.0,0.0,0.0,0.0,0.0,0.0,0.0,0.0,0.0,0.0,0.0,0.0,0.0,0.0,0.0,-0.559,-0.5841,-0.6122,-0.6649,-0.6918,-0.716,-0.751,-0.82,-0.8484,-0.826,-0.8963,-0.9168,-0.865,-0.8259,-0.8283,-0.8775,-0.8028,-0.7683,-0.7939,-0.7132,-0.6484,-0.5939,-0.5147,-0.4857,-0.5143,-0.5761,-0.5743,-0.5271,-0.5993,-0.6243,-0.6044,-0.5369,-0.5852,-0.7126,-0.7149,-0.7123,-0.7132,-0.762,-0.7297,-0.6638,-0.6904,-0.8035,-0.9215,-0.8514,-0.8878,-0.9315,-0.7723,-0.7254,-0.6897,-0.5099,-0.4591,-0.4565,-0.4457,-0.4387,-0.4397,-0.4299,-0.4315,-0.4239,-0.3971,-0.3285,-0.2816,-0.3086,-0.2756,-0.2206,-0.134,-0.1202,-0.0893,0.0063,-0.019,0.0,-0.0129,-0.0464,-0.0674,-0.0506,-0.0361,0.0032,0.074,0.097,0.1335,0.1943,0.2552,0.283,0.271,0.3272,0.3613,0.3613,0.3479,0.3549,0.3789,0.0,0.0,0.0,0.0,0.0,0.0,0.0,0.0,0.0,0.0,0.0,0.0,0.0,0.0,0.0,0.0,0.0,0.0,0.0,0.0,0.0,0.0,-0.4355,-0.4623,-0.553,-0.6368,-0.6866,-0.7532,-0.8016,-0.8264,-0.856,-0.8759,-0.8846,-0.9198,-0.9365,-0.9351,-0.9205,-0.8981,-0.8531,-0.7733,-0.7089,-0.6542,-0.5734,-0.5386,-0.5441,-0.576,-0.5743,-0.5492,-0.6168,-0.6099,-0.5439,-0.6021,-0.629,-0.6252,-0.6427,-0.6741,-0.7082,-0.6714,-0.6658,-0.6847,-0.7053,-0.7031,-0.6891,-0.6822,-0.7308,-0.7951,-0.7489,-0.7677,-0.7882,-0.6645,-0.6464,-0.6371,-0.515,-0.4762,-0.4634,-0.4567,-0.4481,-0.4397,-0.4299,-0.433,-0.4323,-0.4213,-0.406,-0.396,-0.4027,-0.3951,-0.3277,-0.1489,-0.1487,-0.1303,-0.0136,-0.0067,0.0,-0.0033,0.0335,0.0337,-0.0303,0.0295,0.0709,0.0644,0.0736,0.1038,0.1588,0.2237,0.2593,0.2569,0.3216,0.3638,0.3744,0.372,0.369,0.0,0.0,0.0,0.0,0.0,0.0,0.0,0.0,0.0,0.0,0.0,0.0,0.0,0.0,0.0,0.0,0.0,0.0,0.0,0.0,0.0,0.0,-0.5268,-0.4879,-0.4856,-0.5581,-0.636,-0.6949,-0.7307,-0.757,-0.7665,-0.7827,-0.814,-0.8613,-0.8841,-0.9168,-0.9575,-0.9278,-0.8882,-0.8432,-0.7637,-0.7036,-0.6686,-0.5887,-0.5589,-0.5892,-0.5989,-0.5937,-0.5787,-0.622,-0.6214,-0.5869,-0.6109,-0.6224,-0.6304,-0.6579,-0.6745,0.0,0.0,0.0,0.0,0.0,-0.7248,-0.763,-0.6736,-0.7399,-0.8524,-0.7512,-0.7628,-0.795,-0.6967,-0.68,-0.6716,-0.574,-0.5416,-0.5323,-0.5192,-0.502,-0.4864,-0.4787,-0.4733,-0.4645,-0.4548,-0.4505,-0.4501,-0.4423,-0.4384,0.0,-0.227,-0.1879,-0.1465,-0.0536,-0.0035,0.0205,0.0034,0.0372,0.0471,0.0,0.0492,0.0802,0.0665,0.0575,0.0,0.0,0.0,0.2178,0.2736,0.316,0.0,0.0,0.0,0.0,0.0,0.0,0.0,0.0,0.3874,0.401,0.0,0.0,0.0,0.0,0.0,0.0,0.0,0.0,0.0,0.0,0.0,0.0,0.0,0.0,0.0,0.0,-0.5699,-0.5563,-0.5765,-0.5882,-0.6161,-0.6826,-0.6631,-0.6473,-0.6428,-0.667,-0.7155,-0.7951,-0.8153,-0.863,-0.943,0.0,0.0,0.0,0.0,-0.7285,-0.7531,-0.6734,-0.6439,-0.6692,-0.5987,-0.5789,-0.6042,-0.6092,-0.6189,-0.6331,-0.6241,-0.626,-0.6334,-0.6188,-0.6257,-0.6428,-0.6858,-0.7151,-0.7271,-0.6935,-0.7571,-0.8377,-0.6609,0.0,0.0,-0.795,-0.8017,-0.8692,-0.7893,-0.7624,-0.7435,-0.6559,-0.6294,-0.6224,-0.5962,-0.5747,-0.5568,-0.5447,-0.5289,-0.5093,-0.4925,-0.486,-0.4737,-0.454,-0.4501,-0.4226,-0.3327,-0.2417,-0.1612,-0.1099,-0.0143,0.0351,0.0,0.0069,0.0202,0.0303,0.0,0.0,0.0619,0.0452,0.0292,0.0197,0.0814,0.1748,0.3041,0.3116,0.3293,0.3605,0.3751,0.3944,0.4196,0.4278,0.4436,0.4694,0.4138,0.4124,0.0,0.0,0.0,0.0,0.0,0.0,0.0,0.0,0.0,0.0,0.0,0.0,0.0,0.0,0.0,-0.5542,-0.5237,-0.5147,-0.5734,-0.5963,-0.6095,-0.6271,-0.6665,-0.6915,-0.6735,-0.6948,-0.7349,-0.7951,-0.7667,-0.7783,-0.8581,-0.8081,-0.773,-0.773,-0.7188,-0.6892,-0.6942,-0.6137,-0.5887,-0.6142,0.0,0.0,-0.6337,-0.6542,-0.6681,-0.6697,-0.6661,-0.6685,-0.6689,-0.6445,-0.6387,-0.6419,-0.6449,-0.6829,-0.7289,-0.6414,-0.6766,-0.7514,-0.6405,-0.7013,-0.8074,-0.6917,-0.7157,-0.7692,-0.687,-0.7071,0.0,-0.6624,-0.6365,-0.6245,-0.6037,-0.5777,-0.5592,-0.5565,-0.5436,-0.535,-0.5419,-0.5425,-0.5362,-0.5165,-0.5126,-0.481,-0.3832,-0.322,-0.2636,-0.1834,-0.0843,-0.0251,-0.0316,0.0523,0.0965,0.0505,0.0788,0.0766,0.0186,0.0399,0.0448,0.0225,0.1062,0.2025,0.2974,0.3219,0.3435,0.3667,0.3924,0.4107,0.4298,0.4287,0.4441,0.4684,0.4087,0.4126,0.0,0.0,0.0,0.0,0.0,0.0,0.0,0.0,0.0,0.0,0.0,-0.5455,-0.5491,0.0,-0.5425,-0.5973,-0.5925,-0.5932,-0.6285,-0.6502,-0.6421,-0.5985,-0.6351,-0.6459,-0.6029,-0.616,-0.6531,-0.7308,-0.7122,-0.7338,-0.8137,-0.7935,-0.7637,-0.7188,-0.6942,-0.6695,-0.6392,-0.5989,-0.5939,-0.6189,-0.6342,-0.6492,-0.6589,-0.6892,-0.6992,-0.6977,-0.6861,-0.6888,-0.7004,-0.6815,-0.6741,-0.6735,-0.6711,-0.6771,-0.6832,-0.6716,-0.7046,-0.7381,-0.6347,-0.6837,-0.7761,-0.686,-0.6932,-0.7299,-0.6993,-0.7156,-0.7382,-0.7058,-0.6828,-0.6637,-0.6421,-0.616,-0.5812,-0.5316,-0.5012,-0.4733,-0.4472,-0.4385,-0.446,-0.4774,-0.4851,-0.4696,-0.4185,-0.3836,-0.3149,-0.1614,-0.0527,0.0148,0.0255,0.0793,0.1097,0.0964,0.112,0.1125,0.0791,0.0726,0.069,0.0709,0.1187,0.1851,0.2759,0.2918,0.3099,0.3355,0.356,0.3712,0.3846,0.4114,0.437,0.4565,0.4452,0.4545,0.0,0.0,0.0,0.0,0.0,0.0,0.0,0.0,-0.6231,-0.5618,-0.5711,-0.5837,-0.5541,-0.5502,-0.5719,-0.6412,-0.6621,-0.6719,-0.676,-0.6907,-0.6701,-0.5924,-0.6104,-0.6042,-0.5344,-0.5499,-0.5942,-0.6643,-0.6621,-0.6942,-0.7743,-0.769,-0.7341,-0.6742,-0.6792,-0.6592,-0.6242,-0.6242,-0.6339,-0.6537,-0.6789,-0.6892,-0.6892,-0.7188,-0.7322,-0.7332,-0.7108,-0.716,-0.7346,-0.7286,-0.7275,-0.7275,-0.7275,-0.6984,-0.6688,-0.7135,-0.7439,-0.7493,-0.6539,-0.6958,-0.7743,-0.7104,-0.7023,-0.7208,-0.7458,-0.7454,-0.7382,-0.7548,-0.7411,-0.721,-0.694,-0.6662,-0.6153,-0.5176,-0.4614,-0.4135,-0.3473,-0.328,-0.3444,-0.407,-0.4187,-0.4148,-0.3954,-0.3795,-0.3129,-0.1527,-0.0386,0.038,0.053,0.0706,0.0943,0.1265,0.1303,0.1353,0.1459,0.1107,0.1018,0.1295,0.1292,0.1634,0.2476,0.2567,0.2744,0.3017,0.3174,0.3339,0.3443,0.3891,0.4161,0.4276,0.459,0.4838,-0.6206,-0.6322,-0.611,-0.5775,-0.528,-0.4825,0.0,0.0,-0.4999,-0.485,-0.501,-0.5256,-0.5405,-0.5451,-0.5657,-0.609,-0.6273,-0.637,-0.6386,-0.6415,-0.6366,-0.6107,-0.6602,-0.6621,-0.567,-0.6386,-0.6842,-0.6691,-0.6122,-0.6089,-0.6892,-0.6492,-0.6292,-0.6437,-0.6692,-0.6892,-0.7089,-0.7089,-0.7089,-0.7089,-0.7138,-0.7138,-0.7188,-0.769,-0.7865,-0.7724,-0.7898,-0.7911,-0.7816,-0.7823,-0.7808,-0.7808,-0.7808,-0.7753,-0.7658,-0.7217,-0.7206,-0.7371,-0.7079,-0.7171,-0.7352,-0.7288,-0.7315,-0.7401,-0.7534,-0.7575,-0.7593,-0.7807,-0.7856,-0.7767,-0.7536,-0.7182,-0.6623,-0.5714,-0.5112,-0.4556,-0.3893,-0.3746,-0.3677,-0.3524,-0.3524,-0.3212,-0.235,-0.2155,-0.2233,-0.2545,-0.1523,-0.0735,-0.0795,0.0038,0.0703,0.0845,0.093,0.1086,0.1368,0.1315,0.1369,0.162,0.1591,0.1747,0.2129,0.2449,0.2766,0.3088,0.3408,0.3601,0.3649,0.3734,0.3745,0.3793,0.3831,0.4261,-0.6065,-0.6147,-0.5959,0.0,-0.5624,-0.5738,-0.5269,-0.5571,-0.5808,-0.5326,-0.5319,-0.5413,-0.5509,-0.5625,-0.5811,0.0,-0.635,-0.6494,-0.6494,-0.6571,-0.6495,-0.62,-0.6953,-0.7138,-0.6223,-0.652,-0.6828,-0.6993,-0.6562,-0.6489,-0.6992,-0.6692,-0.6592,-0.6836,-0.6989,-0.7089,-0.7188,-0.7188,-0.7285,-0.7434,-0.7587,-0.7736,-0.7935,-0.828,-0.8346,-0.8095,-0.811,-0.8012,-0.79,-0.79,-0.79,-0.79,-0.79,-0.7984,-0.7998,-0.7541,-0.7418,-0.748,-0.7319,-0.7308,-0.7383,-0.743,-0.759,-0.7797,-0.7912,-0.7961,-0.7977,-0.8049,-0.7984,-0.7771,-0.7171,-0.6795,-0.6194,-0.4862,-0.4346,-0.388,-0.2797,-0.2637,-0.274,-0.286,-0.2862,-0.2744,-0.2314,-0.2156,-0.1999,-0.1725,-0.1059,-0.0469,-0.0271,0.0155,0.0496,0.0663,0.0829,0.0974,0.1115,0.1195,0.1342,0.1634,0.1623,0.1705,0.1973,0.2563,0.2803,0.2588,0.3681,0.3817,0.3011,0.3742,0.3859,0.3361,0.3629,0.396,-0.6354,-0.6289,0.0,-0.5589,-0.5965,-0.6266,-0.5651,-0.6047,-0.638,-0.5732,-0.5637,-0.5685,-0.5764,-0.5888,-0.6059,-0.6345,-0.6573,-0.6678,-0.6717,-0.6779,-0.6711,-0.6387,-0.7081,-0.7327,-0.6709,-0.6823,-0.6985,-0.7115,-0.6988,-0.6956,-0.7185,-0.6992,-0.7042,-0.7291,-0.7291,-0.7338,-0.7437,-0.7487,-0.7633,-0.7829,-0.8084,-0.8333,-0.8528,-0.8683,-0.8656,-0.8516,-0.831,-0.8195,-0.8076,-0.8076,-0.8076,-0.8076,-0.8076,-0.816,-0.8277,-0.7978,-0.7858,-0.7793,-0.7628,-0.7571,-0.759,-0.7663,-0.7866,-0.8103,-0.8182,-0.8253,-0.8292,-0.8292,-0.8072,-0.7647,-0.7007,-0.6538,-0.582,-0.438,-0.3874,-0.3411,-0.2204,-0.2014,-0.21,-0.231,-0.2353,-0.2314,-0.2198,-0.2041,-0.1726,-0.1021,-0.0668,-0.0314,0.0079,0.0234,0.0348,0.0498,0.0695,0.0796,0.08,0.0989,0.1301,0.1725,0.1806,0.2042,0.2473,0.3056,0.321,0.2821,0.3988,0.4094,0.2989,0.3683,0.3683,0.3068,0.3262,0.3391,-0.7666,0.0,-0.6855,-0.6456,-0.5948,-0.5544,-0.5594,-0.578,-0.5857,-0.5634,-0.575,-0.5944,-0.6128,-0.6197,-0.6332,-0.6825,-0.6879,-0.6933,-0.7068,-0.6974,-0.6857,-0.6773,-0.6887,-0.6923,0.0,-0.7552,-0.7677,-0.703,-0.7003,-0.7058,-0.7182,-0.7188,-0.7291,-0.7596,-0.7596,-0.7693,-0.7988,-0.8233,-0.8382,-0.8382,-0.8627,-0.8775,-0.8764,-0.8731,-0.8816,-0.9076,-0.8727,-0.8572,-0.8568,-0.8568,-0.8568,-0.8568,-0.8568,-0.8568,-0.8568,-0.856,-0.8446,-0.8264,-0.8035,-0.7975,-0.7975,-0.7979,-0.8142,-0.8292,-0.8296,-0.8422,-0.8568,-0.8568,-0.8072,-0.7485,-0.7482,-0.6698,-0.5683,-0.4768,-0.4163,-0.3564,-0.2731,-0.2465,-0.2287,-0.1991,-0.1921,-0.1803,-0.1414,-0.1335,-0.1218,-0.0943,-0.0904,-0.0746,-0.0314,0.0077,0.0306,0.0313,0.0413,0.052,0.0586,0.0806,0.1262,0.2115,0.2353,0.2938,0.399,0.4068,0.4146,0.4345,0.4384,0.4371,0.423,0.3438,0.3022,0.2986,0.2424,0.2381,-0.7782,0.0,-0.6678,-0.623,-0.6256,-0.6358,-0.6264,-0.6485,-0.6645,-0.6504,-0.6402,-0.6383,-0.644,-0.6535,-0.6673,-0.7001,-0.7213,-0.7447,-0.7606,-0.7588,-0.749,-0.7346,-0.7476,0.0,0.0,0.0,0.0,-0.7549,-0.7382,-0.7394,-0.773,-0.7543,-0.7593,-0.7842,-0.8038,-0.8187,-0.8283,-0.8531,-0.8779,-0.8935,-0.9179,-0.9327,-0.9316,-0.9064,-0.8999,-0.9076,-0.8218,-0.7893,-0.7845,-0.736,-0.7452,-0.7804,-0.7316,-0.7448,-0.7804,-0.7319,-0.7109,-0.7084,-0.7364,-0.7176,-0.6792,-0.6792,-0.6896,-0.7149,-0.7632,-0.7497,-0.7228,-0.7716,-0.736,-0.665,-0.621,-0.5841,-0.5359,-0.4437,-0.4068,-0.3762,-0.3069,-0.2902,-0.2759,-0.2388,-0.2078,-0.1843,-0.1726,-0.1492,-0.1257,-0.1178,-0.0904,-0.0668,-0.051,-0.0269,-0.0115,-0.0118,0.0191,0.0606,0.1212,0.144,0.1904,0.274,0.2859,0.3132,0.3602,0.4183,0.4416,0.4185,0.5276,0.5372,0.4368,0.4596,0.444,0.3906,0.3187,0.2908,-0.7658,-0.7292,-0.6916,-0.6515,-0.6649,-0.6893,-0.6788,-0.6913,-0.6976,-0.6812,-0.6648,-0.65,-0.65,-0.6508,-0.6685,-0.7058,-0.7289,-0.7528,-0.7859,-0.7844,-0.7767,-0.7778,-0.791,-0.7988,0.0,0.0,0.0,-0.7954,-0.788,-0.7979,-0.8276,-0.8137,-0.8088,-0.8283,-0.8432,-0.8528,-0.8528,-0.8829,-0.908,-0.9331,-0.9229,-0.9179,-0.9167,-0.8537,-0.8294,-0.8228,-0.7448,-0.7092,-0.7092,-0.6605,-0.6694,-0.7048,-0.6605,-0.6694,-0.7048,-0.6561,-0.6254,-0.611,-0.6726,-0.6647,-0.6254,-0.6254,-0.6314,-0.6473,-0.6959,-0.6782,-0.6517,-0.6959,-0.6605,-0.5944,-0.5505,-0.5193,-0.4849,-0.4243,-0.4014,-0.3882,-0.3518,-0.3353,-0.3184,-0.2781,-0.2511,-0.2275,-0.2156,-0.1765,-0.1452,-0.1335,-0.1061,-0.0825,-0.0707,-0.0542,-0.0386,-0.0314,0.0194,0.0771,0.1448,0.1959,0.2585,0.3405,0.3522,0.3756,0.4151,0.4807,0.5002,0.473,0.5899,0.6022,0.5087,0.5276,0.5143,0.4678,0.3945,0.3625,-0.7359,-0.7317,-0.7505,-0.7179,-0.7107,-0.7111,-0.7103,-0.7016,-0.6854,-0.6648,-0.6473,-0.6311,0.0,0.0,-0.6347,-0.6976,-0.7143,-0.7338,-0.7872,-0.7765,-0.7791,0.0,0.0,0.0,0.0,0.0,0.0,-0.8442,0.0,-0.8661,-0.8817,-0.8825,-0.8825,-0.8825,-0.8825,-0.8825,-0.8825,-0.9084,-0.9331,-0.9579,-0.8783,-0.8382,-0.8372,-0.7286,-0.6779,-0.6763,-0.6499,-0.634,-0.634,-0.6296,-0.6296,-0.634,-0.6296,-0.6296,-0.634,-0.6296,-0.5902,-0.5416,-0.6077,-0.6299,-0.6299,-0.6299,-0.6299,-0.6296,-0.634,-0.634,-0.6296,-0.634,-0.5855,-0.5327,-0.5327,-0.4835,-0.43,-0.43,-0.4102,-0.3934,-0.397,-0.3784,-0.351,-0.32,-0.3098,-0.2982,-0.255,-0.2156,-0.1764,-0.1375,-0.1296,-0.1139,-0.0904,-0.0707,-0.0471,-0.0275,0.047,0.1058,0.1371,0.227,0.3209,0.4107,0.4343,0.4776,0.5559,0.5747,0.586,0.5902,0.6141,0.63,0.63,0.5482,0.5151,0.5267,0.4632,0.4442,-0.769,-0.7381,-0.7053,-0.6983,-0.7136,-0.7315,-0.7196,-0.7246,-0.7281,-0.6977,-0.6808,-0.6647,0.0,0.0,0.0,-0.6993,-0.7446,0.0,-0.8376,-0.8456,0.0,-0.9368,0.0,-0.9635,-1.0056,-1.0238,0.0,0.0,-0.9232,-0.8661,-0.8817,-0.8825,-0.8825,-0.8825,-0.8981,-0.9084,-0.9084,-0.9381,-0.9529,-0.9579,-0.8783,-0.8382,-0.8372,-0.7286,-0.6779,-0.6763,-0.6006,-0.5636,-0.5591,-0.5055,-0.5144,-0.5591,-0.5055,-0.5188,-0.5591,-0.5055,-0.4743,-0.4612,-0.4788,-0.4832,-0.4832,-0.4832,-0.4832,-0.4921,-0.5502,-0.5277,-0.4966,-0.5502,-0.5146,-0.4567,-0.4567,-0.4433,-0.43,-0.43,-0.42,-0.4071,-0.3959,-0.3879,-0.3756,-0.353,-0.3254,-0.2982,-0.255,-0.2156,-0.1882,-0.1764,-0.1059,-0.055,-0.0471,-0.0275,0.0039,0.055,0.1216,0.192,0.2584,0.3207,0.3912,0.4701,0.4818,0.5012,0.5359,0.5437,0.5592,0.5899,0.598,0.6099,0.63,0.6166,0.6155,0.6154,0.5488,0.5206,-0.7613,-0.746,-0.7289,-0.7289,-0.7442,-0.7525,-0.724,-0.7347,-0.7321,-0.6755,-0.6748,0.0,-0.6371,-0.6666,0.0,0.0,0.0,0.0,-0.9139,-0.9375,-0.9685,0.0,-1.0332,0.0,-1.0887,-1.1001,-1.1014,0.0,-1.0246,-0.9661,-0.9513,-0.9517,-0.9373,-0.9175,-0.9282,-0.9385,-0.9385,-0.9529,-0.943,-0.908,-0.8379,-0.7882,-0.7475,-0.6475,-0.6075,-0.6111,0.0,-0.5149,-0.5191,-0.4701,-0.479,-0.5191,-0.4656,-0.4748,-0.506,-0.4614,-0.448,-0.4478,-0.4344,-0.4389,-0.4433,-0.4344,-0.43,-0.4389,-0.479,-0.4612,-0.4389,-0.479,-0.4612,-0.43,-0.43,-0.43,-0.43,-0.43,-0.4234,-0.4187,-0.4042,-0.3957,-0.3857,-0.3714,-0.3536,-0.3178,-0.2353,-0.2038,-0.1725,-0.1137,-0.0471,0.0079,0.0353,0.0314,0.0432,0.0864,0.1569,0.2311,0.3054,0.3679,0.4343,0.4976,0.5018,0.5054,0.5168,0.5243,0.5437,0.5747,0.5864,0.6022,0.63,0.6443,0.6549,0.6576,0.6259,0.6131,-0.7405,-0.7489,-0.7763,-0.7763,-0.7747,-0.7641,-0.7302,-0.726,-0.7099,-0.638,0.0,-0.6638,-0.6393,-0.6605,-0.7024,-0.7656,0.0,-0.8758,-0.949,-0.9886,-1.0313,-1.073,-1.0948,-1.1135,-1.1375,-1.1389,-1.1389,-1.1389,-1.1389,-1.1145,-1.056,-1.0507,-1.0314,-0.9821,-0.9826,-0.9723,-0.9624,-0.9575,-0.913,-0.8333,-0.7733,-0.7083,-0.6429,-0.5468,-0.5138,-0.527,-0.4881,0.0,-0.4966,-0.4792,-0.4837,-0.4921,-0.4748,-0.4705,-0.4705,-0.4661,-0.4661,-0.4661,-0.4389,-0.448,-0.4661,-0.4389,-0.43,-0.43,-0.43,-0.43,-0.43,-0.43,-0.43,-0.43,-0.43,-0.43,-0.43,-0.43,-0.4242,-0.4227,-0.4161,-0.4012,-0.3863,-0.3835,-0.3732,-0.3292,-0.2156,-0.1842,-0.1333,-0.0235,0.0196,0.0589,0.1218,0.0982,0.0825,0.11,0.1844,0.2549,0.3056,0.3837,0.4504,0.4898,0.4937,0.4937,0.5018,0.5168,0.5362,0.5559,0.5747,0.5993,0.6288,0.6434,0.658,0.6732,0.6846,0.6977,-0.7476,-0.7508,-0.7571,-0.7571,-0.7423,-0.7298,-0.7375,-0.7001,0.0,0.0,-0.6336,-0.6243,-0.602,-0.6433,-0.6735,-0.6539,-0.6963,-0.7358,-0.7504,-0.8512,-0.9492,0.0,0.0,0.0,0.0,0.0,0.0,0.0,0.0,-1.2078,-1.1096,-1.1047,-1.1002,-1.0949,-1.09,-1.0502,-0.9612,-0.9365,-0.8874,-0.8038,-0.7086,-0.6639,-0.6684,-0.5711,-0.528,-0.5268,-0.5058,0.0,-0.4748,-0.4879,-0.4879,-0.4748,-0.4705,-0.4705,-0.4661,-0.4433,-0.4525,-0.4661,-0.4389,-0.448,-0.4661,-0.4389,-0.43,-0.43,-0.43,-0.43,-0.43,-0.43,-0.43,-0.43,-0.43,-0.43,-0.43,-0.43,-0.4287,-0.4236,-0.4091,-0.3916,-0.3843,-0.3865,-0.3259,-0.2668,-0.2431,-0.1528,-0.0744,-0.0549,0.0235,0.0904,0.1257,0.1373,0.1647,0.2157,0.2669,0.2982,0.31,0.3606,0.4075,0.4462,0.4501,0.4659,0.4979,0.5015,0.5132,0.5359,0.5556,0.5849,0.6205,0.6508,0.6739,0.6849,0.6994,0.7071,-0.7484,-0.7484,-0.7484,-0.7484,-0.7354,-0.7204,-0.7138,0.0,0.0,0.0,-0.6222,-0.6277,-0.6182,-0.6596,0.0,-0.6617,-0.6972,-0.7368,-0.7514,-0.8211,0.0,0.0,0.0,0.0,0.0,0.0,0.0,0.0,0.0,-1.2467,-1.1639,-1.134,-1.1194,-1.1194,-1.1194,-1.0699,-0.9608,-0.946,-0.8722,-0.7391,-0.6989,-0.6689,-0.6387,-0.5869,-0.5666,-0.5698,-0.5438,0.0,-0.5196,-0.5055,-0.4788,-0.4433,-0.4072,-0.3671,-0.3358,-0.3624,-0.3803,-0.3939,-0.4208,-0.448,-0.4572,-0.3807,-0.3896,-0.4291,-0.4246,-0.4234,-0.4144,-0.3613,-0.348,-0.3356,-0.29,-0.2774,-0.2774,-0.2774,-0.2774,-0.2752,-0.2625,-0.2564,-0.2516,-0.2482,-0.2132,-0.171,-0.1256,-0.0705,-0.0118,0.0471,0.106,0.1492,0.1727,0.1961,0.2195,0.247,0.2668,0.2865,0.3102,0.3295,0.3724,0.4345,0.4384,0.4582,0.4979,0.5018,0.5093,0.5282,0.5583,0.5891,0.62,0.6625,0.6858,0.6889,0.7031,0.7095,-0.728,-0.7292,-0.7292,-0.7292,-0.725,-0.7146,-0.7002,-0.6768,0.0,0.0,-0.6141,-0.6272,-0.6374,0.0,-0.6933,0.0,-0.7055,-0.7308,-0.751,0.0,0.0,0.0,0.0,0.0,0.0,0.0,0.0,0.0,0.0,0.0,-1.2175,-1.1785,-1.1438,-1.1189,-1.1189,-1.0547,-0.9258,-0.9213,-0.8322,-0.6692,-0.6889,-0.6639,-0.6087,-0.6023,-0.6021,-0.6116,-0.5786,0.0,0.0,-0.5067,-0.4565,-0.4072,-0.3266,-0.2594,-0.2149,-0.2638,-0.2861,-0.3041,-0.3535,-0.3849,-0.3896,-0.291,-0.3224,-0.397,-0.3714,-0.3617,-0.3449,-0.2649,-0.2436,-0.2279,-0.156,-0.1387,-0.1387,-0.1387,-0.1387,-0.1381,-0.1316,-0.1307,-0.129,-0.1245,-0.1026,-0.0649,-0.004,0.0276,0.071,0.1533,0.1807,0.1964,0.2157,0.2353,0.247,0.2511,0.2511,0.2628,0.2943,0.2982,0.3333,0.4229,0.4268,0.4504,0.4979,0.504,0.5129,0.5283,0.5645,0.5931,0.6125,0.6599,0.686,0.689,0.7045,0.7095,-0.6521,-0.6676,-0.6676,-0.6676,-0.6857,-0.7055,-0.7238,0.0,-0.612,-0.6325,-0.6046,-0.5901,-0.6315,-0.6428,0.0,0.0,0.0,-0.6074,0.0,0.0,0.0,0.0,0.0,0.0,0.0,0.0,0.0,0.0,0.0,0.0,-1.2667,-1.2667,-1.2219,-1.1224,-1.1224,-1.0239,-0.817,-0.7925,-0.7332,-0.6437,-0.6189,-0.6189,-0.6381,-0.6271,-0.6263,-0.6287,-0.6005,0.0,0.0,-0.4694,-0.4072,-0.358,-0.2596,-0.2149,-0.2059,-0.17,-0.1835,-0.2149,-0.179,-0.1835,-0.2013,-0.1656,-0.2193,-0.2856,-0.2007,-0.1714,-0.1645,-0.1612,-0.1582,-0.1517,-0.1431,-0.1387,-0.1387,-0.1387,-0.1387,-0.1386,-0.1384,-0.1364,-0.1301,-0.1296,-0.0425,0.0333,0.0365,0.1173,0.1809,0.1853,0.1887,0.1964,0.2157,0.2235,0.2314,0.247,0.2511,0.2511,0.255,0.255,0.2942,0.3802,0.3841,0.4192,0.4976,0.5116,0.517,0.521,0.5539,0.5787,0.594,0.6392,0.669,0.682,0.7003,0.7095,-0.5921,-0.5985,-0.6015,-0.6135,-0.6132,-0.6142,-0.636,0.0,-0.5319,-0.5406,-0.5151,-0.502,-0.5373,-0.5499,-0.5518,0.0,0.0,0.0,-0.4884,0.0,0.0,0.0,0.0,0.0,0.0,0.0,0.0,0.0,0.0,0.0,-1.089,-1.0886,-1.069,-1.0243,-1.0243,-0.9501,-0.8021,-0.7875,-0.7378,-0.6387,-0.6289,-0.6289,-0.6384,-0.6391,-0.6333,-0.6311,-0.6165,0.0,0.0,-0.4393,-0.335,-0.2013,-0.1343,-0.0717,-0.0224,-0.0448,-0.0672,-0.0896,-0.1253,-0.1477,-0.1432,-0.0761,-0.0806,-0.1205,-0.1354,-0.1353,-0.1229,-0.0696,-0.0524,-0.0397,0.0134,0.0269,0.0269,0.0269,0.0269,0.0269,0.0269,0.0312,0.0309,0.0305,0.0819,0.1234,0.1206,0.1639,0.2025,0.2128,0.21,0.2158,0.2353,0.2392,0.2392,0.251,0.2511,0.2589,0.2826,0.2865,0.3215,0.4112,0.4496,0.481,0.4979,0.5915,0.6224,0.5824,0.6664,0.7112,0.7168,0.7609,0.7952,0.8233,0.8317,0.8536,-0.5328,-0.5304,-0.5345,-0.5503,-0.5535,-0.5538,0.0,-0.525,-0.4815,-0.4844,-0.4606,-0.4495,-0.4791,-0.4939,-0.4948,0.0,0.0,-0.4959,-0.4555,-0.4949,0.0,0.0,0.0,0.0,0.0,0.0,0.0,0.0,0.0,0.0,-0.916,-0.8814,-0.8814,-0.911,-0.911,-0.8616,-0.7528,-0.7528,-0.7129,-0.6387,-0.6387,-0.6387,-0.6387,-0.6387,-0.6195,-0.5873,-0.584,0.0,0.0,-0.35,-0.2401,-0.0911,-0.0317,0.0407,0.104,0.0584,0.0359,0.0224,-0.0358,-0.0582,-0.0448,0.0179,0.0403,0.0313,-0.0308,-0.0482,-0.035,0.0304,0.048,0.0616,0.1251,0.1391,0.1391,0.1391,0.1391,0.1391,0.1391,0.1391,0.1384,0.1408,0.1623,0.183,0.1832,0.2054,0.2275,0.2383,0.2388,0.2404,0.2524,0.2564,0.2564,0.2564,0.2882,0.3104,0.3105,0.3102,0.3528,0.4613,0.5076,0.5404,0.565,0.669,0.7075,0.6637,0.7482,0.7924,0.7924,0.8439,0.8846,0.9104,0.9318,0.9753,-0.4735,-0.472,-0.4634,-0.4709,-0.5124,-0.5503,-0.5517,-0.5125,-0.4848,-0.4977,-0.4669,-0.453,-0.493,-0.4998,-0.5054,-0.5253,0.0,0.0,-0.5324,0.0,0.0,0.0,0.0,0.0,0.0,0.0,0.0,0.0,0.0,0.0,-0.8021,-0.7033,-0.6933,-0.7971,-0.8021,-0.7528,-0.6434,-0.6437,-0.6387,-0.6387,-0.6387,-0.6387,-0.6387,-0.6387,-0.5834,0.0,0.0,0.0,0.0,-0.1869,-0.1141,-0.0617,0.0326,0.0879,0.1107,0.1311,0.1256,0.1121,0.13,0.139,0.139,0.1391,0.1391,0.1391,0.139,0.139,0.1384,0.1398,0.1368,0.139,0.1391,0.1391,0.1391,0.1391,0.1391,0.1391,0.1391,0.1391,0.1391,0.139,0.1839,0.2183,0.2093,0.2477,0.276,0.27,0.2691,0.2689,0.2691,0.2691,0.2691,0.2691,0.3771,0.4114,0.3192,0.3102,0.3722,0.519,0.5306,0.5869,0.7128,0.73,0.7469,0.768,0.7752,0.7786,0.7786,0.8536,0.889,0.8934,0.9575,1.0404,-0.3898,-0.39,-0.4,-0.4066,-0.4204,-0.4336,-0.4396,-0.4114,-0.3844,-0.3907,-0.3729,-0.3658,-0.3867,-0.3976,-0.4116,-0.4312,0.0,0.0,0.0,0.0,0.0,0.0,0.0,0.0,0.0,0.0,0.0,0.0,0.0,0.0,-0.6933,-0.6587,-0.6534,-0.6883,-0.6883,-0.6734,-0.6387,-0.6387,-0.6387,-0.6387,-0.6387,-0.6387,-0.6387,-0.5634,-0.5135,0.0,0.0,0.0,0.0,-0.1655,-0.0915,0.0095,0.0568,0.0803,0.0848,0.1108,0.1054,0.0823,0.0902,0.0942,0.0942,0.0942,0.1031,0.1211,0.1211,0.13,0.1388,0.1379,0.1413,0.1409,0.1385,0.142,0.141,0.1385,0.1391,0.1391,0.1391,0.1391,0.1391,0.1391,0.1705,0.197,0.2135,0.237,0.2602,0.2758,0.2719,0.2943,0.357,0.3652,0.3903,0.4527,0.4941,0.4994,0.4515,0.5203,0.6019,0.6748,0.7189,0.7417,0.7393,0.8351,0.8733,0.8369,0.8974,0.9288,0.9288,0.9806,1.0371,1.1015,1.1574,1.1966,-0.3552,-0.3544,-0.3612,-0.3721,-0.3729,-0.3737,-0.3714,-0.3507,-0.3333,-0.3333,-0.3247,-0.3231,-0.3379,-0.3501,-0.3632,-0.3778,-0.4133,0.0,0.0,0.0,0.0,0.0,0.0,0.0,0.0,0.0,0.0,0.0,0.0,0.0,-0.6434,-0.6387,-0.6387,-0.6387,-0.6387,-0.6387,-0.6387,-0.6387,-0.6387,-0.6387,-0.6387,-0.6187,-0.5787,-0.5085,-0.4381,0.0,0.0,0.0,0.0,-0.0991,-0.0443,0.0438,0.058,0.0675,0.0769,0.0896,0.0838,0.0692,0.0684,0.0767,0.0852,0.0852,0.1031,0.1211,0.1211,0.13,0.1391,0.1391,0.1422,0.1412,0.1385,0.1412,0.1397,0.1383,0.1382,0.1421,0.1388,0.1391,0.1391,0.1391,0.1615,0.1885,0.2154,0.2618,0.3077,0.3341,0.3649,0.4044,0.4642,0.4685,0.4939,0.5494,0.6044,0.6296,0.6123,0.6495,0.7057,0.7806,0.8176,0.837,0.8276,0.9154,0.947,0.9201,0.9712,0.9994,0.9994,1.0593,1.1278,1.2015,1.2485,1.2705,0.0,-0.3504,-0.3428,-0.3602,-0.3605,-0.3533,-0.3428,-0.3294,0.0,-0.3191,-0.3193,-0.3234,-0.34,-0.3512,-0.3627,-0.3668,0.0,0.0,0.0,0.0,0.0,0.0,0.0,0.0,0.0,0.0,0.0,0.0,0.0,0.0,-0.6387,-0.6387,-0.6387,-0.6387,-0.6387,-0.6387,-0.6387,-0.6387,-0.6387,-0.6387,-0.6337,-0.5787,-0.4784,-0.4634,-0.3475,0.0,0.0,0.0,0.0,0.0,0.0152,0.0353,0.0396,0.0541,0.0736,0.0674,0.066,0.0649,0.0648,0.0821,0.1076,0.1076,0.1211,0.1391,0.1391,0.1391,0.1391,0.1391,0.1389,0.1387,0.139,0.1412,0.1397,0.1383,0.1414,0.1401,0.1385,0.1391,0.1391,0.1436,0.1615,0.193,0.2243,0.3181,0.4028,0.4342,0.5142,0.5719,0.5808,0.5808,0.5852,0.5897,0.7085,0.7878,0.7921,0.7211,0.7251,0.842,0.8502,0.8833,0.9616,0.9625,0.9757,0.9994,0.9994,0.9994,1.0038,1.0895,1.1542,1.2015,1.2485,1.2705,-0.3295,0.0,-0.336,-0.3214,-0.3235,-0.3276,0.0,-0.3138,-0.3064,-0.3175,-0.3193,-0.3311,-0.3643,-0.3652,-0.3761,-0.4219,0.0,0.0,0.0,0.0,0.0,0.0,0.0,0.0,0.0,0.0,0.0,0.0,0.0,-0.6387,-0.6387,-0.6387,-0.6387,-0.6387,-0.6387,-0.6387,-0.6387,-0.6387,-0.6387,-0.6387,-0.5584,-0.5035,-0.4734,-0.3123,-0.2066,0.0,0.0,0.0,0.0,0.0,0.0051,0.0101,0.0302,0.0301,0.02,0.0393,0.0337,0.0142,0.0186,0.0319,0.0628,0.0987,0.1121,0.1211,0.1345,0.1391,0.1391,0.1391,0.1418,0.1406,0.1385,0.1412,0.1397,0.1383,0.1385,0.1382,0.1389,0.1391,0.148,0.166,0.1749,0.2153,0.3314,0.3715,0.4251,0.523,0.5542,0.5941,0.6697,0.6786,0.7139,0.8069,0.8464,0.8771,0.9161,0.9161,0.9323,0.9585,0.9633,0.9699,0.9875,0.9923,0.9947,0.9994,0.9994,1.0164,1.0463,1.1025,1.1542,1.2015,1.2485,1.2705,-0.3319,-0.3392,-0.3455,-0.3301,-0.3272,-0.3316,-0.3373,-0.3185,-0.3035,-0.3169,0.0,-0.3284,-0.3224,-0.3561,0.0,0.0,-0.4258,0.0,0.0,0.0,0.0,0.0,0.0,0.0,0.0,0.0,0.0,0.0,0.0,-0.6387,-0.6387,-0.6387,-0.6387,-0.6387,-0.6387,-0.6387,-0.6387,-0.6387,-0.6137,-0.5634,-0.5085,-0.428,-0.3274,-0.2116,-0.1311,0.0,0.0,0.0,0.0,0.0,0.0,0.0,0.0152,0.0152,0.0,0.015,0.0147,0.0,0.0,0.023,0.0628,0.1076,0.1256,0.1256,0.1345,0.1391,0.1391,0.1391,0.1379,0.1414,0.1386,0.1412,0.1397,0.1383,0.138,0.1418,0.1387,0.148,0.1749,0.233,0.2553,0.3044,0.438,0.4959,0.5492,0.6251,0.6741,0.7231,0.772,0.7848,0.8157,0.8823,0.9082,0.9345,0.9559,0.9864,0.9994,0.9994,0.9994,0.9994,0.9994,0.9994,0.9994,0.9994,1.0164,1.0376,1.0593,1.1278,1.1757,1.2015,1.279,1.3173,-0.3458,-0.3449,-0.3508,-0.352,-0.3466,-0.3422,-0.3509,0.0,0.0,0.0,0.0,0.0,-0.2634,-0.3251,0.0,0.0,0.0,0.0,0.0,0.0,0.0,0.0,0.0,0.0,0.0,0.0,0.0,0.0,0.0,-0.6387,-0.6387,-0.6387,-0.6387,-0.6387,-0.6237,-0.6137,-0.6137,-0.6137,-0.5634,-0.4533,-0.4381,-0.3374,-0.1613,-0.1412,-0.0858,0.0,0.0,0.0,0.0,0.0,0.0,0.0,0.0,0.0,0.0,0.0,0.0,0.0,0.0096,0.0371,0.0762,0.1256,0.1391,0.1391,0.1391,0.1391,0.1391,0.1391,0.1391,0.1391,0.1391,0.1416,0.1403,0.1384,0.1416,0.1402,0.1424,0.1607,0.2052,0.2895,0.325,0.3833,0.5223,0.6115,0.6782,0.7275,0.8076,0.8612,0.8612,0.874,0.8867,0.8955,0.9301,0.9602,0.9646,0.9864,0.9994,0.9994,0.9994,0.9994,0.9994,1.0081,1.0081,1.0081,1.0593,1.0847,1.0847,1.1837,1.2308,1.2308,1.3385,1.3857,-0.3561,-0.328,-0.3046,-0.3219,-0.3338,-0.3379,-0.3294,0.0,0.0,0.0,0.0,0.0,0.0,-0.2523,-0.2673,0.0,0.0,0.0,0.0,0.0,0.0,0.0,0.0,0.0,0.0,0.0,0.0,0.0,0.0,-0.6387,-0.6387,-0.6387,-0.6387,-0.6387,-0.5536,-0.5035,-0.5035,-0.5035,-0.4531,-0.3425,-0.2519,-0.1915,-0.1563,-0.0656,-0.0151,0.0,0.0,0.0,0.0,0.0,0.0,0.0,0.0,0.0,0.0,0.0,0.0,0.0049,0.0471,0.0641,0.0762,0.1256,0.1391,0.1391,0.1391,0.1391,0.1391,0.1391,0.1391,0.1391,0.1391,0.1387,0.1385,0.1389,0.1387,0.1467,0.162,0.1703,0.1877,0.2401,0.2576,0.3246,0.5302,0.5764,0.6428,0.812,0.852,0.8612,0.8612,0.8612,0.8784,0.9218,0.9305,0.9519,0.9907,0.9994,0.9994,0.9994,0.9994,0.9994,0.9994,1.0337,1.0506,1.0506,1.1537,1.2052,1.2052,1.3154,1.3704,1.3704,1.4265,1.4566,-0.3485,-0.3159,-0.2805,-0.2909,-0.305,-0.3289,-0.3712,-0.3518,0.0,0.0,0.0,0.0,0.0,0.0,0.0,0.0,0.0,0.0,0.0,0.0,0.0,0.0,0.0,0.0,0.0,0.0,0.0,0.0,0.0,0.0,-0.6387,-0.5837,-0.5536,-0.5536,-0.4479,-0.3676,-0.3073,-0.3073,-0.2821,-0.2318,-0.1815,-0.1311,-0.0707,-0.0202,0.0,0.0,0.0,0.0,0.0,0.0,0.0,0.0,0.0,0.0,0.0,0.0,0.01,0.0244,0.057,0.0789,0.0956,0.1305,0.1749,0.2196,0.2196,0.2196,0.233,0.2819,0.2194,0.1391,0.1391,0.1391,0.1391,0.1391,0.1525,0.1655,0.1728,0.1928,0.2432,0.364,0.3947,0.465,0.6623,0.6934,0.7236,0.8136,0.8268,0.8268,0.8268,0.8482,0.8759,0.9099,0.9326,0.9607,0.9951,0.9994,0.9994,0.9994,0.9994,0.9994,0.9994,1.0164,1.0376,1.0593,1.1365,1.1886,1.2143,1.3294,1.3851,1.3851,1.4817,1.5235,-0.3374,-0.2877,-0.237,-0.2702,0.0,-0.287,-0.356,-0.3677,0.0,0.0,0.0,0.0,0.0,0.0,0.0,0.0,0.0,0.0,0.0,0.0,0.0,0.0,0.0,0.0,0.0,0.0,0.0,0.0,0.0,0.0,-0.5682,-0.4883,-0.4431,-0.4431,-0.3374,-0.2418,-0.1613,-0.1361,-0.121,-0.121,-0.121,-0.0807,0.0,0.0,0.0,0.0,0.0,0.0,0.0,0.0,0.0,0.0,0.0,0.0,0.0,0.0,0.015,0.0343,0.0627,0.0853,0.1115,0.1646,0.2319,0.2995,0.3207,0.3292,0.3422,0.4117,0.322,0.206,0.206,0.206,0.206,0.206,0.224,0.2416,0.2493,0.2767,0.3426,0.493,0.5331,0.5952,0.7499,0.7803,0.7887,0.81,0.8142,0.8142,0.8142,0.8391,0.8734,0.9029,0.9338,0.9628,0.9885,0.9966,1.0058,1.0221,1.0096,0.9994,0.9994,1.0294,1.0593,1.0939,1.1789,1.2431,1.282,1.382,1.433,1.444,1.5281,1.5751,-0.3289,-0.2347,-0.1337,-0.266,-0.2379,0.0,-0.1942,-0.2132,0.0,-0.235,0.0,0.0,0.0,0.0,0.0,0.0,0.0,0.0,0.0,0.0,0.0,0.0,0.0,0.0,0.0,0.0,0.0,0.0,0.0,0.0,-0.3475,-0.3374,-0.3324,-0.3324,-0.2267,-0.1664,-0.1613,-0.0606,-0.0101,-0.0101,-0.0101,-0.0051,0.0,0.0,0.0,0.0,0.0,0.0,0.0,0.0,0.0,0.0,0.0,0.0,0.0,0.0,0.0,0.0098,0.0637,0.0822,0.1046,0.2511,0.3029,0.3255,0.412,0.437,0.4352,0.4312,0.42,0.4109,0.4109,0.4109,0.4109,0.4109,0.4111,0.4223,0.4578,0.4683,0.4894,0.5454,0.5575,0.5907,0.6994,0.7153,0.7464,0.8436,0.8571,0.8571,0.8571,0.8584,0.8763,0.924,0.9297,0.9404,0.9602,0.9842,1.0249,1.0873,1.0348,0.9994,0.9994,1.1198,1.1886,1.1886,1.3999,1.5137,1.5179,1.5744,1.6171,1.6468,1.5937,1.5889,-0.2132,-0.1517,-0.0878,-0.1271,-0.0946,0.0,0.0,-0.2227,-0.2227,-0.1774,-0.2271,0.0,0.0,0.0,0.0,0.0,0.0,0.0,0.0,0.0,0.0,0.0,0.0,0.0,0.0,0.0,0.0,0.0,0.0,0.0,-0.3224,-0.2569,-0.2217,-0.2217,-0.116,-0.0606,-0.0606,-0.0202,0.0,0.0,0.0,0.0,0.0,0.0,0.0,0.0,0.0,0.0,0.0,0.0,0.0,0.0,0.0,0.0,0.0,0.0,0.0101,0.0299,0.069,0.1366,0.2175,0.2864,0.3989,0.5072,0.5457,0.5488,0.5471,0.6068,0.5729,0.5048,0.4467,0.4289,0.4289,0.4289,0.4423,0.4594,0.4735,0.4981,0.5365,0.6012,0.6244,0.6622,0.7528,0.7666,0.7793,0.8181,0.8223,0.8223,0.8223,0.8449,0.8734,0.9073,0.9486,0.9698,0.962,1.0134,1.0538,1.0669,1.0554,1.0768,1.1359,1.1781,1.2188,1.2541,1.365,1.431,1.4481,1.5212,1.5555,1.547,1.5607,1.5784,-0.1407,-0.0948,-0.0447,-0.053,0.0,0.0,-0.1317,-0.1825,-0.1935,-0.1439,-0.1823,0.0,0.0,0.0,0.0,0.0,0.0,0.0,0.0,0.0,0.0,0.0,0.0,0.0,0.0,0.0,0.0,0.0,0.0,0.0,0.0,-0.1513,-0.111,-0.111,-0.0404,0.0,0.0,0.0,0.0,0.0,0.0,0.0,0.0,0.0,0.0,0.0,0.0,0.0,0.0,0.0,0.0,0.0,0.0,0.0,0.0051,0.0404,0.0606,0.0857,0.159,0.2422,0.33,0.3936,0.5126,0.6325,0.662,0.6591,0.6641,0.7211,0.684,0.6081,0.5366,0.5179,0.5179,0.5179,0.5314,0.5494,0.5586,0.587,0.6288,0.69,0.7204,0.7551,0.8102,0.8187,0.8187,0.8187,0.8187,0.8187,0.8187,0.8466,0.8841,0.9141,0.9693,0.9909,0.962,1.0349,1.0823,1.0939,1.1328,1.1676,1.201,1.2228,1.2536,1.2954,1.3595,1.403,1.4285,1.4828,1.5062,1.5011,1.5262,1.5411,-0.1284,-0.0698,0.0027,0.0,0.0,0.0,0.0038,-0.0616,-0.1214,-0.136,0.0,0.0,0.0,0.0,0.0,0.0,0.0,0.0,0.0,0.0,0.0,0.0,0.0,0.0,0.0,0.0,0.0,0.0,0.0,0.0,0.0,0.0,0.0,0.0,0.0,0.0,0.0,0.0,0.0,0.0,0.0,0.0,0.0,0.0,0.0,0.0,0.0,0.0,0.0,0.0,0.0,0.0,0.0,0.0,0.0151,0.121,0.1613,0.1865,0.3422,0.4024,0.4275,0.5882,0.6387,0.6611,0.7514,0.7814,0.775,0.7458,0.7419,0.7336,0.7139,0.7098,0.7095,0.7095,0.7095,0.7187,0.7459,0.7724,0.794,0.8157,0.8428,0.8612,0.8612,0.8612,0.8612,0.8612,0.8612,0.8612,0.8612,0.8784,0.9087,0.9559,0.982,0.9909,0.962,1.0349,1.1112,1.1868,1.2652,1.2692,1.1742,1.2612,1.3127,1.3134,1.424,1.4917,1.5111,1.4971,1.5152,1.5688,1.4922,1.4795,-0.0151,-0.0079,0.0,0.0212,0.0,0.0,0.0,0.004,0.0,0.0,0.0,0.0,0.0,0.0,0.0,0.0,0.0,0.0,0.0,0.0,0.0,0.0,0.0,0.0,0.0,0.0,0.0,0.0,0.0,0.0,0.0,0.0,0.0,0.0,0.0,0.0,0.0,0.0,0.0,0.0,0.0,0.0,0.0,0.0,0.0,0.0,0.0,0.0,0.0,0.0,0.0,0.0,0.0,0.0454,0.116,0.1462,0.2216,0.3119,0.3773,0.4626,0.5527,0.6184,0.6886,0.758,0.7836,0.7896,0.7794,0.7706,0.7533,0.7405,0.7316,0.7221,0.7095,0.7095,0.7095,0.7187,0.7459,0.7724,0.794,0.8157,0.8428,0.8612,0.8612,0.8612,0.8612,0.8612,0.8612,0.8652,0.8784,0.9043,0.9301,0.9559,0.982,0.9909,0.962,1.0349,1.1112,1.1868,1.2652,1.3252,1.3666,1.402,1.4277,1.4339,1.5026,1.5191,1.4808,1.5096,1.5076,1.4759,1.4664,1.466,0.021,0.0166,0.0,0.0357,0.0247,0.0115,0.0245,0.0,0.0,0.0,0.0,0.0,0.0,0.0,0.0,0.0,0.0,0.0,0.0,0.0,0.0,0.0,0.0,0.0,0.0,0.0,0.0,0.0,0.0,0.0,0.0,0.0,0.0,0.0,0.0,0.0,0.0,0.0,0.0,0.0,0.0,0.0,0.0,0.0,0.0,0.0,0.0,0.0,0.0,0.0,0.0252,0.0656,0.0656,0.1311,0.2267,0.272,0.3472,0.4323,0.5027,0.5882,0.6686,0.6936,0.7487,0.7988,0.7988,0.7924,0.7889,0.7828,0.7641,0.7448,0.7433,0.7255,0.7095,0.7095,0.7095,0.7187,0.7459,0.7724,0.794,0.8157,0.8428,0.8612,0.8612,0.8612,0.8612,0.8612,0.8656,0.8784,0.9043,0.9257,0.9519,0.9733,1.0207,1.0456,1.0284,1.1271,1.2099,1.2544,1.3347,1.4078,1.4655,1.4609,1.4678,1.475,1.51,1.5121,1.4847,1.5104,1.5052,1.471,1.464,1.4605,0.0028,0.0088,0.0,0.0035,0.0114,0.0,0.0352,0.018,0.0,0.0045,0.0,0.0,0.0,0.0,0.0,0.0,0.0,0.0,0.0,0.0,0.0,0.0,0.0,0.0,0.0,0.0,0.0,0.0,0.0,0.0,0.0,0.0,0.0,0.0,0.0,0.0,0.0,0.0,0.0,0.0,0.0,0.0,0.0,0.0,0.0,0.0,0.0,0.0051,0.0151,0.0151,0.0757,0.1765,0.1765,0.2418,0.3475,0.4431,0.5033,0.5579,0.6783,0.7391,0.7696,0.7942,0.7988,0.7988,0.7988,0.7988,0.7961,0.7872,0.7719,0.7567,0.7428,0.7265,0.7095,0.7139,0.7143,0.7231,0.7459,0.7724,0.7984,0.8201,0.8428,0.8612,0.8612,0.8612,0.8612,0.8612,0.8784,0.8999,0.9218,0.9476,0.9733,1.0081,1.0809,1.1322,1.1408,1.2714,1.3566,1.3654,1.4402,1.4863,1.4944,1.4714,1.4592,1.4592,1.4773,1.4985,1.5157,1.501,1.5018,1.5173,1.4771,1.4605,0.0133,0.0113,0.0,0.0,0.0119,0.0043,0.0089,0.0045,0.0045,0.0269,0.0,0.0,0.0,0.0,0.0,0.0,0.0,0.0,0.0,0.0,0.0,0.0,0.0,0.0,0.0,0.0,0.0,0.0,0.0,0.0,0.0,0.0,0.0,0.0,0.0,0.0,0.0,0.0,0.0,0.0,0.0,0.0,0.0,0.0,0.0,0.0,0.0,0.0454,0.1261,0.1261,0.1865,0.2871,0.2871,0.3525,0.4481,0.4734,0.5634,0.6836,0.7086,0.749,0.7942,0.7988,0.7988,0.7988,0.7988,0.7988,0.7982,0.7948,0.7801,0.7594,0.756,0.7346,0.7143,0.737,0.7415,0.7503,0.7768,0.7984,0.8204,0.8472,0.8564,0.8612,0.8612,0.8612,0.8612,0.8612,0.8784,0.8911,0.8999,0.9345,0.9903,1.0684,1.1068,1.1617,1.2339,1.2711,1.3187,1.3961,1.417,1.4601,1.5238,1.5221,1.5293,1.545,1.5483,1.5486,1.5469,1.5374,1.5178,1.4942,1.4699,1.4605,0.008,0.0,0.0,0.0073,0.0,0.0,0.0,0.0,0.0045,0.0,0.0,0.0,0.0,0.0,0.0,0.0,0.0,0.0,0.0,0.0,0.0,0.0,0.0,0.0,0.0,0.0,0.0,0.0,0.0,0.0,0.0,0.0,0.0,0.0,0.0,0.0,0.0,0.0442,0.044,0.0,0.0479,0.0719,0.0774,0.0789,0.05,0.0051,0.111,0.1563,0.1664,0.2167,0.3022,0.3977,0.3977,0.4632,0.5584,0.5584,0.6237,0.7188,0.7188,0.754,0.7988,0.7988,0.7988,0.7988,0.7988,0.7988,0.7988,0.7988,0.7828,0.76,0.76,0.7464,0.7323,0.7462,0.7507,0.7591,0.7984,0.8113,0.8288,0.8564,0.8612,0.8612,0.8612,0.8955,0.9257,0.9379,0.9985,1.0419,1.0539,1.0837,1.1273,1.1746,1.2303,1.2857,1.3317,1.3747,1.4181,1.4699,1.4699,1.4915,1.5389,1.5389,1.5465,1.5541,1.579,1.5872,1.582,1.5802,1.5606,1.529,1.5025,1.4771,0.0,0.0,0.0,0.0,0.0,0.0,0.0,0.0,0.0,0.0,0.0,0.0,0.0,0.0,0.0,0.0,0.0,0.0,0.0,0.0,0.0,0.0,0.0,0.0,0.0,0.0,0.0,0.0,0.0,0.0,0.0,0.0142,0.0237,0.0238,0.0429,0.0524,0.0524,0.1285,0.1283,0.0521,0.1303,0.1726,0.1857,0.2024,0.1558,0.0656,0.2418,0.2821,0.2217,0.3123,0.413,0.5085,0.5085,0.5636,0.6387,0.6437,0.6786,0.7188,0.7238,0.759,0.7988,0.7988,0.7988,0.7988,0.7988,0.7988,0.7988,0.7988,0.7845,0.7631,0.7607,0.7576,0.7539,0.7554,0.7591,0.7724,0.8113,0.8245,0.8336,0.8564,0.874,0.8828,0.8828,0.9559,1.0246,1.0486,1.1359,1.2046,1.2285,1.2541,1.276,1.2936,1.362,1.4139,1.4307,1.4999,1.5389,1.5389,1.5389,1.5389,1.5389,1.5389,1.5389,1.5389,1.5839,1.6046,1.6087,1.6139,1.6016,1.5722,1.5372,1.5096,0.0,0.0,0.0,0.0,0.0,0.0,0.0,0.0,0.0,0.0,0.0,0.0,0.0,0.0,0.0,0.0,0.0,0.0,0.0,0.0,0.0,0.0,0.0,0.0,0.0,0.0,0.0,0.0,0.0,0.0,0.0,0.0788,0.1215,0.1237,0.2045,0.2519,0.2519,0.2614,0.2639,0.2501,0.2631,0.275,0.2854,0.3843,0.3719,0.2771,0.3073,0.3626,0.4381,0.4533,0.5233,0.6187,0.6187,0.6287,0.6437,0.6642,0.6942,0.7238,0.7444,0.7743,0.7988,0.7988,0.7988,0.7988,0.7988,0.7988,0.7988,0.7988,0.7916,0.7753,0.7631,0.7653,0.7712,0.7797,0.7984,0.8113,0.8197,0.8384,0.8564,0.8612,0.9213,0.9728,0.9728,1.0506,1.1192,1.1477,1.1789,1.2046,1.2285,1.2541,1.3021,1.3837,1.4013,1.4398,1.5173,1.534,1.5389,1.5389,1.5389,1.5389,1.5389,1.5389,1.5389,1.5389,1.5624,1.5873,1.6087,1.5994,1.5927,1.5865,1.5415,1.552,0.0,0.0,0.0,0.0,0.0,0.0,0.0,0.0,0.0,0.0,0.0,0.0,0.0,0.0,0.0,0.0,0.0,0.0,0.0,0.0,0.0,0.0,0.0,0.0,0.0,0.0,0.0,0.0,0.1614,0.162,0.1635,0.1998,0.2234,0.2254,0.2667,0.2898,0.2898,0.3403,0.3662,0.3674,0.313,0.3275,0.3992,0.446,0.4161,0.3274,0.4477,0.4933,0.4834,0.5436,0.5984,0.6387,0.6387,0.6387,0.6437,0.6692,0.6992,0.7238,0.7494,0.7793,0.7988,0.7988,0.7988,0.7988,0.7988,0.7988,0.7988,0.7988,0.788,0.7797,0.7931,0.7923,0.7989,0.8188,0.8323,0.8428,0.8428,0.852,0.874,0.9213,1.0077,1.0679,1.0679,1.1451,1.218,1.2376,1.2942,1.3457,1.3837,1.3964,1.4265,1.4783,1.4831,1.4999,1.5389,1.5389,1.5389,1.5389,1.5389,1.5389,1.5389,1.5389,1.5389,1.5389,1.5756,1.5997,1.6087,1.6261,1.6251,1.6047,1.5659,1.5544,0.0,0.0,0.0,0.0,0.0,0.0,0.0,0.0,0.0,0.0,0.0,0.0,0.0,0.0,0.0,0.0,0.0,0.0,0.0,0.0,0.0,0.0,0.0,0.0,0.0,0.0,0.0,0.0,0.2911,0.2911,0.2911,0.3135,0.3269,0.3269,0.3494,0.3628,0.3628,0.43,0.4656,0.4659,0.3941,0.4104,0.5,0.5025,0.4649,0.41,0.5722,0.5937,0.5286,0.6084,0.6387,0.6387,0.6387,0.6437,0.6539,0.6792,0.7092,0.7341,0.7593,0.7842,0.7988,0.7988,0.7988,0.7988,0.7988,0.7988,0.7988,0.7988,0.7907,0.791,0.807,0.8146,0.82,0.8341,0.8516,0.8612,0.8612,0.8612,0.8872,0.9728,1.0679,1.137,1.1628,1.2448,1.313,1.3408,1.4048,1.4657,1.5131,1.5173,1.5215,1.5389,1.5389,1.5389,1.5389,1.5389,1.5389,1.5389,1.5389,1.5389,1.5389,1.5389,1.5389,1.5389,1.5797,1.6004,1.5997,1.6402,1.6514,1.6245,1.5975,1.5789,0.0,0.0,0.0,0.0,0.0,0.0,0.0,0.0,0.0,0.0,0.0,0.0,0.0,0.0,0.0,0.0,0.0,0.0,0.0,0.0,0.0,0.0,0.0,0.0,0.0,0.0,0.0,0.0,0.2911,0.2911,0.2911,0.3762,0.421,0.421,0.5104,0.5555,0.5555,0.5599,0.5644,0.5644,0.5599,0.566,0.5823,0.5985,0.6059,0.6135,0.6338,0.6387,0.6337,0.6387,0.6387,0.6387,0.6387,0.6539,0.6792,0.7089,0.7341,0.7596,0.7892,0.7988,0.7988,0.7988,0.7988,0.7988,0.7988,0.7988,0.7988,0.7988,0.7985,0.7944,0.7848,0.8076,0.8242,0.8139,0.8382,0.8612,0.8612,0.8612,0.8872,0.9728,1.0679,1.1585,1.2485,1.3398,1.4166,1.4566,1.465,1.4866,1.5298,1.5389,1.5389,1.5389,1.5389,1.5389,1.5389,1.5389,1.5389,1.5389,1.5389,1.5389,1.5389,1.5389,1.5389,1.5389,1.5616,1.5733,1.5733,1.6188,1.6427,1.6404,1.6261,1.6553,0.0,0.0,0.0,0.0,0.0295,0.0605,0.0,0.0,0.0,0.0,0.0,0.0,0.0,0.0,0.0,0.0,0.0,0.0,0.0,0.0,0.0,0.0,0.0,0.0,0.0,0.0,0.0,0.0,0.0,0.4701,0.4701,0.5015,0.5196,0.5196,0.551,0.5688,0.5688,0.5688,0.5688,0.5688,0.5688,0.5748,0.5904,0.5947,0.6078,0.632,0.6312,0.6369,0.6387,0.6387,0.6387,0.6437,0.6589,0.6692,0.6845,0.7291,0.7494,0.7646,0.7892,0.7988,0.7988,0.7988,0.7988,0.7988,0.7988,0.7988,0.7988,0.7988,0.7988,0.8074,0.8361,0.8394,0.832,0.8417,0.8524,0.8612,0.8612,0.9043,0.9515,0.9859,1.1149,1.2314,1.2619,1.3483,1.4208,1.4482,1.4524,1.4699,1.5131,1.5215,1.5264,1.5389,1.5389,1.5389,1.5389,1.5389,1.5389,1.5389,1.5389,1.5389,1.5389,1.5389,1.5389,1.5389,1.5616,1.5692,1.5692,1.6188,1.6394,1.6427,1.6828,1.7159,0.0,0.0,0.0,0.0,0.0,0.0676,0.097,0.0,0.0,0.0,0.0,0.0,0.0,0.0,0.0,0.0,0.0,0.0,0.0,0.0,0.0,0.0,0.0,0.0,0.0,0.0,0.0,0.0,0.0,0.0,0.5688,0.5688,0.5688,0.5688,0.5688,0.5688,0.5688,0.5688,0.5688,0.5688,0.5688,0.5729,0.5847,0.5885,0.6013,0.6257,0.6298,0.6333,0.6387,0.6387,0.6437,0.6539,0.6742,0.6895,0.7095,0.7447,0.7646,0.7743,0.7942,0.7988,0.7988,0.7988,0.7988,0.7988,0.7988,0.7988,0.7988,0.7988,0.8054,0.8164,0.8501,0.8457,0.8375,0.8545,0.8612,0.87,0.8955,0.9471,0.9985,1.0289,1.1628,1.279,1.3137,1.373,1.4286,1.4482,1.4566,1.4783,1.5131,1.5215,1.5257,1.5389,1.5389,1.5389,1.5389,1.5389,1.5389,1.5389,1.5389,1.5389,1.5389,1.5389,1.5389,1.5389,1.5541,1.5616,1.5616,1.6072,1.6476,1.6837,1.7351,1.7757,0.0,0.0,0.0,0.0,0.0,0.0,0.0,0.0,0.0,0.0,0.0,0.0,0.0,0.0,0.0,0.0,0.0,0.0,0.0,0.0,0.0,0.0,0.0,0.0,0.0,0.0,0.0,0.0,0.5688,0.5688,0.5688,0.5688,0.5688,0.5688,0.5688,0.5688,0.5688,0.5688,0.5688,0.5688,0.5688,0.5688,0.5694,0.5847,0.5966,0.6092,0.6259,0.6328,0.6387,0.6387,0.6539,0.6795,0.6795,0.7144,0.7596,0.7596,0.7793,0.7988,0.7988,0.7988,0.7988,0.7988,0.7988,0.7988,0.7988,0.7988,0.7988,0.7988,0.808,0.8208,0.8197,0.8294,0.8464,0.8565,0.8612,0.8828,0.9733,0.9903,1.0202,1.1106,1.2057,1.3009,1.3913,1.4237,1.4482,1.465,1.4915,1.5173,1.5389,1.5389,1.5389,1.5389,1.5389,1.5389,1.5389,1.5389,1.5389,1.5389,1.5389,1.5389,1.5389,1.5389,1.5389,1.5389,1.5389,1.5389,1.5389,1.588,1.6656,1.7651,1.774,1.827,0.0,0.0,0.0,0.0,0.0,0.0,0.0,0.0,0.0,0.0,0.0,0.0,0.0,0.0,0.0,0.0,0.0,0.0,0.0,0.0,0.0,0.0,0.0,0.0,0.0,0.0,0.0,0.0,0.5688,0.5688,0.5688,0.5688,0.5688,0.5688,0.5688,0.5688,0.5688,0.5688,0.5688,0.5688,0.5688,0.5688,0.5691,0.5721,0.5893,0.6086,0.6121,0.6249,0.6387,0.6387,0.6539,0.6795,0.6992,0.7294,0.7646,0.7793,0.7942,0.7988,0.7988,0.7988,0.7988,0.7988,0.7988,0.7988,0.7988,0.7988,0.7988,0.7988,0.808,0.8206,0.8299,0.8532,0.8689,0.8609,0.8612,0.8828,0.9733,1.0419,1.0982,1.1235,1.2057,1.279,1.3045,1.3808,1.4482,1.465,1.4915,1.5173,1.5389,1.5389,1.5389,1.5389,1.5389,1.5389,1.5389,1.5389,1.5389,1.5389,1.5389,1.5389,1.5389,1.5389,1.5389,1.5389,1.5389,1.5389,1.5389,1.588,1.6252,1.6574,1.8118,1.9456,0.0,0.0,0.0,0.0,0.0,0.0,0.0,0.1741,0.0,0.0,0.0,0.0,0.0,0.0,0.0,0.0,0.0,0.0,0.0,0.0,0.0,0.0,0.0,0.0,0.0,0.5543,0.5634,0.5686,0.5688,0.5688,0.5688,0.5688,0.5688,0.5688,0.5688,0.5688,0.5688,0.5688,0.5688,0.5688,0.5688,0.5688,0.5688,0.5688,0.586,0.6086,0.6225,0.6364,0.6589,0.6686,0.6839,0.6992,0.7241,0.754,0.7793,0.7939,0.7988,0.7988,0.7988,0.7988,0.7988,0.7988,0.7988,0.7988,0.7988,0.7988,0.7975,0.7914,0.8038,0.8189,0.843,0.858,0.8775,0.9068,0.9126,0.9515,1.0809,1.1494,1.1886,1.1886,1.2619,1.3264,1.3264,1.3977,1.4566,1.4692,1.4999,1.5257,1.5389,1.5389,1.5389,1.5389,1.5389,1.5389,1.5389,1.5389,1.5389,1.5389,1.5389,1.5389,1.5389,1.5389,1.5389,1.5389,1.5389,1.5423,1.5541,1.579,1.6394,1.7318,1.9027,2.0264,0.0,0.0,0.0,0.0,0.0,0.0,0.1368,0.1692,0.2105,0.0,0.0,0.0,0.0,0.0,0.0,0.0,0.0,0.0,0.0,0.0,0.0,0.0,0.0,0.0,0.538,0.5458,0.5537,0.5659,0.5683,0.5688,0.5688,0.5688,0.5688,0.5688,0.5688,0.5688,0.5688,0.5688,0.5688,0.5688,0.5688,0.5733,0.5733,0.5733,0.5855,0.6161,0.6405,0.6645,0.6825,0.7135,0.7238,0.7288,0.7494,0.7743,0.7988,0.7988,0.7988,0.7988,0.7988,0.7988,0.7988,0.7988,0.7988,0.7988,0.7988,0.7978,0.7977,0.7859,0.7998,0.82,0.8524,0.8656,0.8959,0.9733,0.999,1.0549,1.2314,1.2705,1.2747,1.2833,1.3525,1.4088,1.4088,1.4454,1.4692,1.4692,1.5082,1.5389,1.5389,1.5389,1.5389,1.5389,1.5389,1.5389,1.5389,1.5389,1.5389,1.5389,1.5389,1.5389,1.5389,1.5389,1.5389,1.5389,1.5506,1.5624,1.5858,1.5858,1.6935,1.8939,2.0021,2.0725,0.0,0.0,0.0,0.0,0.0,0.0,0.0288,0.0369,0.0624,0.0,0.0,0.0,0.0,0.0,0.0,0.0,0.0,0.0,0.0,0.0,0.0,0.0,0.0,0.0,0.5219,0.5333,0.5455,0.5534,0.5634,0.5688,0.5688,0.5688,0.5688,0.5688,0.5688,0.5688,0.5688,0.5688,0.5688,0.5688,0.5688,0.5822,0.5994,0.5777,0.5989,0.6498,0.6508,0.6691,0.6997,0.735,0.7543,0.7543,0.7596,0.7743,0.7988,0.7988,0.7988,0.7988,0.7988,0.7988,0.7988,0.7988,0.7988,0.7988,0.7988,0.7904,0.7849,0.8002,0.8196,0.8381,0.8569,0.913,0.9685,0.9859,1.0463,1.1322,1.2448,1.2705,1.2918,1.3695,1.3962,1.4088,1.4088,1.4454,1.4692,1.4692,1.5082,1.5389,1.5389,1.5389,1.5389,1.5389,1.5389,1.5389,1.5389,1.5389,1.5389,1.5389,1.5389,1.5389,1.5389,1.5389,1.5389,1.5389,1.6105,1.6542,1.6755,1.6903,1.7658,1.8939,2.0021,2.0932,0.0,0.0,0.0,0.0,0.0,0.0,0.0,0.0,0.0,0.0,0.0,0.0,0.0,0.0,0.0,0.0,0.0,0.0,0.0,0.0,0.0,0.0,0.0,0.0,0.517,0.5189,0.5268,0.5447,0.5659,0.5728,0.5599,0.5786,0.5822,0.5688,0.5688,0.5688,0.5688,0.5688,0.5688,0.5688,0.5822,0.5952,0.6083,0.6083,0.6242,0.6597,0.6777,0.6962,0.7249,0.7635,0.7793,0.7793,0.7793,0.7892,0.7988,0.7988,0.7988,0.7988,0.7988,0.7988,0.7988,0.7988,0.7938,0.7877,0.7877,0.777,0.7747,0.855,0.8796,0.8968,0.9756,1.0294,1.0722,1.1192,1.1671,1.2272,1.3179,1.3398,1.3525,1.4004,1.4088,1.4088,1.4088,1.437,1.4566,1.4692,1.4999,1.5305,1.5389,1.5389,1.5389,1.5389,1.5389,1.5389,1.5389,1.5389,1.5389,1.5389,1.5389,1.5389,1.5389,1.5389,1.5582,1.6023,1.6501,1.6944,1.7521,1.823,1.8899,1.955,2.0109,2.0857,0.0,0.0,0.0,0.0,0.0,0.012,0.0,0.0,0.0,0.0,0.0,0.0,0.0,0.0,0.0,0.0,0.0,0.0,0.0,0.0,0.0,0.0,0.0,0.0,0.0,0.504,0.5112,0.5374,0.5627,0.576,0.5726,0.6063,0.6233,0.6257,0.6171,0.6171,0.639,0.6216,0.6216,0.639,0.652,0.652,0.652,0.6823,0.6844,0.6739,0.7201,0.7426,0.7407,0.7825,0.7931,0.7911,0.7968,0.7988,0.7988,0.7988,0.7988,0.7988,0.7988,0.7988,0.7988,0.7988,0.7887,0.7849,0.7931,0.7883,0.7996,0.9351,0.9623,0.9802,1.0977,1.1408,1.1757,1.2528,1.2833,1.3179,1.3955,1.4088,1.4088,1.4088,1.4088,1.4088,1.4088,1.4286,1.4482,1.4608,1.4866,1.509,1.5305,1.5347,1.5347,1.5389,1.5389,1.5389,1.5389,1.5389,1.5389,1.5389,1.5389,1.5389,1.5389,1.5389,1.5748,1.646,1.678,1.7302,1.8078,1.9432,2.0109,2.0157,2.0401,2.0982,0.0,0.0,0.0,0.0,0.0,0.0,0.0,0.0,0.0,0.0,0.0,0.0,0.0,0.0,0.0,0.0,0.0,0.0,0.0,0.0,0.0,0.0,0.0,0.0,0.0,0.4924,0.5046,0.5377,0.5389,0.5725,0.6504,0.6734,0.721,0.8169,0.7786,0.7958,0.8777,0.7958,0.7958,0.8777,0.8432,0.8133,0.7962,0.8607,0.8229,0.7084,0.7903,0.7942,0.7444,0.7723,0.7763,0.7675,0.7887,0.7988,0.7988,0.7988,0.7988,0.7988,0.7988,0.7988,0.7988,0.7988,0.7887,0.7904,0.8502,0.8795,0.9139,1.0158,1.0613,1.0852,1.1198,1.1929,1.2577,1.2662,1.3355,1.3962,1.4088,1.4088,1.4088,1.4088,1.4088,1.4088,1.4088,1.4286,1.4398,1.444,1.4608,1.4824,1.509,1.5131,1.5215,1.5389,1.5389,1.5389,1.5389,1.5389,1.5389,1.5389,1.5389,1.5389,1.5389,1.5389,1.5465,1.5548,1.7074,1.7989,1.8261,1.9962,2.0489,1.9982,2.1088,2.1693,0.0,0.0,0.0,0.0,0.0,0.0,0.0,0.0,0.0,0.0,0.0,0.0,0.0,0.0,0.0,0.0,0.0,0.0,0.0,0.0,0.0,0.0,0.0,0.0,0.0,0.0,0.0,0.0,0.5979,0.6322,0.6853,0.7729,0.8431,0.8904,0.8694,0.8821,0.9209,0.8825,0.8825,0.9209,0.9179,0.9096,0.9008,0.944,0.9266,0.8715,0.8678,0.8487,0.8193,0.7832,0.7651,0.7611,0.7736,0.7784,0.7794,0.7875,0.7909,0.787,0.7958,0.7988,0.8057,0.8456,0.8473,0.8521,0.921,0.9482,0.9821,1.1046,1.1499,1.18,1.2705,1.3222,1.3525,1.3525,1.3828,1.4088,1.4088,1.4088,1.4088,1.4088,1.4088,1.4088,1.4088,1.4166,1.4286,1.4398,1.4482,1.465,1.5041,1.509,1.5173,1.5389,1.5389,1.5389,1.5389,1.5389,1.5389,1.5389,1.5389,1.5389,1.5389,1.5389,1.5873,1.6878,1.7747,1.8709,1.9805,2.077,2.1118,2.0828,2.1377,2.1693,0.0,0.0,0.0,0.0,0.0,0.0,0.0,0.0,0.0,0.0,0.0,0.0,0.0,0.0,0.0,0.0,0.0,0.0,0.0,0.0,0.0,0.0,0.0,0.0,0.0,0.0,0.0,0.0,0.0,0.6643,0.7414,0.8542,0.9387,0.9862,0.9798,0.9913,1.0168,0.9908,0.9908,1.0168,1.0226,1.0188,1.0062,1.0486,1.0399,0.9884,0.9332,0.895,0.8653,0.7884,0.7512,0.7478,0.7519,0.7648,0.7823,0.7822,0.8,0.8215,0.8033,0.8159,0.8468,0.922,0.9313,0.9306,1.0076,1.0274,1.0577,1.2009,1.2357,1.2662,1.3786,1.4088,1.4088,1.4088,1.4088,1.4088,1.4088,1.4088,1.4088,1.4088,1.4088,1.4088,1.4088,1.4088,1.4166,1.4279,1.4356,1.4524,1.4957,1.5041,1.5173,1.5389,1.5389,1.5389,1.5389,1.5389,1.5389,1.5389,1.5389,1.5506,1.5748,1.5748,1.6468,1.7957,1.843,1.9313,2.0615,2.1195,2.154,2.1578,2.1578,2.1655,0.0,0.0,0.0,0.0,0.0,0.0,0.0,0.0,0.0,0.0,0.0,0.0,0.0,0.0,0.0,0.0,0.0,0.0,0.0,0.0,0.0,0.0,0.0,0.0,0.0,0.0,0.0,0.0,0.0,0.0,0.8438,0.8951,0.992,1.1466,1.1331,1.1666,1.2571,1.1709,1.1709,1.2571,1.2143,1.1671,1.1278,1.2186,1.1617,0.9879,0.9889,0.9327,0.8432,0.7719,0.7288,0.7125,0.7319,0.7825,0.8404,0.7979,0.8479,0.9216,0.8329,0.8528,0.9324,1.025,1.0368,1.0295,1.1044,1.1278,1.1542,1.2966,1.3349,1.3483,1.3962,1.4088,1.4088,1.4088,1.4088,1.4088,1.4088,1.4088,1.4088,1.4088,1.4088,1.4088,1.4088,1.4088,1.4088,1.413,1.4279,1.4482,1.4699,1.4957,1.5173,1.5389,1.5389,1.5389,1.5389,1.5389,1.5389,1.5389,1.5389,1.579,1.6617,1.6657,1.7066,1.7997,1.9045,1.9668,1.9943,2.0982,2.1617,2.1807,2.1807,2.1807,0.0,0.0,0.0,0.0,0.0,0.0,0.0,0.0,0.0,0.0,0.0,0.0,0.0,0.0,0.0,0.0,0.0,0.0,0.0,0.0,0.0,0.0,0.0,0.0,0.0,0.0,0.0,0.0,0.659,0.0,0.0,1.0248,1.1329,1.2052,1.2186,1.2357,1.2705,1.24,1.24,1.2705,1.2534,1.2357,1.2229,1.2577,1.2357,1.1703,1.1101,1.0669,1.0289,0.9433,0.9024,0.8973,0.9037,0.92,0.9358,0.8691,0.9195,1.0168,0.994,0.9979,1.025,1.0965,1.1057,1.1119,1.2172,1.2491,1.2662,1.3392,1.361,1.3695,1.3997,1.4088,1.4088,1.4088,1.4088,1.4088,1.4088,1.4088,1.4088,1.4088,1.4088,1.4088,1.4088,1.4088,1.4166,1.4279,1.4356,1.4524,1.4915,1.5041,1.5173,1.5389,1.5389,1.5389,1.5389,1.5389,1.5665,1.6221,1.6263,1.6665,1.7513,1.7553,1.7957,1.8856,1.9362,1.9923,2.0566,2.1195,2.154,2.1617,2.1731,2.1807,0.0,0.0,0.0,0.0,0.0,0.0,0.0,0.0,0.0,0.0,0.0,0.0,0.0,0.0,0.0,0.0,0.0,0.0,0.0,0.0,0.0,0.0,0.0,0.0,0.0,0.0,0.526,0.6317,0.6827,0.0,0.0,0.0,1.1663,1.2161,1.2518,1.2705,1.2705,1.2705,1.2705,1.2705,1.2705,1.2705,1.2705,1.2705,1.2705,1.2662,1.1714,1.1284,1.1241,1.0274,0.9879,0.9927,1.0008,1.0255,1.045,0.9607,0.9826,1.0667,1.146,1.141,1.1061,1.1825,1.2008,1.2118,1.2991,1.3218,1.3289,1.3733,1.3773,1.3779,1.4046,1.4088,1.4088,1.4088,1.4088,1.4088,1.4088,1.4088,1.4088,1.4088,1.4088,1.4088,1.4088,1.4088,1.4124,1.4279,1.4398,1.4608,1.4915,1.5082,1.5264,1.5389,1.5389,1.5548,1.5824,1.5865,1.6221,1.7107,1.7147,1.7553,1.8447,1.8447,1.8886,1.9736,1.9971,2.0333,2.0906,2.1244,2.1436,2.1502,2.1617,2.1731]},{"header":{"parameterUnit":"m.s-1","parameterCategory":1,"la1":30.6,"la2":29.2853,"lo1":-89.7004,"lo2":-87.6739,"dy":0.0162,"dx":0.0183,"nx":112,"ny":82,"refTime":"2025-08-23T00:00:00:Z","depth":0,"parameterNumber":3,"parameterNumberName":"V-component_of_WINDS"},"data":[0.0,0.0,0.0,0.0,0.0,0.0,0.0,0.0,0.0,0.0,0.0,0.0,0.0,0.0,0.0,0.0,0.0,0.0,0.0,0.0,0.0,0.0,0.0,0.0,0.0,0.0,0.0,0.0,0.0,0.0,0.0,0.0,0.0,0.0,0.0,0.0,0.0,0.0,0.0,0.0,0.0,0.0,0.0,0.0,0.0,0.0,0.0,0.0,0.0,0.0,0.0,0.0,0.0,0.0,0.0,0.0,0.0,0.0,0.0,0.0,0.0,0.0,0.0,0.0,0.0,0.0,0.0,0.0,0.0,0.0,0.0,0.0,0.0,0.0,0.0,0.0,0.0,0.0,0.0,0.0,0.0,0.0,0.0,0.0,0.0,0.0,0.0,0.0,0.0,0.0,0.0,2.8299,3.1349,3.2684,3.1389,3.1485,2.9853,2.5683,0.0,0.0,0.0,0.0,0.0,0.0,0.0,0.0,0.0,0.0,0.0,0.0,0.0,0.0,0.0,0.0,0.0,0.0,0.0,0.0,0.0,0.0,0.0,0.0,0.0,0.0,0.0,0.0,0.0,0.0,0.0,0.0,0.0,0.0,0.0,0.0,0.0,0.0,0.0,0.0,0.0,0.0,0.0,0.0,0.0,0.0,0.0,0.0,0.0,0.0,0.0,0.0,0.0,0.0,0.0,0.0,0.0,0.0,0.0,0.0,0.0,0.0,0.0,0.0,0.0,0.0,0.0,0.0,0.0,0.0,0.0,0.0,0.0,0.0,0.0,0.0,0.0,0.0,0.0,0.0,0.0,0.0,0.0,0.0,0.0,0.0,0.0,0.0,0.0,0.0,0.0,0.0,0.0,0.0,0.0,0.0,0.0,0.0,0.0,0.0,0.0,0.0,0.0,0.0,2.5454,3.0299,3.2252,3.3033,3.2565,3.1752,3.0134,2.7473,0.0,0.0,0.0,0.0,0.0,0.0,0.0,0.0,0.0,0.0,0.0,0.0,0.0,0.0,0.0,0.0,0.0,0.0,0.0,0.0,0.0,0.0,0.0,0.0,0.0,0.0,0.0,0.0,0.0,0.0,0.0,0.0,0.0,0.0,0.0,0.0,0.0,0.0,0.0,0.0,0.0,0.0,0.0,0.0,0.0,0.0,0.0,0.0,0.0,0.0,0.0,0.0,0.0,0.0,0.0,0.0,0.0,0.0,0.0,0.0,0.0,0.0,0.0,0.0,0.0,0.0,0.0,0.0,0.0,0.0,0.0,0.0,0.0,0.0,0.0,0.0,0.0,0.0,0.0,0.0,0.0,0.0,0.0,0.0,0.0,0.0,0.0,0.0,0.0,0.0,0.0,0.0,0.0,0.0,0.0,0.0,0.0,0.0,0.0,0.0,0.0,0.0,0.0,2.5016,2.7682,3.1351,3.3074,3.3705,3.3067,3.2576,3.0827,2.7426,2.5346,0.0,0.0,0.0,0.0,0.0,0.0,0.0,0.0,0.0,0.0,0.0,0.0,0.0,0.0,0.0,0.0,0.0,0.0,0.0,0.0,0.0,0.0,0.0,0.0,0.0,0.0,0.0,0.0,0.0,0.0,0.0,0.0,0.0,0.0,0.0,0.0,0.0,0.0,0.0,0.0,0.0,0.0,0.0,0.0,0.0,0.0,0.0,0.0,0.0,0.0,0.0,0.0,0.0,0.0,0.0,0.0,0.0,0.0,0.0,0.0,0.0,0.0,0.0,0.0,0.0,0.0,0.0,0.0,0.0,0.0,0.0,0.0,0.0,0.0,0.0,0.0,0.0,0.0,0.0,0.0,0.0,0.0,0.0,0.0,0.0,0.0,0.0,0.0,0.0,0.0,0.0,0.0,0.0,0.0,0.0,0.0,0.0,0.0,0.0,0.0,0.0,0.0,2.7773,2.9875,3.1949,3.3642,3.4311,3.3529,3.288,3.1062,2.7609,2.5418,0.0,0.0,0.0,0.0,0.0,0.0,0.0,0.0,0.0,0.0,0.0,0.0,0.0,0.0,0.0,0.0,0.0,0.0,0.0,0.0,0.0,0.0,0.0,0.0,0.0,0.0,0.0,0.0,0.0,0.0,0.0,0.0,0.0,0.0,0.0,0.0,0.0,0.0,0.0,0.0,0.0,0.0,0.0,0.0,0.0,0.0,0.0,0.0,0.0,0.0,0.0,0.0,0.0,0.0,0.0,0.0,0.0,0.0,0.0,0.0,0.0,0.0,0.0,0.0,0.0,0.0,0.0,0.0,0.0,0.0,0.0,0.0,0.0,0.0,0.0,0.0,0.0,0.0,0.0,0.0,0.0,0.0,0.0,0.0,0.0,0.0,0.0,0.0,0.0,0.0,0.0,0.0,0.0,0.0,0.0,0.0,0.0,0.0,0.0,0.0,0.0,0.0,2.8103,3.076,3.2224,3.3762,3.4578,3.4252,3.1994,3.0172,2.9185,2.5236,0.0,0.0,0.0,0.0,0.0,0.0,0.0,0.0,0.0,0.0,0.0,0.0,0.0,0.0,0.0,0.0,0.0,0.0,0.0,0.0,0.0,0.0,0.0,0.0,0.0,0.0,0.0,0.0,0.0,0.0,0.0,0.0,0.0,0.0,0.0,0.0,0.0,0.0,0.0,0.0,0.0,0.0,0.0,0.0,0.0,0.0,0.0,0.0,0.0,0.0,0.0,0.0,0.0,0.0,0.0,0.0,0.0,0.0,0.0,0.0,0.0,0.0,0.0,0.0,0.0,0.0,0.0,0.0,0.0,0.0,0.0,0.0,0.0,0.0,0.0,0.0,0.0,0.0,0.0,0.0,0.0,0.0,0.0,0.0,0.0,0.0,0.0,0.0,0.0,0.0,0.0,0.0,0.0,0.0,0.0,0.0,0.0,0.0,0.0,0.0,0.0,0.0,2.7662,3.0311,0.0,3.4097,3.4723,3.3872,3.2896,3.0961,2.7698,0.0,0.0,0.0,0.0,0.0,0.0,0.0,0.0,0.0,0.0,0.0,0.0,0.0,0.0,0.0,0.0,0.0,0.0,0.0,0.0,0.0,0.0,0.0,0.0,0.0,0.0,0.0,0.0,0.0,0.0,0.0,0.0,0.0,0.0,0.0,0.0,0.0,0.0,0.0,0.0,0.0,0.0,0.0,0.0,0.0,0.0,0.0,0.0,0.0,0.0,0.0,0.0,0.0,0.0,0.0,0.0,0.0,0.0,0.0,0.0,0.0,0.0,0.0,0.0,0.0,0.0,0.0,0.0,0.0,0.0,0.0,0.0,0.0,0.0,0.0,0.0,0.0,0.0,0.0,0.0,0.0,0.0,0.0,0.0,0.0,0.0,0.0,0.0,0.0,0.0,0.0,0.0,0.0,0.0,0.0,0.0,0.0,0.0,0.0,0.0,0.0,0.0,2.4689,2.7495,3.0098,0.0,3.3883,3.4327,3.3758,3.2454,3.0265,2.7027,0.0,0.0,0.0,0.0,0.0,0.0,0.0,0.0,0.0,0.0,0.0,0.0,0.0,0.0,0.0,0.0,0.0,0.0,0.0,0.0,0.0,0.0,0.0,0.0,0.0,0.0,0.0,0.0,0.0,0.0,0.0,0.0,0.0,0.0,0.0,0.0,0.0,0.0,0.0,0.0,0.0,0.0,0.0,0.0,0.0,0.0,0.0,0.0,0.0,0.0,0.0,0.0,0.0,0.0,0.0,0.0,0.0,0.0,0.0,0.0,0.0,0.0,0.0,0.0,0.0,0.0,0.0,0.0,0.0,0.0,0.0,0.0,0.0,0.0,0.0,0.0,0.0,0.0,0.0,0.0,0.0,0.0,0.0,0.0,0.0,0.0,0.0,0.0,0.0,0.0,0.0,0.0,0.0,0.0,0.0,0.0,0.0,0.0,0.0,0.0,0.0,0.0,2.4962,2.7741,3.0358,3.2827,3.2987,3.3256,3.4103,3.022,2.7717,0.0,0.0,0.0,0.0,0.0,0.0,0.0,0.0,0.0,0.0,0.0,0.0,0.0,0.0,0.0,0.0,0.0,0.0,0.0,0.0,0.0,0.0,0.0,0.0,0.0,0.0,0.0,0.0,0.0,0.0,0.0,0.0,0.0,0.0,0.0,0.0,0.0,0.0,0.0,0.0,0.0,0.0,0.0,0.0,0.0,0.0,0.0,0.0,0.0,0.0,0.0,0.0,0.0,0.0,0.0,0.0,0.0,0.0,0.0,0.0,0.0,0.0,0.0,0.0,0.0,0.0,0.0,0.0,0.0,0.0,0.0,0.0,0.0,0.0,0.0,0.0,0.0,0.0,0.0,0.0,0.0,0.0,0.0,0.0,0.0,0.0,0.0,0.0,0.0,0.0,0.0,0.0,0.0,0.0,0.0,0.0,0.0,0.0,0.0,0.0,0.0,0.0,0.0,2.4974,2.7731,3.0127,3.2054,3.2815,3.2984,3.2476,3.0741,2.8618,2.6099,0.0,0.0,0.0,0.0,0.0,0.0,0.0,0.0,0.0,0.0,0.0,0.0,0.0,0.0,0.0,0.0,0.0,0.0,0.0,0.0,0.0,0.0,0.0,0.0,0.0,0.0,0.0,0.0,0.0,0.0,0.0,0.0,0.0,0.0,0.0,0.0,0.0,0.0,0.0,0.0,0.0,0.0,0.0,0.0,0.0,0.0,0.0,0.0,0.0,0.0,0.0,0.0,0.0,0.0,0.0,0.0,0.0,0.0,0.0,0.0,0.0,0.0,0.0,0.0,0.0,0.0,0.0,0.0,0.0,0.0,0.0,0.0,0.0,0.0,0.0,0.0,0.0,0.0,0.0,0.0,0.0,0.0,0.0,0.0,0.0,0.0,0.0,0.0,0.0,0.0,0.0,0.0,0.0,0.0,0.0,0.0,0.0,0.0,0.0,0.0,0.0,0.0,2.5016,2.7474,2.9698,3.1725,3.2122,3.2143,3.1838,3.044,2.8504,2.6002,0.0,0.0,0.0,0.0,0.0,0.0,0.0,0.0,0.0,0.0,0.0,0.0,0.0,0.0,0.0,0.0,0.0,0.0,0.0,0.0,0.0,0.0,0.0,0.0,0.0,0.0,0.0,0.0,0.0,0.0,0.0,0.0,0.0,0.0,0.0,0.0,0.0,0.0,0.0,0.0,0.0,0.0,0.0,0.0,0.0,0.0,0.0,0.0,0.0,0.0,0.0,0.0,0.0,0.0,0.0,0.0,0.0,0.0,0.0,0.0,0.0,0.0,0.0,0.0,0.0,0.0,0.0,0.0,0.0,0.0,0.0,0.0,0.0,0.0,0.0,0.0,0.0,0.0,0.0,0.0,0.0,0.0,0.0,0.0,0.0,0.0,0.0,0.0,0.0,0.0,0.0,0.0,0.0,0.0,0.0,0.0,0.0,0.0,0.0,0.0,0.0,0.0,2.5073,2.7075,2.9141,3.1615,3.1171,3.1018,3.1807,2.9688,2.7885,2.6868,0.0,0.0,0.0,0.0,0.0,0.0,0.0,0.0,0.0,0.0,0.0,0.0,0.0,0.0,0.0,0.0,0.0,0.0,0.0,0.0,0.0,0.0,0.0,0.0,0.0,0.0,0.0,0.0,0.0,0.0,0.0,0.0,0.0,0.0,0.0,0.0,0.0,0.0,0.0,0.0,0.0,0.0,0.0,0.0,0.0,0.0,0.0,0.0,0.0,0.0,0.0,0.0,0.0,0.0,0.0,0.0,0.0,0.0,0.0,0.0,2.6443,0.0,0.0,0.0,0.0,0.0,0.0,0.0,0.0,0.0,0.0,0.0,0.0,0.0,0.0,0.0,0.0,0.0,0.0,0.0,0.0,0.0,0.0,0.0,0.0,0.0,0.0,0.0,0.0,0.0,0.0,0.0,0.0,0.0,0.0,0.0,0.0,0.0,0.0,0.0,0.0,0.0,2.5147,2.7104,2.8887,3.0701,3.0781,3.075,3.0895,2.9827,2.8505,2.6976,2.4927,0.0,0.0,0.0,0.0,0.0,0.0,0.0,0.0,0.0,0.0,0.0,0.0,0.0,0.0,0.0,0.0,0.0,0.0,0.0,0.0,0.0,0.0,0.0,0.0,0.0,0.0,0.0,0.0,0.0,0.0,0.0,0.0,0.0,0.0,0.0,0.0,0.0,0.0,0.0,0.0,0.0,0.0,0.0,0.0,0.0,0.0,0.0,0.0,0.0,0.0,0.0,0.0,0.0,0.0,0.0,0.0,0.0,0.0,0.0,0.0,2.8739,0.0,0.0,0.0,0.0,0.0,0.0,0.0,0.0,0.0,0.0,0.0,0.0,0.0,0.0,0.0,0.0,0.0,0.0,0.0,0.0,0.0,0.0,0.0,0.0,0.0,0.0,0.0,0.0,0.0,0.0,0.0,0.0,0.0,0.0,0.0,0.0,0.0,0.0,0.0,0.0,2.5831,2.7437,2.8881,3.0563,3.0757,3.073,3.0706,2.9907,2.9021,2.8162,2.6104,0.0,0.0,0.0,0.0,0.0,0.0,0.0,0.0,0.0,0.0,0.0,0.0,0.0,0.0,0.0,0.0,0.0,0.0,0.0,0.0,0.0,0.0,0.0,0.0,0.0,0.0,0.0,0.0,0.0,0.0,0.0,0.0,0.0,0.0,0.0,0.0,0.0,0.0,0.0,0.0,0.0,0.0,0.0,0.0,0.0,0.0,0.0,0.0,0.0,0.0,0.0,0.0,0.0,3.4151,3.4434,3.4139,3.4385,3.4833,3.5382,3.4705,3.3597,3.2072,3.0223,0.0,0.0,0.0,0.0,0.0,0.0,0.0,0.0,0.0,0.0,0.0,0.0,0.0,0.0,0.0,0.0,0.0,0.0,0.0,0.0,0.0,0.0,0.0,0.0,2.8242,2.7835,0.0,0.0,0.0,0.0,0.0,0.0,0.0,0.0,0.0,0.0,0.0,0.0,2.6553,2.7749,2.8943,3.0681,3.0826,3.0795,3.08,3.0094,2.9572,2.9433,2.7444,2.571,0.0,0.0,0.0,0.0,0.0,0.0,0.0,0.0,0.0,0.0,0.0,0.0,0.0,0.0,0.0,0.0,0.0,0.0,0.0,0.0,0.0,0.0,0.0,0.0,0.0,0.0,0.0,0.0,0.0,0.0,0.0,0.0,2.169,2.2953,0.0,0.0,0.0,0.0,0.0,0.0,0.0,0.0,0.0,0.0,0.0,0.0,0.0,3.2166,3.2675,3.4965,3.5907,3.5499,3.8428,3.9397,3.866,3.9376,3.977,3.9849,3.9733,0.0,3.3743,3.1986,0.0,0.0,0.0,0.0,0.0,0.0,0.0,0.0,0.0,0.0,0.0,0.0,0.0,0.0,0.0,0.0,0.0,0.0,0.0,0.0,0.0,0.0,3.1091,3.0446,3.0957,3.1015,0.0,2.7429,2.572,2.3106,2.2599,0.0,0.0,0.0,0.0,0.0,0.0,0.0,2.6563,2.7677,2.8852,3.0552,3.0722,3.0732,3.0799,3.0681,3.0286,2.9539,2.9173,2.7899,2.5437,2.4382,0.0,0.0,0.0,0.0,0.0,0.0,0.0,0.0,0.0,0.0,0.0,0.0,0.0,0.0,0.0,0.0,0.0,0.0,0.0,0.0,0.0,0.0,0.0,0.0,0.0,0.0,0.0,0.0,0.0,2.0934,2.3822,2.3743,2.4363,2.4249,0.0,0.0,0.0,0.0,0.0,0.0,0.0,0.0,0.0,3.3658,3.5023,3.644,3.7891,3.9219,3.9673,3.9295,4.0929,4.1209,4.0302,4.0697,4.0854,4.0818,4.0818,3.9691,3.7636,3.4918,3.2724,3.0941,0.0,0.0,0.0,0.0,2.9136,2.8981,2.995,3.0029,0.0,2.9505,0.0,0.0,0.0,0.0,0.0,0.0,0.0,0.0,0.0,0.0,3.196,3.162,3.1782,3.1711,3.0488,2.9647,2.8375,0.0,2.5285,2.4758,2.3027,0.0,0.0,0.0,0.0,2.4765,2.7341,2.8021,2.8915,3.0631,3.0774,3.0741,3.0737,3.0735,3.0559,3.014,2.9691,2.8688,2.6985,2.5638,2.3935,0.0,0.0,0.0,0.0,0.0,0.0,0.0,0.0,0.0,0.0,0.0,0.0,0.0,0.0,0.0,0.0,0.0,0.0,0.0,0.0,0.0,0.0,0.0,0.0,0.0,0.0,0.0,0.0,2.3093,2.5644,2.4673,2.6345,2.6777,0.0,0.0,0.0,0.0,0.0,0.0,3.1649,3.4228,3.6339,3.7816,3.8908,4.032,4.2179,4.2432,4.2488,4.2344,4.2334,4.1955,4.1232,4.101,4.0882,4.0849,4.0823,4.0767,4.0436,3.743,3.5346,3.3935,3.2615,3.2115,3.2147,3.2507,3.2361,3.2115,3.301,3.3158,3.2874,3.2314,3.2443,3.2294,2.9472,0.0,0.0,0.0,0.0,3.0477,3.2218,3.2672,3.262,3.2444,3.2374,3.2111,3.1313,3.113,3.0508,0.0,2.7791,2.7165,2.5662,0.0,0.0,0.0,0.0,2.5857,2.8027,2.8496,2.9218,3.0742,3.0855,3.08,3.073,3.0726,3.0606,3.0318,2.9739,2.889,2.7724,2.6471,2.4992,2.3261,0.0,0.0,0.0,0.0,0.0,0.0,0.0,0.0,0.0,0.0,0.0,0.0,0.0,0.0,0.0,0.0,0.0,0.0,0.0,0.0,0.0,0.0,0.0,0.0,0.0,0.0,0.0,0.0,0.0,2.6474,2.9147,0.0,0.0,0.0,0.0,2.9791,3.2863,3.5223,3.6201,3.8749,4.0595,4.1492,4.2401,4.2972,4.3226,4.3244,4.333,4.3493,4.2629,4.2184,4.2092,4.1081,4.0654,4.07,4.0633,4.0603,4.0468,3.8775,3.7925,3.7486,3.5027,3.4013,3.3863,3.3077,3.2778,3.2882,3.3819,3.3599,3.3315,3.5781,3.6002,3.5133,3.4128,3.2709,0.0,0.0,3.184,3.2269,3.4019,3.4478,3.4269,3.3436,3.3244,3.301,3.2209,3.203,3.1758,0.0,2.9939,2.91,2.8241,0.0,2.6543,2.5742,2.6346,2.7225,2.8182,2.9023,2.9882,3.0801,3.0898,3.0877,3.0801,3.0799,3.0402,2.9519,2.9418,2.8611,2.6845,2.6687,2.5847,2.4169,2.3238,0.0,0.0,0.0,0.0,0.0,0.0,0.0,0.0,0.0,0.0,0.0,0.0,0.0,0.0,0.0,0.0,0.0,0.0,0.0,0.0,0.0,0.0,0.0,0.0,0.0,0.0,0.0,0.0,2.8861,3.1303,0.0,3.1122,3.2111,3.3233,3.4182,3.6378,3.8297,3.9747,4.1766,4.3056,4.3453,4.4353,4.4858,4.4905,4.5069,4.4866,4.4239,4.3906,4.3474,4.2934,4.1957,4.1557,4.1629,4.1009,4.0726,4.0688,4.0024,3.9338,3.8566,3.7224,3.6638,3.6504,3.6257,3.5763,3.5376,3.6311,3.6412,3.6363,3.7939,3.7488,3.6278,3.5968,3.5154,3.4342,3.4375,3.441,3.4583,3.5208,3.5371,3.5025,3.3631,3.3699,3.3716,3.2391,3.2508,3.2953,3.3207,3.2121,3.0898,3.005,2.9184,2.8323,2.7491,2.7646,2.8155,2.902,2.9413,2.9922,3.082,3.0859,3.0812,3.0735,3.0267,2.9772,2.935,2.8844,2.8002,2.6745,2.6693,2.6159,2.4996,2.4113,2.2531,0.0,0.0,0.0,0.0,0.0,0.0,0.0,0.0,0.0,0.0,0.0,0.0,0.0,0.0,0.0,0.0,0.0,0.0,0.0,0.0,0.0,0.0,0.0,0.0,0.0,0.0,3.0452,3.0628,3.3374,3.4825,3.3723,3.5068,3.6511,3.7748,3.9655,4.1263,4.241,4.3875,4.4697,4.4739,4.5383,4.5725,4.5727,4.5927,4.5703,4.5034,4.4779,4.4381,4.3809,4.2859,4.234,4.2121,4.1464,4.1016,4.0764,4.0694,4.0239,3.9495,3.8751,3.8234,3.7862,3.759,3.6938,3.6324,3.7224,3.7613,3.7882,3.8861,3.8385,3.7463,3.7559,3.7261,3.6801,3.6284,3.6164,3.6138,3.5832,3.5773,3.5428,3.4035,3.4101,3.4218,3.3148,3.3333,3.3962,3.4873,3.3663,3.2249,3.1386,3.0516,2.956,2.8468,2.8546,2.8955,2.9525,2.9861,3.0252,3.0838,3.0605,3.0365,3.029,2.9545,2.8897,2.8503,2.7974,2.7252,2.6323,2.6304,2.6028,2.5448,2.43,2.3137,2.1983,0.0,0.0,0.0,0.0,0.0,0.0,0.0,0.0,0.0,0.0,0.0,0.0,0.0,0.0,0.0,0.0,0.0,0.0,0.0,0.0,0.0,0.0,0.0,2.5348,2.9704,3.2634,3.1793,3.5385,3.7268,3.5523,3.8372,4.0348,4.0375,4.2622,4.4076,4.424,4.5109,4.5522,4.541,4.5528,4.5607,4.5603,4.5677,4.5773,4.5887,4.5176,4.4796,4.4705,4.3763,4.2898,4.2172,4.1977,4.1466,4.0745,4.0781,4.0675,4.0412,3.9535,3.8666,3.779,3.6837,3.6066,3.5597,3.6362,3.7009,3.7658,3.8603,3.8842,3.88,3.9048,3.9138,3.8865,3.7467,3.706,3.6847,3.5975,3.5728,3.549,3.4696,3.4516,3.4526,3.4518,3.4512,3.4808,3.5726,3.4539,3.311,3.2316,3.1461,3.0319,2.8672,2.9101,0.0,2.9648,3.0367,3.0891,3.0894,3.0115,2.957,2.9502,2.8675,2.78,2.6942,2.6812,2.6372,2.552,2.5494,2.5507,2.5507,2.381,2.2891,2.2793,0.0,0.0,0.0,0.0,0.0,0.0,0.0,0.0,0.0,0.0,0.0,0.0,0.0,0.0,0.0,0.0,0.0,0.0,0.0,0.0,0.0,0.0,3.0037,3.0037,3.2184,3.4356,3.5952,3.7652,3.875,3.8877,4.0272,4.1428,4.2068,4.3271,4.4294,4.4956,4.5245,4.5409,4.5476,4.5599,4.5723,4.5824,4.5873,4.5935,4.5968,4.5673,4.5538,4.5549,4.4595,4.4092,4.3903,4.2505,4.1775,4.1524,4.0865,4.0557,4.0419,3.9591,3.8748,3.7862,3.693,3.6815,3.7179,3.749,3.8492,3.9521,3.9213,3.9495,3.9853,3.9444,3.9692,3.9944,3.9116,3.8437,3.7744,3.6866,3.6169,3.549,3.4696,3.4948,3.5204,3.4627,3.496,3.5443,3.5691,3.5366,3.4827,3.4108,3.3228,3.2259,3.1211,3.0723,0.0,3.0469,3.0682,3.0857,3.0897,3.0077,2.9523,2.9505,2.8115,2.7168,2.6926,2.6233,2.5749,2.5515,2.5501,2.5484,2.5429,2.4346,2.3462,0.0,0.0,0.0,0.0,0.0,0.0,0.0,0.0,0.0,0.0,0.0,0.0,0.0,0.0,0.0,0.0,0.0,0.0,0.0,0.0,0.0,0.0,3.0069,3.2645,3.3754,3.4987,3.6302,3.7725,3.8949,3.9874,4.0372,4.1475,4.237,4.2814,4.3944,4.4814,4.5288,4.535,4.5429,4.5495,4.5635,4.5712,4.5764,4.5874,4.5931,4.5912,4.588,4.5867,4.5886,4.5337,4.4924,4.4576,4.3124,4.2279,4.1872,4.0959,4.0576,0.0,0.0,0.0,0.0,0.0,3.7071,3.7712,3.7962,3.8972,4.01,3.9805,3.9704,3.974,3.9765,3.9834,3.9868,3.9586,3.9158,3.8481,3.7237,3.6295,3.5449,3.4612,3.4777,3.4986,3.4546,3.5103,3.5694,3.5704,3.5708,0.0,3.522,3.4421,3.3562,3.273,3.1875,3.1347,3.1348,3.1033,3.0817,3.0859,3.0074,2.9384,2.9035,2.7728,0.0,0.0,0.0,2.5532,2.5498,2.5508,0.0,0.0,0.0,0.0,0.0,0.0,0.0,0.0,2.3788,2.3647,0.0,0.0,0.0,0.0,0.0,0.0,0.0,0.0,0.0,0.0,0.0,0.0,0.0,0.0,0.0,0.0,3.2115,3.4159,3.6402,3.7668,3.8356,3.8223,3.9625,4.0581,4.0588,4.2112,4.3042,4.2902,4.4533,4.5457,4.5338,0.0,0.0,0.0,0.0,4.5673,4.5613,4.5737,4.5819,4.5803,4.5861,4.5906,4.5893,4.5886,4.5479,4.469,4.3717,4.2846,4.2065,4.1099,4.0654,4.0588,4.0438,3.9792,3.8757,3.7191,3.7007,3.7593,3.7964,0.0,0.0,4.0198,3.9627,3.9004,3.991,3.9684,3.9164,3.9459,3.9462,3.9018,3.7379,3.6286,3.5405,3.4633,3.4361,3.4331,3.4494,3.5134,3.5683,3.5689,3.5694,3.5708,3.5783,3.5112,3.4337,3.3556,3.2754,3.2205,3.2109,3.1426,3.0917,3.0819,0.0,0.0,2.8372,2.7594,2.6737,2.5761,2.5729,2.58,2.5936,2.5848,2.5885,2.606,2.6691,2.7413,2.8284,2.9062,2.9907,3.0718,2.7483,2.7189,0.0,0.0,0.0,0.0,0.0,0.0,0.0,0.0,0.0,0.0,0.0,0.0,0.0,0.0,0.0,3.2044,3.4527,3.6336,3.6723,3.8743,4.0185,4.0158,4.0371,4.0508,4.0518,4.2086,4.3049,4.2902,4.4619,4.559,4.5467,4.5538,4.558,4.558,4.5708,4.5773,4.5765,4.5841,4.5874,4.588,0.0,0.0,4.5814,4.5824,4.5725,4.5486,4.3912,4.3118,4.284,4.1277,4.0614,4.053,3.9872,3.8977,3.7939,3.7086,3.7182,3.7775,3.8019,3.9023,4.0133,3.9734,3.9335,3.9114,3.9465,3.935,0.0,4.0121,3.9906,3.9153,3.8119,3.6736,3.5559,3.5385,3.4812,3.451,3.521,3.5506,3.5614,3.5623,3.5629,3.5634,3.5713,3.5048,3.445,3.4287,3.3583,3.2831,3.2186,3.1949,3.1587,3.0875,3.0087,2.9248,2.8378,2.8142,2.7379,2.58,2.6307,2.7249,2.8596,2.7979,2.8229,2.9598,2.9072,2.9224,3.0105,3.0264,3.111,3.2555,3.0528,2.9833,0.0,0.0,0.0,0.0,0.0,0.0,0.0,0.0,0.0,0.0,0.0,2.8228,2.999,0.0,3.2202,3.3872,3.5644,3.6929,3.7306,3.8854,3.9976,4.0043,4.0382,4.0781,4.1261,4.2485,4.3378,4.367,4.4967,4.5684,4.5568,4.5584,4.5635,4.5708,4.5765,4.5822,4.5845,4.588,4.5887,4.5854,4.5852,4.5831,4.5798,4.5773,4.5758,4.5661,4.394,4.3184,4.3007,4.1277,4.0557,4.0518,4.0106,3.9403,3.85,3.7608,3.7786,3.8418,3.8187,3.8777,3.9698,3.9923,3.9315,3.8673,3.9662,3.9573,3.9353,4.0285,4.0265,3.9663,3.8373,3.6812,3.5445,3.5048,3.4304,3.3949,3.4851,3.5393,3.5679,3.5658,3.5648,3.5669,3.5693,3.5379,3.5113,3.5197,3.4527,3.3867,3.3456,3.3018,3.2423,3.1548,3.1093,3.0311,2.9013,2.8936,2.8742,2.8272,2.8628,2.9219,3.003,2.9622,2.98,3.0637,3.0653,3.1068,3.1898,3.2337,3.319,3.4386,3.3534,3.3127,0.0,0.0,0.0,0.0,0.0,0.0,0.0,0.0,2.8547,2.9589,3.0445,3.1495,3.3114,3.3556,3.4173,3.5678,3.6613,3.7389,3.8096,3.8923,3.9514,3.9638,4.0243,4.1042,4.2005,4.2852,4.366,4.4448,4.532,4.5765,4.5657,4.5646,4.5703,4.5795,4.5788,4.5817,4.5866,4.5866,4.5833,4.5786,4.5769,4.5773,4.5773,4.5708,4.5587,4.5329,4.3644,4.2784,4.2475,4.1058,4.0484,4.0484,4.0484,4.0119,3.9437,3.8266,3.8268,3.8775,3.8055,3.8239,3.8925,3.9781,3.9081,3.8193,3.9756,3.9736,3.9353,4.0236,4.0479,4.0119,3.862,3.6844,3.5347,3.4892,3.3906,3.3378,3.4493,3.5277,3.5772,3.5726,3.5712,3.5717,3.5739,3.5736,3.5762,3.5866,3.5349,3.4861,3.4703,3.4075,3.3248,3.2202,3.2259,3.1788,3.0375,2.9843,3.008,3.1223,3.1145,3.1188,3.1465,3.1301,3.1364,3.1693,3.2227,3.2799,3.3456,3.4154,3.483,3.5466,3.5466,3.5551,2.3572,2.4228,2.5328,2.7026,2.7645,2.8639,0.0,0.0,3.156,3.2452,3.3277,3.4149,3.5114,3.5937,3.6755,3.7655,3.8516,3.9113,3.921,3.9937,4.0479,4.0558,4.054,4.0933,4.2002,4.2728,4.3508,4.444,4.535,4.5867,4.5773,4.5831,4.5859,4.58,4.5803,4.5773,4.5723,4.5723,4.5723,4.5723,4.5715,4.5715,4.5708,4.5646,4.518,4.4372,4.2614,4.1419,4.0682,4.0481,4.0405,4.0405,4.0405,4.0356,4.0096,3.8469,3.7955,3.7923,3.7064,3.7325,3.8046,3.8158,3.8073,3.8076,3.8986,3.9197,3.9292,4.0166,4.0415,4.0194,3.9224,3.7164,3.552,3.6331,3.4723,3.348,3.5195,3.5643,3.5729,3.5784,3.5784,3.5813,3.586,3.5873,3.5868,3.5828,3.5788,3.5481,3.4717,3.457,3.3918,3.2274,3.2799,3.3185,3.2979,3.089,3.0594,3.2968,3.2383,3.2649,3.4192,3.3446,3.3734,3.5295,3.4598,3.4264,3.4357,3.4447,3.4544,3.4637,3.4632,3.5015,2.6402,2.7305,2.8186,0.0,3.0343,3.1731,3.2802,3.3069,3.3365,3.4355,3.4811,3.5172,3.5532,3.6285,3.6948,0.0,3.8464,3.9331,3.9331,4.007,4.0439,3.9991,4.0204,4.1004,4.2595,4.2985,4.3728,4.5106,4.5604,4.5812,4.5758,4.5803,4.5817,4.5742,4.5739,4.5723,4.5708,4.5708,4.5673,4.5648,4.5643,4.5618,4.5584,4.5503,4.4756,4.3412,4.2216,4.1221,4.0407,4.0407,4.0407,4.0407,4.0407,4.037,4.0208,3.9024,3.861,3.8479,3.7655,3.7597,3.798,3.8449,3.8597,3.8755,3.9548,3.9797,3.9874,4.0238,4.037,4.0213,3.9411,3.805,3.6767,3.6317,3.5398,3.4725,3.5045,3.5488,3.5813,3.5843,3.5862,3.5872,3.5902,3.5892,3.5901,3.5916,3.5941,3.5837,3.5468,3.5449,3.4977,3.3743,3.3036,3.3052,3.4064,3.3182,3.3235,3.4805,3.4571,3.4704,3.5433,3.5004,3.5123,3.5883,3.5395,3.5204,3.5301,3.5231,3.5238,3.5309,3.5263,3.5443,2.8079,2.9273,0.0,3.0905,3.2583,3.4017,3.3769,3.4077,3.4632,3.5438,3.5591,3.5643,3.5888,3.6402,3.6948,3.7415,3.8505,3.9379,3.961,3.9976,4.0106,3.9764,3.9904,4.0773,4.2659,4.2779,4.3485,4.5245,4.5403,4.5526,4.5688,4.5758,4.575,4.5711,4.5711,4.5684,4.5668,4.566,4.5616,4.5563,4.5558,4.5513,4.5457,4.493,4.402,4.2813,4.1779,4.0966,4.0372,4.0372,4.0372,4.0372,4.0372,4.0335,4.0232,3.9655,3.928,3.8955,3.8131,3.7844,3.794,3.8523,3.888,3.9171,3.9772,4.0117,4.0308,4.0308,4.0353,4.0277,3.9738,3.8809,3.7816,3.7007,3.6101,3.5422,3.54,3.547,3.5602,3.5844,3.5899,3.5902,3.5929,3.5938,3.5935,3.5982,3.6009,3.5995,3.5996,3.578,3.5486,3.5094,3.3508,3.3154,3.4913,3.4849,3.5054,3.5916,3.597,3.5958,3.5931,3.5827,3.5794,3.5846,3.5696,3.5586,3.5499,3.5414,3.5414,3.5512,3.5495,3.562,2.7182,0.0,3.0449,3.2271,3.3519,3.4518,3.5321,3.5489,3.5477,3.5572,3.5554,3.5759,3.662,3.6786,3.7338,3.8957,3.9265,3.9573,4.0342,3.9804,3.9646,4.0472,3.9819,4.0031,0.0,4.1764,4.2456,4.4388,4.4531,4.4878,4.5669,4.5708,4.5711,4.5701,4.5701,4.5665,4.5594,4.5531,4.5504,4.5504,4.5438,4.541,4.5352,4.3647,4.2852,4.2698,4.1055,4.0329,4.031,4.031,4.031,4.031,4.031,4.031,4.031,4.0272,3.9737,3.8877,3.8007,3.7721,3.7721,3.774,3.8304,3.9011,3.903,3.9623,4.031,4.031,4.0353,4.0386,4.0367,3.9237,3.8311,3.9184,3.6895,3.5014,3.6754,3.5814,3.4886,3.5745,3.5906,3.5912,3.5988,3.5991,3.5995,3.6003,3.6004,3.6008,3.5995,3.5254,3.5057,3.5877,3.4392,3.4078,3.5815,3.5186,3.5036,3.5856,3.5899,3.5837,3.5715,3.5706,3.5697,3.5713,3.5708,3.5277,3.4448,3.4517,3.4536,3.4559,3.4661,3.5154,2.9297,0.0,3.2106,3.3408,3.4813,3.5827,3.5526,3.5864,3.6073,3.5523,3.4966,3.4651,3.4959,3.5477,3.6226,3.7318,3.845,3.946,4.0304,4.0208,3.9928,3.9637,3.9852,0.0,0.0,0.0,0.0,4.4223,4.441,4.4784,4.558,4.569,4.5682,4.564,4.5586,4.5559,4.5522,4.5476,4.5429,4.5438,4.537,4.5339,4.5282,4.3579,4.2794,4.2698,4.1081,4.0368,4.0358,4.0449,4.0452,4.0386,4.0457,4.0433,4.0386,4.0476,4.0315,3.9923,3.9018,3.8716,3.8765,3.8765,3.9361,4.0031,3.9961,4.0205,4.0473,4.0402,4.0449,4.0552,4.0641,4.0282,3.9698,3.8947,3.7907,3.6957,3.6453,3.5879,3.5557,3.5838,3.5897,3.591,3.5935,3.5965,3.5994,3.5996,3.6004,3.6009,3.5992,3.5233,3.5039,3.5918,3.496,3.4721,3.5839,3.5654,3.5594,3.5813,3.5824,3.5801,3.5776,3.5674,3.5645,3.5693,3.5568,3.5415,3.5258,3.5209,3.5209,3.5312,3.5972,3.6447,3.1002,3.2392,3.3433,3.4726,3.5873,3.6523,3.5967,3.5983,3.5891,3.5047,3.4203,3.3635,3.3635,3.3873,3.4594,3.6312,3.7501,3.8728,4.0196,4.0119,3.9955,4.0013,4.0226,4.0389,0.0,0.0,0.0,4.3716,4.4126,4.4684,4.5484,4.5568,4.5577,4.5522,4.5495,4.5457,4.5457,4.5419,4.539,4.5359,4.536,4.537,4.5312,4.3665,4.2917,4.283,4.1187,4.0477,4.0477,4.0559,4.0545,4.0485,4.0559,4.0545,4.0485,4.0566,4.0635,4.0578,3.9926,3.9721,3.9765,3.9765,4.0151,4.0581,4.05,4.053,4.0574,4.05,4.0559,4.0681,4.0782,4.0823,4.059,3.9539,3.86,3.773,3.6962,3.6055,3.5502,3.583,3.5908,3.5904,3.5892,3.5933,3.5967,3.5991,3.6,3.6006,3.6009,3.5504,3.5388,3.5936,3.5488,3.5343,3.5869,3.5884,3.5844,3.5776,3.5764,3.5741,3.5736,3.5614,3.5588,3.5625,3.549,3.5509,3.5635,3.5568,3.5745,3.6144,3.6762,3.7226,3.2197,3.3347,3.4386,3.609,3.6562,3.6581,3.6543,3.5883,3.5059,3.4203,3.3302,3.2657,0.0,0.0,3.2651,3.5891,3.6535,3.7532,4.0034,3.9717,3.9851,0.0,0.0,0.0,0.0,0.0,0.0,4.2928,0.0,4.4557,4.5362,4.54,4.54,4.54,4.54,4.54,4.54,4.5409,4.5359,4.5307,4.5448,4.5504,4.5446,4.3832,4.3103,4.3006,4.1328,4.0602,4.0602,4.0609,4.0609,4.0602,4.0609,4.0609,4.0602,4.0609,4.0707,4.0794,4.0662,4.0628,4.0628,4.0628,4.0628,4.0609,4.0602,4.0602,4.0609,4.0602,4.0694,4.0806,4.0806,4.0848,4.0907,4.0907,3.9023,3.743,3.8173,3.6386,3.4863,3.5677,3.5862,3.5892,3.5906,3.5892,3.5914,3.5989,3.5992,3.5998,3.6004,3.6009,3.5993,3.5995,3.5934,3.5902,3.5892,3.5827,3.5774,3.5702,3.5694,3.5678,3.5604,3.5534,3.5496,3.5509,3.5508,3.55,3.55,3.5616,3.6079,3.6891,3.7055,3.7531,3.3143,3.4173,3.5059,3.5511,3.6078,3.6361,3.5768,3.5419,3.4813,3.336,3.1859,3.0615,0.0,0.0,0.0,3.3437,3.5796,0.0,4.0051,4.0653,0.0,4.2255,0.0,4.2155,4.2498,4.3057,0.0,0.0,4.3903,4.4557,4.5362,4.54,4.54,4.54,4.5409,4.5409,4.5409,4.5348,4.5317,4.5307,4.5448,4.5504,4.5446,4.3832,4.3103,4.3006,4.1422,4.0745,4.0751,4.0801,4.079,4.0751,4.0801,4.0784,4.0751,4.0801,4.0839,4.0873,4.0833,4.0828,4.0828,4.0828,4.0828,4.0818,4.0763,4.0773,4.0812,4.0763,4.0809,4.0878,4.0878,4.0893,4.0907,4.0907,3.9956,3.8732,3.7664,3.6906,3.6114,3.5057,3.5417,3.5892,3.5906,3.5892,3.5908,3.5914,3.5961,3.5992,3.5993,3.5995,3.5996,3.5992,3.5936,3.5886,3.5825,3.5755,3.5724,3.5707,3.5692,3.5665,3.5595,3.5583,3.5559,3.549,3.5496,3.5495,3.55,3.6118,3.6536,3.6774,3.8142,3.8891,3.4162,3.5095,3.5828,3.5828,3.6176,3.6179,3.5001,3.438,3.3366,3.0951,2.9672,0.0,2.7875,2.8729,0.0,0.0,0.0,0.0,3.9784,4.0812,4.1743,0.0,4.3035,0.0,4.3462,4.3917,4.4175,0.0,4.4379,4.473,4.5241,4.526,4.531,4.5351,4.5369,4.5367,4.5367,4.5317,4.5338,4.539,4.5485,4.5573,4.5583,4.3979,4.3227,4.3143,0.0,4.0829,4.0804,4.0863,4.0853,4.0804,4.0868,4.0877,4.084,4.0893,4.0908,4.0888,4.0903,4.0898,4.0893,4.0903,4.0907,4.0898,4.0853,4.0873,4.0898,4.0853,4.0873,4.0907,4.0907,4.0907,4.0907,4.0907,4.0286,3.9427,3.846,3.7644,3.6692,3.5333,3.5508,3.5875,3.5899,3.5899,3.5916,3.5939,3.5973,3.5996,3.5994,3.5995,3.5993,3.6005,3.5942,3.5863,3.5807,3.5749,3.5694,3.569,3.5704,3.5679,3.5643,3.5612,3.5583,3.5534,3.5515,3.5509,3.55,3.6308,3.6904,3.7296,3.8696,3.9547,3.5026,3.5807,3.6328,3.6328,3.6252,3.5755,3.417,3.292,3.1215,2.8053,0.0,2.6747,2.6003,2.6614,2.8302,3.1585,0.0,3.5961,3.934,4.0591,4.1753,4.344,4.3708,4.4044,4.4789,4.4846,4.4846,4.4846,4.4846,4.4907,4.5068,4.5061,4.5125,4.5235,4.5254,4.5256,4.5277,4.5288,4.538,4.5513,4.5599,4.5685,4.5742,4.4135,4.3408,4.3313,4.1629,0.0,4.0812,4.0872,4.0867,4.0818,4.0877,4.0902,4.0902,4.0907,4.0907,4.0907,4.0898,4.0908,4.0907,4.0898,4.0907,4.0907,4.0907,4.0907,4.0907,4.0907,4.0907,4.0907,4.0907,4.0907,4.0907,4.0907,4.0364,3.9796,3.9587,3.8169,3.6751,3.6105,3.5881,3.5826,3.5892,3.589,3.5913,3.5976,3.5995,3.5991,3.5995,3.5983,3.5987,3.5999,3.5929,3.5886,3.5827,3.5752,3.5713,3.5701,3.5695,3.5695,3.5704,3.5643,3.5614,3.5604,3.5534,3.5573,3.5661,3.6488,3.7315,3.818,3.9073,3.9823,3.5171,3.5324,3.543,3.543,3.4923,3.4151,3.3094,3.1097,0.0,0.0,2.5293,2.4248,2.4144,2.5329,2.7266,3.0118,3.2585,3.5376,3.8832,4.0482,4.1947,0.0,0.0,0.0,0.0,0.0,0.0,0.0,0.0,4.4685,4.4919,4.4931,4.4962,4.4955,4.4967,4.5042,4.522,4.5272,4.539,4.5586,4.5704,4.5791,4.5745,4.4124,4.3391,4.3294,4.1568,0.0,4.0877,4.0842,4.0842,4.0877,4.0902,4.0902,4.0907,4.0893,4.0903,4.0907,4.0898,4.0908,4.0907,4.0898,4.0907,4.0907,4.0907,4.0907,4.0907,4.0907,4.0907,4.0907,4.0907,4.0907,4.0907,4.0907,4.0791,4.0305,3.8926,3.7256,3.6183,3.677,3.6338,3.5897,3.5894,3.5905,3.5891,3.5914,3.5956,3.6004,3.5994,3.595,3.5919,3.5912,3.5917,3.5892,3.5882,3.5815,3.5765,3.5699,3.5694,3.5693,3.5709,3.5684,3.5668,3.5595,3.5584,3.5913,3.6587,3.7387,3.8219,3.9092,3.9919,4.0362,3.5209,3.5209,3.5209,3.5209,3.4598,3.3532,3.1706,0.0,0.0,0.0,2.3527,2.2926,2.2972,2.4296,0.0,2.8379,3.0502,3.3236,3.7138,3.9048,0.0,0.0,0.0,0.0,0.0,0.0,0.0,0.0,0.0,4.4578,4.4802,4.4858,4.4895,4.4895,4.4895,4.4995,4.5201,4.5232,4.54,4.5695,4.5739,4.5783,4.5807,4.4576,4.3775,4.3279,4.2013,0.0,4.0843,4.0801,4.0833,4.0893,4.0891,4.0929,4.0956,4.0914,4.0898,4.0904,4.0897,4.0908,4.0917,4.0937,4.0928,4.083,4.0402,4.0286,4.0276,4.0287,4.028,4.0388,4.0835,4.0961,4.0961,4.0961,4.0961,4.0629,3.9385,3.8469,3.7748,3.7242,3.6833,3.6425,3.5974,3.5891,3.5918,3.5954,3.598,3.5985,3.5955,3.5923,3.589,3.5892,3.5897,3.5901,3.5901,3.5864,3.5803,3.5713,3.5708,3.5703,3.5709,3.5704,3.5673,3.5606,3.6015,3.6421,3.6806,3.806,3.8892,3.9323,4.0131,4.0496,3.5192,3.525,3.525,3.525,3.448,3.3085,3.0636,2.8464,0.0,0.0,2.2051,2.1872,2.2229,0.0,2.4892,0.0,2.8696,3.1186,3.5523,0.0,0.0,0.0,0.0,0.0,0.0,0.0,0.0,0.0,0.0,0.0,4.4659,4.4764,4.4833,4.4876,4.4876,4.5011,4.5254,4.5283,4.5455,4.5803,4.5754,4.5791,4.5848,4.4989,4.4241,4.3518,4.2518,0.0,0.0,4.0898,4.0859,4.0891,4.0924,4.0953,4.0998,4.0931,4.0916,4.0922,4.0922,4.0913,4.0928,4.0971,4.0967,4.0764,3.9945,3.9836,3.9929,3.9755,3.9828,4.0131,4.083,4.0992,4.0992,4.0992,4.0992,4.0836,4.0193,3.992,3.9393,3.8026,3.7603,3.7201,3.6328,3.6171,3.6145,3.6022,3.599,3.5981,3.5912,3.5899,3.5892,3.5908,3.5908,3.59,3.5895,3.5892,3.5841,3.5727,3.5722,3.5713,3.5709,3.5858,3.5925,3.5883,3.6677,3.7186,3.7353,3.8659,3.9407,3.958,4.0208,4.0496,3.5182,3.5372,3.5372,3.5372,3.4083,3.2325,3.044,0.0,2.4662,2.271,2.1084,2.0495,2.2023,2.2417,0.0,0.0,0.0,3.0535,0.0,0.0,0.0,0.0,0.0,0.0,0.0,0.0,0.0,0.0,0.0,0.0,4.4542,4.4542,4.4627,4.4807,4.4807,4.5022,4.5463,4.5526,4.5645,4.58,4.5854,4.5854,4.5768,4.4975,4.4562,4.4381,4.2725,0.0,0.0,4.1198,4.0891,4.0918,4.0972,4.0998,4.1003,4.098,4.0994,4.0998,4.0996,4.0994,4.0986,4.1002,4.0996,4.0838,3.9969,4.0256,4.0728,3.9928,4.0262,4.089,4.0971,4.0992,4.0992,4.0992,4.0992,4.0973,4.0914,4.0328,3.9744,3.9588,3.8923,3.8104,3.7225,3.7071,3.683,3.6105,3.6005,3.5981,3.5912,3.5907,3.5902,3.5892,3.5908,3.5908,3.5906,3.5906,3.5876,3.5795,3.5791,3.5751,3.569,3.64,3.6787,3.6781,3.7622,3.8434,3.9161,3.9248,3.9714,4.0484,4.0492,4.0496,3.4456,3.5059,3.547,3.5469,3.4121,3.2352,3.0576,0.0,2.4627,2.2846,2.1561,2.1111,2.2271,2.2904,2.3902,0.0,0.0,0.0,3.1281,0.0,0.0,0.0,0.0,0.0,0.0,0.0,0.0,0.0,0.0,0.0,4.4929,4.491,4.4957,4.5041,4.5041,4.5184,4.549,4.5535,4.5618,4.5807,4.584,4.584,4.5787,4.5471,4.5065,4.4555,4.3866,0.0,0.0,4.1801,4.1408,4.0966,4.1033,4.1068,4.1054,4.1052,4.1069,4.1045,4.1016,4.1008,4.101,4.1048,4.1066,4.09,4.0016,3.9997,4.0216,3.9857,4.0016,4.0408,4.0918,4.1054,4.1054,4.1054,4.1054,4.1054,4.1054,4.0819,4.0428,3.9901,3.9523,3.9004,3.8125,3.7542,3.7093,3.6774,3.6287,3.5931,3.5899,3.5897,3.5897,3.5889,3.5908,3.5903,3.5905,3.5901,3.5852,3.5741,3.5655,3.5634,3.5709,3.6318,3.6702,3.6768,3.8034,3.8846,3.9154,3.9608,3.9978,4.0241,4.0203,4.0157,3.388,3.4714,3.5241,3.5494,3.4223,3.2441,0.0,2.7651,2.4771,2.3291,2.2143,2.1727,2.2783,2.349,2.4186,0.0,0.0,2.6592,2.9593,3.1923,0.0,0.0,0.0,0.0,0.0,0.0,0.0,0.0,0.0,0.0,4.5274,4.5343,4.5343,4.5284,4.5284,4.5381,4.5594,4.5594,4.5658,4.5807,4.5807,4.5807,4.5807,4.5807,4.5518,4.4989,4.4737,0.0,0.0,4.2689,4.2276,4.1748,4.1561,4.1482,4.1452,4.1207,4.1092,4.1093,4.1053,4.1031,4.1033,4.1074,4.1092,4.0995,4.037,4.0173,4.0135,3.9862,3.9997,4.0327,4.0938,4.1109,4.1109,4.1109,4.1109,4.1109,4.1109,4.1109,4.0914,4.0307,4.0182,3.9919,3.9039,3.8383,3.7881,3.762,3.7052,3.6679,3.6671,3.6668,3.6668,3.6668,3.6625,3.6391,3.594,3.5901,3.5823,3.564,3.5557,3.5628,3.5926,3.6541,3.7045,3.7404,3.8717,3.9387,3.9387,3.9918,4.011,4.0032,3.9963,3.9859,3.3692,3.4404,3.4613,3.547,3.4287,3.2447,3.07,2.7654,2.4943,2.4061,2.2569,2.19,2.3572,2.3897,2.4165,2.4981,0.0,0.0,3.1189,0.0,0.0,0.0,0.0,0.0,0.0,0.0,0.0,0.0,0.0,0.0,4.549,4.5692,4.5708,4.5498,4.549,4.5594,4.578,4.58,4.5807,4.5807,4.5807,4.5807,4.5807,4.5807,4.5861,0.0,0.0,0.0,0.0,4.3905,4.3579,4.3492,4.2694,4.2393,4.2271,4.1424,4.1094,4.1098,4.1093,4.109,4.109,4.1109,4.1109,4.1109,4.109,4.109,4.0914,4.0034,4.0426,4.109,4.1109,4.1109,4.1109,4.1109,4.1109,4.1109,4.1109,4.1109,4.1109,4.109,4.1092,4.0801,3.9945,3.9786,3.9474,3.8617,3.848,3.8461,3.848,3.848,3.848,3.848,3.8291,3.7568,3.6031,3.5901,3.5783,3.5521,3.5504,3.5791,3.6458,3.734,3.8202,3.9057,3.9879,4.029,4.029,4.0157,4.0101,4.0091,3.9882,3.9694,2.9864,3.0927,3.1721,3.1418,3.0887,3.0139,2.8985,2.6538,2.4446,2.4159,2.3218,2.2774,2.3908,2.4583,2.545,2.6843,0.0,0.0,0.0,0.0,0.0,0.0,0.0,0.0,0.0,0.0,0.0,0.0,0.0,0.0,4.5708,4.5778,4.5766,4.5715,4.5715,4.5737,4.5807,4.5807,4.5807,4.5807,4.5807,4.5807,4.5807,4.5886,4.5964,0.0,0.0,0.0,0.0,4.4598,4.4151,4.3633,4.3395,4.3293,4.3175,4.231,4.1998,4.1906,4.1318,4.1102,4.1102,4.1102,4.11,4.1095,4.1095,4.1093,4.1031,4.0777,4.0464,4.0346,4.0953,4.0659,4.0366,4.0953,4.1109,4.1109,4.1109,4.1109,4.1109,4.1109,4.1097,4.1007,4.0745,4.0184,3.97,3.9435,3.8889,3.8462,3.8389,3.8362,3.8337,3.8249,3.8178,3.7934,3.7444,3.7315,3.7212,3.7086,3.6983,3.7078,3.7381,3.8059,3.8595,3.8955,3.9661,4.003,4.003,3.9886,3.9743,3.9549,3.9389,3.9292,2.7919,2.8865,2.9683,2.9768,2.9314,2.8624,2.7741,2.5561,2.3712,2.3712,2.329,2.3174,2.4041,2.4911,2.584,2.6884,2.7247,0.0,0.0,0.0,0.0,0.0,0.0,0.0,0.0,0.0,0.0,0.0,0.0,0.0,4.578,4.5807,4.5807,4.5807,4.5807,4.5807,4.5807,4.5807,4.5807,4.5807,4.5807,4.5834,4.5886,4.5969,4.6022,0.0,0.0,0.0,0.0,4.5438,4.5134,4.4646,4.4313,4.4194,4.4075,4.3213,4.2687,4.2318,4.1772,4.138,4.1104,4.1104,4.11,4.1095,4.1095,4.1093,4.1109,4.1109,4.0717,4.0424,4.0953,4.0444,4.0015,4.0894,4.0855,4.0698,4.1031,4.1109,4.1109,4.1109,4.1101,4.1109,4.1096,4.0619,4.0214,4.0213,3.9715,3.9304,3.9218,3.9213,3.9162,3.9088,3.8987,3.8928,3.8935,3.8301,3.7844,3.7736,3.7658,3.7755,3.8116,3.8497,3.8883,3.9268,3.9688,3.99,3.99,3.9705,3.9495,3.9298,3.9151,3.9101,0.0,2.7788,2.8171,2.9606,2.8838,2.7528,2.6714,2.4605,0.0,2.2884,2.2903,2.3194,2.4196,2.4989,2.5604,2.5894,0.0,0.0,0.0,0.0,0.0,0.0,0.0,0.0,0.0,0.0,0.0,0.0,0.0,0.0,4.5807,4.5807,4.5807,4.5807,4.5807,4.5807,4.5807,4.5807,4.5807,4.5807,4.5814,4.5886,4.6002,4.6017,4.608,0.0,0.0,0.0,0.0,4.6308,4.6308,4.6229,4.5408,4.5094,4.4994,4.4116,4.3237,4.2475,4.2417,4.1828,4.1099,4.1099,4.1095,4.1109,4.1109,4.1109,4.1109,4.1109,4.1051,4.1012,4.109,4.0444,4.0015,4.0894,4.0483,4.0112,4.0934,4.1109,4.1109,4.1108,4.1101,4.1107,4.1091,4.099,4.0896,4.0883,4.0771,4.0694,4.0681,4.0681,4.0675,4.0668,4.0439,4.0292,4.0283,3.8908,3.7966,3.7784,3.7766,3.8071,3.8746,3.8784,3.9134,3.99,3.99,3.99,3.9889,3.9623,3.9439,3.9298,3.9151,3.9101,2.4013,0.0,2.4891,2.4005,2.3962,2.4075,0.0,2.2872,2.2152,2.2768,2.2903,2.3557,2.572,2.5778,2.6551,2.9781,0.0,0.0,0.0,0.0,0.0,0.0,0.0,0.0,0.0,0.0,0.0,0.0,0.0,4.5807,4.5807,4.5807,4.5807,4.5807,4.5807,4.5807,4.5807,4.5807,4.5807,4.5807,4.5892,4.5975,4.6007,4.6105,4.6165,0.0,0.0,0.0,4.6308,4.6308,4.6308,4.6289,4.6073,4.5995,4.5898,4.5018,4.4139,4.33,4.2636,4.1835,4.1108,4.1101,4.1098,4.1095,4.1091,4.1109,4.1109,4.1109,4.062,4.0268,4.0934,4.0444,4.0015,4.0894,4.0934,4.0855,4.1051,4.1109,4.1106,4.1099,4.1095,4.1076,4.096,4.0925,4.0873,4.0759,4.0718,4.0662,4.0564,4.0549,4.0489,4.0334,4.0252,4.0187,4.008,3.9679,3.94,3.9357,3.9366,3.945,3.9608,3.9616,3.9711,3.99,3.99,3.9837,3.9739,3.9587,3.9439,3.9298,3.9151,3.9101,2.3616,2.4138,2.4583,2.3677,2.3464,2.3596,2.4002,2.2845,2.194,2.2729,0.0,2.3936,2.5343,2.6165,0.0,0.0,3.1037,0.0,0.0,0.0,0.0,0.0,0.0,0.0,0.0,0.0,0.0,0.0,0.0,4.5807,4.5807,4.5807,4.5807,4.5807,4.5807,4.5807,4.5807,4.5807,4.5841,4.5886,4.5969,4.6032,4.6095,4.6162,4.6212,0.0,0.0,0.0,4.6308,4.6308,4.6308,4.6308,4.6308,4.6308,4.623,4.5761,4.5039,4.418,4.3301,4.2167,4.1108,4.1099,4.1094,4.1094,4.1091,4.1109,4.1109,4.1109,4.0758,4.0503,4.0973,4.0444,4.0015,4.0894,4.0797,4.06,4.1012,4.1106,4.1076,4.1028,4.1014,4.0961,4.082,4.0754,4.0686,4.0615,4.0557,4.0492,4.0422,4.0377,4.0316,4.0215,4.0138,4.0077,4.0007,3.9933,3.99,3.99,3.99,3.99,3.99,3.99,3.99,3.99,3.9837,3.9762,3.9705,3.9495,3.9376,3.9298,3.9073,3.8946,2.4602,2.5136,2.5778,2.5244,2.466,2.435,2.4969,0.0,0.0,0.0,0.0,0.0,2.4802,2.6717,0.0,0.0,0.0,0.0,0.0,0.0,0.0,0.0,0.0,0.0,0.0,0.0,0.0,0.0,0.0,4.5807,4.5807,4.5807,4.5807,4.5807,4.5827,4.5841,4.5841,4.5841,4.5886,4.6027,4.6022,4.6087,4.6202,4.6209,4.6242,4.6308,0.0,0.0,4.6308,4.6308,4.6308,4.6308,4.6308,4.6308,4.6308,4.6308,4.5742,4.4863,4.3847,4.2459,4.1106,4.1094,4.1109,4.1109,4.1109,4.1109,4.1109,4.1109,4.1109,4.1109,4.1109,4.0542,4.0171,4.0914,4.0542,4.0151,4.0776,4.0906,4.0866,4.0757,4.073,4.0738,4.0701,4.0616,4.053,4.0484,4.0372,4.0301,4.0301,4.0253,4.0206,4.0186,4.0087,3.9996,3.9986,3.9933,3.99,3.99,3.99,3.99,3.99,3.9878,3.9878,3.9878,3.9705,3.9616,3.9616,3.9331,3.9187,3.9187,3.8873,3.8728,2.5337,2.6477,2.6997,2.4043,2.3751,2.4041,2.3441,0.0,0.0,0.0,0.0,0.0,0.0,2.8482,3.0175,0.0,0.0,0.0,0.0,0.0,0.0,0.0,0.0,0.0,0.0,0.0,0.0,0.0,0.0,4.5807,4.5807,4.5807,4.5807,4.5807,4.5917,4.5975,4.5975,4.5975,4.6008,4.6084,4.6142,4.6171,4.6204,4.6265,4.6289,4.6308,0.0,4.6308,4.6308,4.6308,4.6308,4.6308,4.6308,4.6308,4.6308,4.6308,4.5742,4.4765,4.3161,4.1948,4.1106,4.1094,4.1109,4.1109,4.1109,4.1109,4.1109,4.1109,4.1109,4.1109,4.1109,4.0992,4.0934,4.107,4.0992,4.0735,4.0123,4.0003,3.9995,3.9967,3.9976,4.0123,4.0612,4.0687,4.0588,4.0363,4.0301,4.0301,4.0301,4.0301,4.0244,4.0127,4.0106,4.0036,3.9922,3.99,3.99,3.99,3.99,3.99,3.99,3.9792,3.9728,3.9728,3.9421,3.9266,3.9266,3.889,3.87,3.87,3.8538,3.8446,2.4795,2.5725,2.6414,2.5282,2.6013,2.7027,2.7051,2.6722,0.0,0.0,0.0,0.0,0.0,0.0,0.0,0.0,0.0,0.0,0.0,0.0,0.0,0.0,0.0,0.0,0.0,0.0,0.0,0.0,0.0,0.0,4.5807,4.588,4.5917,4.5917,4.5993,4.6064,4.6109,4.6109,4.6125,4.6153,4.6195,4.6212,4.6264,4.6289,4.6308,4.6308,0.0,4.6308,4.6308,4.6308,4.6308,4.6308,4.6308,4.6308,4.6308,4.6308,4.5742,4.4823,4.3531,4.2532,4.1727,4.1249,4.1076,4.1054,4.1054,4.1054,4.1028,4.0958,4.1015,4.1109,4.1109,4.1109,4.1109,4.1109,4.1104,4.0982,4.0588,4.0129,3.9769,3.9618,3.9196,3.8922,3.9052,3.9077,3.9042,3.8904,3.8897,3.8897,3.8897,3.927,3.9509,3.9412,3.9801,4.0015,3.9911,3.99,3.99,3.99,3.99,3.99,3.99,3.9837,3.9762,3.9705,3.9471,3.9337,3.9259,3.8884,3.871,3.871,3.835,3.8186,2.4397,2.5011,2.579,2.6837,0.0,2.9136,3.0358,2.9951,0.0,0.0,0.0,0.0,0.0,0.0,0.0,0.0,0.0,0.0,0.0,0.0,0.0,0.0,0.0,0.0,0.0,0.0,0.0,0.0,0.0,0.0,4.586,4.5972,4.6018,4.6018,4.6087,4.6147,4.6202,4.621,4.6215,4.6215,4.6215,4.6243,4.6308,4.6308,4.6308,4.6308,4.6308,4.6308,4.6308,4.6308,4.6308,4.6308,4.6308,4.6308,4.6308,4.6308,4.5742,4.4901,4.4234,4.3429,4.2583,4.1882,4.1635,4.1533,4.1321,4.1255,4.1186,4.0887,4.0909,4.1022,4.1022,4.1022,4.1022,4.1022,4.1033,4.0964,4.0764,4.0198,3.9657,3.9439,3.8855,3.8389,3.8356,3.8355,3.8338,3.8313,3.8304,3.8304,3.8304,3.885,3.9195,3.9108,3.9658,3.991,3.9646,3.9786,3.9783,3.952,3.9754,3.99,3.99,3.9804,3.9705,3.9611,3.9326,3.9127,3.9022,3.8493,3.8327,3.8494,3.7704,3.7447,2.498,2.5537,2.6059,2.7626,2.7534,0.0,3.0133,3.0022,0.0,3.2591,0.0,0.0,0.0,0.0,0.0,0.0,0.0,0.0,0.0,0.0,0.0,0.0,0.0,0.0,0.0,0.0,0.0,0.0,0.0,0.0,4.608,4.6087,4.6091,4.6091,4.6155,4.62,4.6202,4.6265,4.6289,4.6289,4.6289,4.6308,4.6308,4.6308,4.6308,4.6308,4.6308,4.6308,4.6308,4.6308,4.6308,4.6308,4.6308,4.6308,4.6308,4.6308,4.5742,4.498,4.4937,4.4348,4.3581,4.3384,4.3312,4.3159,4.23,4.2019,4.1845,4.1024,4.082,4.0809,4.0809,4.0809,4.0809,4.0809,4.0829,4.0601,3.9796,3.9567,3.9503,3.9429,3.9353,3.9522,4.0177,4.0308,4.0271,4.0119,4.011,4.011,4.011,4.0167,4.0148,4.0021,4.0068,3.9742,3.8871,3.9475,3.9452,3.8392,3.9305,3.99,3.99,3.9539,3.9337,3.9337,3.8594,3.8183,3.8167,3.709,3.697,3.765,3.6112,3.5792,2.3772,2.4797,2.5962,2.7079,2.7972,0.0,0.0,3.2874,3.397,3.6109,3.6472,0.0,0.0,0.0,0.0,0.0,0.0,0.0,0.0,0.0,0.0,0.0,0.0,0.0,0.0,0.0,0.0,0.0,0.0,0.0,4.6098,4.6139,4.6158,4.6158,4.6235,4.6265,4.6265,4.6289,4.6308,4.6308,4.6308,4.6308,4.6308,4.6308,4.6308,4.6308,4.6308,4.6308,4.6308,4.6308,4.6308,4.6308,4.6308,4.6308,4.6308,4.6308,4.6094,4.5722,4.519,4.4725,4.4282,4.3695,4.3411,4.3258,4.2896,4.24,4.191,4.1532,4.1087,4.0743,4.0791,4.081,4.081,4.081,4.0796,4.0718,4.0387,3.9846,3.9422,3.9348,3.8877,3.8537,3.8728,3.8761,3.8736,3.8695,3.8686,3.8686,3.8686,3.9117,3.9395,3.9298,3.9703,3.9631,3.8765,3.8836,3.8486,3.7516,3.838,3.8827,3.8658,3.794,3.779,3.8312,3.7889,3.7645,3.7601,3.6952,3.6533,3.6336,3.5575,3.5347,2.3004,2.4122,2.5602,2.6967,0.0,0.0,3.3529,3.4815,3.6159,3.8782,3.8844,0.0,0.0,0.0,0.0,0.0,0.0,0.0,0.0,0.0,0.0,0.0,0.0,0.0,0.0,0.0,0.0,0.0,0.0,0.0,0.0,4.6206,4.6237,4.6237,4.6287,4.6308,4.6308,4.6308,4.6308,4.6308,4.6308,4.6308,4.6308,4.6308,4.6308,4.6308,4.6308,4.6308,4.6308,4.6308,4.6308,4.6308,4.6308,4.6308,4.6308,4.6287,4.6265,4.6183,4.5539,4.5267,4.5075,4.4435,4.4137,4.3961,4.3641,4.3132,4.2531,4.1963,4.1431,4.0997,4.0761,4.0707,4.0707,4.0707,4.0709,4.0705,4.0712,4.0179,3.97,3.9638,3.9108,3.8624,3.8532,3.8514,3.8514,3.8514,3.8514,3.8514,3.8514,3.8994,3.9271,3.9202,3.9612,3.9559,3.8765,3.8456,3.7899,3.6929,3.7343,3.7604,3.7519,3.6811,3.6666,3.7224,3.6974,3.679,3.6734,3.6244,3.5809,3.547,3.4788,3.4615,2.305,2.3681,2.5019,0.0,0.0,0.0,3.5215,3.5288,3.5878,4.0211,0.0,0.0,0.0,0.0,0.0,0.0,0.0,0.0,0.0,0.0,0.0,0.0,0.0,0.0,0.0,0.0,0.0,0.0,0.0,0.0,0.0,4.6308,4.6308,4.6308,4.6308,4.6308,4.6308,4.6308,4.6308,4.6308,4.6308,4.6308,4.6308,4.6308,4.6308,4.6308,4.6308,4.6308,4.6308,4.6308,4.6308,4.6308,4.6308,4.6308,4.6289,4.6215,4.6202,4.6173,4.6045,4.5996,4.5973,4.5835,4.5807,4.5597,4.4606,4.4316,4.3951,4.2297,4.1808,4.1604,4.0746,4.0516,4.0496,4.0496,4.0496,4.05,4.0491,4.0441,4.0379,4.0316,4.03,4.0301,4.0301,4.0301,4.0301,4.0301,4.0301,4.0301,4.0301,4.0244,4.0157,4.0007,3.9943,3.9559,3.8765,3.8456,3.7815,3.6662,3.6357,3.6344,3.6682,3.6371,3.6189,3.6207,3.5807,3.5573,3.5491,3.4637,3.4537,3.5133,3.3614,3.3328,2.3085,2.418,0.0,2.7773,0.0,0.0,0.0,3.6738,0.0,0.0,0.0,0.0,0.0,0.0,0.0,0.0,0.0,0.0,0.0,0.0,0.0,0.0,0.0,0.0,0.0,0.0,0.0,0.0,0.0,0.0,0.0,4.6308,4.6308,4.6308,4.6308,4.6308,4.6308,4.6308,4.6308,4.6308,4.6308,4.6308,4.6308,4.6308,4.6308,4.6308,4.6308,4.6308,4.6308,4.6308,4.6308,4.6308,4.6308,4.6267,4.6235,4.6207,4.6138,4.6047,4.6017,4.5939,4.584,4.5815,4.5734,4.5605,4.5304,4.4778,4.4201,4.3701,4.272,4.1731,4.1489,4.095,4.0496,4.0496,4.0496,4.05,4.0491,4.0441,4.0379,4.0316,4.03,4.0301,4.0301,4.0301,4.0301,4.0301,4.0301,4.0272,4.0244,4.0166,4.0087,4.0007,3.9943,3.9559,3.8765,3.8456,3.7815,3.6662,3.6357,3.6164,3.6072,3.5936,3.6129,3.6755,3.6501,3.6115,3.564,3.5243,3.457,3.3643,3.313,3.3025,2.4042,2.541,0.0,2.9724,3.2401,3.5058,3.748,0.0,0.0,0.0,0.0,0.0,0.0,0.0,0.0,0.0,0.0,0.0,0.0,0.0,0.0,0.0,0.0,0.0,0.0,0.0,0.0,0.0,0.0,0.0,0.0,4.6308,4.6308,4.6308,4.6308,4.6308,4.6308,4.6308,4.6308,4.6308,4.5957,4.5957,4.6308,4.6308,4.6308,4.6308,4.6308,4.6308,4.6308,4.6308,4.6288,4.6265,4.6265,4.6212,4.6155,4.6131,4.6041,4.5949,4.5897,4.5835,4.5764,4.5727,4.566,4.5594,4.5594,4.5229,4.4739,4.4393,4.3335,4.2239,4.1885,4.1143,4.0496,4.0496,4.0496,4.05,4.0491,4.0441,4.0379,4.0316,4.03,4.0301,4.0301,4.0301,4.0301,4.0301,4.0291,4.0244,4.0166,4.0098,4.0036,3.9965,3.9826,3.9539,3.9059,3.8359,3.7655,3.6952,3.667,3.6437,3.6272,3.5933,3.5989,3.6508,3.6343,3.6059,3.5624,3.5154,3.4411,3.343,3.3077,3.29,2.5332,2.6855,0.0,3.2539,3.4883,0.0,4.0389,4.1152,4.1191,4.1191,0.0,0.0,0.0,0.0,0.0,0.0,0.0,0.0,0.0,0.0,0.0,0.0,0.0,0.0,0.0,0.0,0.0,0.0,0.0,0.0,0.0,4.6172,4.6211,4.6308,4.6308,4.6308,4.6308,4.6308,4.6269,4.6172,4.5371,4.541,4.6172,4.6172,4.6211,4.6308,4.6308,4.6308,4.6289,4.6289,4.6244,4.6197,4.6197,4.6147,4.608,4.6018,4.5956,4.5853,4.573,4.5695,4.5684,4.5622,4.5594,4.5594,4.5594,4.5594,4.5441,4.4643,4.3778,4.2912,4.2124,4.12,4.0496,4.0489,4.0508,4.0492,4.0491,4.0441,4.037,4.0307,4.03,4.0301,4.0301,4.0301,4.0301,4.0301,4.0244,4.0176,4.0127,4.0046,3.9965,3.9878,3.9647,3.9483,3.9458,3.8276,3.7526,3.7514,3.7275,3.7136,3.7104,3.6417,3.6003,3.6003,3.5887,3.5735,3.5599,3.4727,3.4233,3.4079,3.3275,3.29,2.4433,2.5957,0.0,0.0,3.625,3.9433,4.0859,4.1191,4.1191,4.1132,0.0,0.0,0.0,0.0,0.0,0.0,0.0,0.0,0.0,0.0,0.0,0.0,0.0,0.0,0.0,0.0,0.0,0.0,0.0,0.0,4.5234,4.5273,4.5586,4.6289,4.6308,4.6308,4.6308,4.6308,4.5957,0.0,4.5098,4.5098,4.5273,4.5273,4.5644,4.6308,4.6308,4.6267,4.6213,4.6213,4.6173,4.6122,4.6122,4.6076,4.6013,4.6007,4.5886,4.5742,4.5704,4.5679,4.5622,4.5594,4.5594,4.5594,4.5594,4.5594,4.5556,4.5364,4.4239,4.3066,4.2874,4.1662,4.0508,4.0507,4.0499,4.0482,4.0432,4.037,4.0326,4.0291,4.0291,4.0301,4.0301,4.0301,4.0301,4.0301,4.0244,4.0196,4.0176,4.0077,3.9903,3.9701,3.9575,3.9377,3.9136,3.8832,3.857,3.8358,3.8282,3.8161,3.7954,3.7792,3.7615,3.753,3.7495,3.7156,3.6443,3.557,3.4803,3.416,3.3307,3.29,2.457,0.0,0.0,3.3476,0.0,4.0019,4.0469,4.0898,4.1191,0.0,0.0,0.0,0.0,0.0,0.0,0.0,0.0,0.0,0.0,0.0,0.0,0.0,0.0,0.0,0.0,0.0,0.0,0.0,0.0,4.3457,4.4336,4.4375,4.459,4.5039,4.5058,4.5058,4.5058,4.5017,4.4802,4.4375,4.3923,4.3939,4.4368,4.5188,4.5837,4.6308,4.6237,4.6204,4.62,4.616,4.6112,4.6039,4.6039,4.5998,4.5892,4.5892,4.5827,4.5708,4.5708,4.5671,4.5594,4.5594,4.5594,4.5594,4.5594,4.5594,4.5594,4.5594,4.4393,4.3104,4.3104,4.18,4.0495,4.051,4.0502,4.0466,4.037,4.0325,4.0289,4.0291,4.0301,4.0301,4.0301,4.0186,4.0098,4.0029,3.9862,3.9751,3.9679,3.9578,3.9477,3.9338,3.9168,3.899,3.8814,3.8685,3.8569,3.8417,3.8417,3.8354,3.8209,3.8209,3.8157,3.8105,3.8003,3.7735,3.727,3.6342,3.5468,3.4647,3.3846,3.3275,2.4648,0.0,2.9883,3.4609,3.7637,0.0,3.9648,4.0351,4.0976,0.0,0.0,0.0,0.0,0.0,0.0,0.0,0.0,0.0,0.0,0.0,0.0,0.0,0.0,0.0,0.0,0.0,0.0,0.0,0.0,4.2578,4.3437,4.3457,4.3534,4.3671,4.367,4.3669,4.3669,4.3614,4.3536,4.3434,4.2656,4.2739,4.3632,4.5228,4.6067,4.6265,4.6147,4.6125,4.6158,4.6105,4.6046,4.5969,4.5969,4.5905,4.5807,4.58,4.5749,4.5708,4.57,4.5662,4.5594,4.5594,4.5594,4.5594,4.5594,4.5594,4.5594,4.5594,4.4489,4.3278,4.3143,4.1899,4.0674,4.0513,4.0466,4.0441,4.0325,4.0298,4.0299,4.0291,4.0253,4.0234,4.0234,4.0007,3.9796,3.9652,3.9452,3.9248,3.9112,3.9031,3.898,3.8943,3.873,3.8585,3.8523,3.8322,3.8209,3.8209,3.8209,3.8209,3.8209,3.8209,3.8209,3.8209,3.8003,3.7916,3.7899,3.6898,3.6077,3.5417,3.4526,3.3708,2.3164,0.0,3.125,0.0,3.6269,3.7832,0.0,0.0,4.0078,0.0,0.0,0.0,0.0,0.0,0.0,0.0,0.0,0.0,0.0,0.0,0.0,0.0,0.0,0.0,0.0,0.0,0.0,0.0,4.1367,4.1719,4.2539,4.2512,4.2834,4.3596,4.3565,4.3521,4.3521,4.3515,4.3142,4.2407,4.2262,4.2665,4.3539,4.4483,4.5355,4.6128,4.6109,4.6068,4.6022,4.6027,4.5933,4.5834,4.5834,4.5821,4.58,4.581,4.5765,4.57,4.5706,4.5657,4.5594,4.5594,4.5594,4.5594,4.5594,4.5594,4.5594,4.5594,4.4893,4.397,4.3278,4.2321,4.1357,4.0586,4.037,4.0325,4.0288,4.0309,4.0291,4.0301,4.0108,3.9946,3.9946,3.9728,3.952,3.9377,3.9326,3.9248,3.9112,3.9031,3.8915,3.8673,3.8631,3.851,3.8274,3.8207,3.8209,3.8209,3.8209,3.8209,3.8209,3.8209,3.8209,3.8209,3.8071,3.7968,3.7899,3.7004,3.6522,3.6378,3.4827,3.3859,2.334,2.6211,2.9336,0.0,3.4219,3.6074,3.6934,0.0,0.0,0.0,0.0,0.0,0.0,0.0,0.0,0.0,0.0,0.0,0.0,0.0,0.0,0.0,0.0,0.0,0.0,0.0,0.0,0.0,4.1081,4.1238,4.1608,4.1593,4.1757,4.2127,4.2103,4.2107,4.2107,4.2069,4.1852,4.1478,4.1503,4.2197,4.345,4.3816,4.4748,4.6095,4.5974,4.5966,4.5997,4.5929,4.5841,4.5807,4.5807,4.5807,4.58,4.5803,4.5758,4.57,4.5698,4.5648,4.5594,4.5594,4.5594,4.5594,4.5594,4.5594,4.5594,4.5594,4.4979,4.422,4.3859,4.2748,4.1583,4.1166,4.0681,4.03,4.03,4.0301,4.0253,4.0108,3.9859,3.9682,3.9682,3.9446,3.9227,3.9104,3.8961,3.8807,3.8673,3.8628,3.8538,3.8385,3.8387,3.8322,3.8209,3.8209,3.8209,3.8209,3.8209,3.8209,3.8209,3.8209,3.8209,3.8209,3.8038,3.7916,3.7899,3.7399,3.6934,3.6469,3.5274,3.4406,0.0,0.0,2.6914,2.9316,3.1992,3.4297,0.0,0.0,0.0,0.0,0.0,0.0,0.0,0.0,0.0,0.0,0.0,0.0,0.0,0.0,0.0,0.0,0.0,0.0,0.0,0.0,0.0,0.0,4.099,4.099,4.099,4.0974,4.0963,4.0963,4.0964,4.0953,4.0953,4.0907,4.0868,4.0888,4.0924,4.1673,4.305,4.3264,4.4229,4.5715,4.5776,4.5867,4.5947,4.5828,4.5807,4.5807,4.5807,4.58,4.5805,4.5788,4.5743,4.5703,4.5682,4.564,4.5594,4.5594,4.5594,4.5594,4.5594,4.5594,4.5594,4.5594,4.5133,4.4577,4.435,4.3164,4.194,4.1693,4.094,4.0301,4.0301,4.0301,4.0225,3.9946,3.9682,3.9489,3.9414,3.9183,3.896,3.8803,3.8597,3.8433,3.829,3.8274,3.8257,3.8209,3.8209,3.8209,3.8209,3.8209,3.8209,3.8209,3.8209,3.8209,3.8209,3.8209,3.8209,3.8209,3.8021,3.7934,3.7916,3.7721,3.7309,3.6702,3.5882,3.5152,0.0,2.3262,0.0,2.6758,2.9785,0.0,0.0,0.0,0.0,0.0,0.0,0.0,0.0,0.0,0.0,0.0,0.0,0.0,0.0,0.0,0.0,0.0,0.0,0.0,0.0,0.0,0.0,0.0,4.099,4.099,4.099,4.0941,4.0917,4.0917,4.0834,4.0815,4.0815,4.0809,4.0803,4.0803,4.0809,4.1254,4.2099,4.2925,4.3802,4.4718,4.5459,4.5807,4.5814,4.5807,4.5807,4.5807,4.5807,4.5805,4.5788,4.5723,4.5703,4.5701,4.5631,4.5594,4.5594,4.5594,4.5594,4.5594,4.5594,4.5594,4.5594,4.5594,4.5575,4.5344,4.4509,4.3574,4.2648,4.1872,4.0968,4.0301,4.0301,4.0301,4.0225,3.9946,3.9682,3.9427,3.9151,3.891,3.8658,3.8446,3.8415,3.8352,3.8224,3.8209,3.8209,3.8209,3.8209,3.8209,3.8209,3.8209,3.8209,3.8209,3.8209,3.8209,3.8209,3.8209,3.8209,3.8209,3.8053,3.7984,3.7984,3.7792,3.7667,3.7614,3.6738,3.6114,0.0,0.0,0.0,2.5039,2.7088,2.9173,0.0,0.0,0.0,0.0,0.0,0.0,0.0,0.0,0.0,0.0,0.0,0.0,0.0,0.0,0.0,0.0,0.0,0.0,0.0,0.0,0.0,0.0,0.0,4.0863,4.0863,4.0846,4.0843,4.0843,4.0821,4.0797,4.0797,4.0797,4.0797,4.0797,4.0797,4.1222,4.2009,4.2318,4.3247,4.4613,4.491,4.5316,4.5807,4.5807,4.5807,4.58,4.5798,4.5803,4.58,4.5711,4.5698,4.5693,4.5631,4.5594,4.5594,4.5594,4.5594,4.5594,4.5594,4.5594,4.5594,4.5594,4.5594,4.55,4.5111,4.3952,4.2554,4.114,4.0539,4.0301,4.0301,4.0166,4.0017,3.9914,3.9532,3.9205,3.9129,3.8881,3.8643,3.8478,3.8462,3.8417,3.829,3.8257,3.8259,3.8209,3.8209,3.8209,3.8209,3.8209,3.8209,3.8209,3.8209,3.8209,3.8209,3.8209,3.8209,3.8209,3.8053,3.8001,3.8001,3.7792,3.7703,3.7667,3.6503,3.5873,2.123,0.0,0.0,0.0,0.0,2.6945,2.8675,0.0,0.0,0.0,0.0,0.0,0.0,0.0,0.0,0.0,0.0,0.0,0.0,0.0,0.0,0.0,0.0,0.0,0.0,0.0,0.0,0.0,0.0,0.0,4.0797,4.0797,4.0797,4.0797,4.0797,4.0797,4.0797,4.0797,4.0797,4.0797,4.0797,4.1087,4.1603,4.1874,4.2783,4.4168,4.4458,4.5065,4.5807,4.5807,4.58,4.5805,4.5795,4.5792,4.5762,4.5726,4.5693,4.5657,4.5622,4.5594,4.5594,4.5594,4.5594,4.5594,4.5594,4.5594,4.5594,4.5594,4.5385,4.5147,4.5045,4.3761,4.2105,4.0635,4.0301,4.0282,4.0186,4.0027,3.9862,3.9785,3.9414,3.9073,3.8979,3.8773,3.8593,3.8478,3.8446,3.8385,3.829,3.8257,3.8241,3.8209,3.8209,3.8209,3.8209,3.8209,3.8209,3.8209,3.8209,3.8209,3.8209,3.8209,3.8209,3.8209,3.8105,3.8053,3.8053,3.7863,3.7667,3.7486,3.6582,3.5712,0.0,0.0,0.0,0.0,0.0,0.0,0.0,0.0,0.0,0.0,0.0,0.0,0.0,0.0,0.0,0.0,0.0,0.0,0.0,0.0,0.0,0.0,0.0,0.0,0.0,0.0,0.0,0.0,4.0797,4.0797,4.0797,4.0797,4.0797,4.0797,4.0797,4.0797,4.0797,4.0797,4.0797,4.0797,4.0797,4.0797,4.0835,4.1603,4.2454,4.3343,4.4188,4.5026,4.5807,4.5807,4.5805,4.5807,4.5807,4.5754,4.5701,4.5701,4.5648,4.5594,4.5594,4.5594,4.5594,4.5594,4.5594,4.5594,4.5594,4.5594,4.5594,4.5594,4.4963,4.4285,4.4227,4.2917,4.137,4.0511,4.0301,4.0234,3.9965,3.9903,3.9807,3.9544,3.9285,3.9021,3.875,3.859,3.8478,3.8415,3.8354,3.8274,3.8209,3.8209,3.8209,3.8209,3.8209,3.8209,3.8209,3.8209,3.8209,3.8209,3.8209,3.8209,3.8209,3.8209,3.8209,3.8209,3.8209,3.8209,3.8209,3.7986,3.7631,3.711,3.7089,3.5759,2.1465,0.0,0.0,0.0,0.0,0.0,0.0,0.0,0.0,0.0,0.0,0.0,0.0,0.0,0.0,0.0,0.0,0.0,0.0,0.0,0.0,0.0,0.0,0.0,0.0,0.0,0.0,0.0,4.0797,4.0797,4.0797,4.0797,4.0797,4.0797,4.0797,4.0797,4.0797,4.0797,4.0797,4.0797,4.0797,4.0797,4.0816,4.1029,4.1932,4.3305,4.3556,4.4465,4.5807,4.5807,4.5805,4.5807,4.5758,4.573,4.5693,4.5648,4.5622,4.5594,4.5594,4.5594,4.5594,4.5594,4.5594,4.5594,4.5594,4.5594,4.5594,4.5594,4.4963,4.4007,4.2697,4.1934,4.1323,4.0501,4.0301,4.0234,3.9965,3.9751,3.9599,3.9508,3.9285,3.9073,3.8989,3.8725,3.8478,3.8415,3.8354,3.8274,3.8209,3.8209,3.8209,3.8209,3.8209,3.8209,3.8209,3.8209,3.8209,3.8209,3.8209,3.8209,3.8209,3.8209,3.8209,3.8209,3.8209,3.8209,3.8209,3.7986,3.7828,3.7667,3.6841,3.5463,0.0,0.0,0.0,0.0,0.0,0.0,0.0,2.49,0.0,0.0,0.0,0.0,0.0,0.0,0.0,0.0,0.0,0.0,0.0,0.0,0.0,0.0,0.0,0.0,0.0,3.9752,4.041,4.0777,4.0797,4.0797,4.0797,4.0797,4.0797,4.0797,4.0797,4.0797,4.0797,4.0797,4.0797,4.0797,4.0797,4.0797,4.0797,4.0797,4.1699,4.3305,4.3265,4.4232,4.5798,4.5764,4.5761,4.5758,4.5719,4.5671,4.5648,4.5603,4.5594,4.5594,4.5594,4.5594,4.5594,4.5594,4.5594,4.5594,4.5594,4.5594,4.5518,4.5171,4.4177,4.2877,4.1436,4.1026,4.0845,4.0281,4.0128,4.0017,3.9647,3.9433,3.9337,3.9337,3.9129,3.8935,3.8935,3.8664,3.8446,3.8399,3.8322,3.8241,3.8209,3.8209,3.8209,3.8209,3.8209,3.8209,3.8209,3.8209,3.8209,3.8209,3.8209,3.8209,3.8209,3.8209,3.8209,3.8209,3.8209,3.8174,3.8105,3.8003,3.7703,3.7245,3.6357,3.5187,0.0,0.0,0.0,0.0,0.0,0.0,2.506,2.5393,2.5675,0.0,0.0,0.0,0.0,0.0,0.0,0.0,0.0,0.0,0.0,0.0,0.0,0.0,0.0,0.0,3.798,3.8837,3.9713,4.0584,4.0758,4.0797,4.0797,4.0797,4.0797,4.0797,4.0797,4.0797,4.0797,4.0797,4.0797,4.0797,4.0797,4.079,4.079,4.079,4.1661,4.3156,4.318,4.4131,4.5665,4.5696,4.57,4.5692,4.5698,4.5657,4.5594,4.5594,4.5594,4.5594,4.5594,4.5594,4.5594,4.5594,4.5594,4.5594,4.5594,4.5537,4.524,4.4288,4.2893,4.1462,4.0539,4.0291,4.0205,3.9965,3.9881,3.9717,3.9205,3.9101,3.9087,3.9059,3.8866,3.8707,3.8707,3.853,3.8399,3.8399,3.8289,3.8209,3.8209,3.8209,3.8209,3.8209,3.8209,3.8209,3.8209,3.8209,3.8209,3.8209,3.8209,3.8209,3.8209,3.8209,3.8209,3.8209,3.814,3.8071,3.7932,3.7932,3.7377,3.6381,3.5842,3.5009,0.0,0.0,0.0,0.0,0.0,0.0,2.4002,2.4138,2.4855,0.0,0.0,0.0,0.0,0.0,0.0,0.0,0.0,0.0,0.0,0.0,0.0,0.0,0.0,0.0,3.7135,3.7947,3.8818,3.9694,4.041,4.0797,4.0797,4.0797,4.0797,4.0797,4.0797,4.0797,4.0797,4.0797,4.0797,4.0797,4.0797,4.0778,4.0713,4.0784,4.1306,4.2218,4.2908,4.3789,4.4808,4.5444,4.569,4.569,4.5701,4.5657,4.5594,4.5594,4.5594,4.5594,4.5594,4.5594,4.5594,4.5594,4.5594,4.5594,4.5594,4.5114,4.4231,4.2654,4.1921,4.1426,4.053,4.0147,3.9956,3.9914,3.9739,3.9483,3.9183,3.9101,3.9031,3.8807,3.8753,3.8707,3.8707,3.853,3.8399,3.8399,3.8289,3.8209,3.8209,3.8209,3.8209,3.8209,3.8209,3.8209,3.8209,3.8209,3.8209,3.8209,3.8209,3.8209,3.8209,3.8209,3.8209,3.8209,3.7827,3.7596,3.7523,3.7414,3.702,3.6381,3.5842,3.5272,0.0,0.0,0.0,2.6894,0.0,0.0,0.0,0.0,0.0,0.0,0.0,0.0,0.0,0.0,0.0,0.0,0.0,0.0,0.0,0.0,0.0,0.0,0.0,0.0,3.6787,3.6922,3.7483,3.876,3.9637,4.012,4.0158,4.0526,4.0778,4.0797,4.0797,4.0797,4.0797,4.0797,4.0797,4.0797,4.0778,4.0739,4.07,4.07,4.115,4.1945,4.2787,4.3647,4.4511,4.5318,4.5648,4.5648,4.5648,4.5631,4.5594,4.5594,4.5594,4.5594,4.5594,4.5594,4.5594,4.5594,4.5306,4.496,4.496,4.4066,4.284,4.1791,4.116,4.0663,4.0059,3.9804,3.967,3.952,3.9401,3.9219,3.8964,3.891,3.8866,3.8738,3.8707,3.8707,3.8707,3.8562,3.8446,3.8399,3.8322,3.8242,3.8209,3.8209,3.8209,3.8209,3.8209,3.8209,3.8209,3.8209,3.8209,3.8209,3.8209,3.8209,3.8209,3.8209,3.8088,3.7862,3.7614,3.7395,3.715,3.6764,3.6402,3.6101,3.5815,3.5407,0.0,0.0,0.0,0.0,0.0,2.7558,0.0,0.0,0.0,0.0,0.0,0.0,0.0,0.0,0.0,0.0,0.0,0.0,0.0,0.0,0.0,0.0,0.0,0.0,0.0,3.5582,3.5809,3.735,3.8221,3.8833,3.9193,3.9972,4.05,4.0654,4.0687,4.0687,4.0633,4.068,4.068,4.0633,4.0593,4.0593,4.0593,4.0503,4.0896,4.1665,4.246,4.3214,4.397,4.4949,4.5267,4.5152,4.5479,4.5594,4.5594,4.5594,4.5594,4.5594,4.5594,4.5594,4.5594,4.5594,4.5017,4.4231,4.3859,4.2795,4.1622,4.1118,4.0473,3.9867,3.958,3.9458,3.9376,3.9137,3.9059,3.8964,3.8735,3.8707,3.8707,3.8707,3.8707,3.8707,3.8707,3.8593,3.8478,3.843,3.8352,3.8307,3.8242,3.8225,3.8225,3.8209,3.8209,3.8209,3.8209,3.8209,3.8209,3.8209,3.8209,3.8209,3.8209,3.8209,3.802,3.7632,3.7469,3.7209,3.686,3.6165,3.5815,3.581,3.5694,3.5356,0.0,0.0,0.0,0.0,2.9394,0.0,0.0,0.0,0.0,0.0,0.0,0.0,0.0,0.0,0.0,0.0,0.0,0.0,0.0,0.0,0.0,0.0,0.0,0.0,0.0,3.3448,3.3766,3.4683,3.5531,3.6665,3.8101,3.8934,3.9623,4.0154,4.029,4.0236,4.0005,4.0236,4.0236,4.0005,4.01,4.0201,4.0255,4.0062,4.0221,4.0696,4.1381,4.1831,4.222,4.3797,4.4028,4.3528,4.5017,4.5594,4.5594,4.5594,4.5594,4.5594,4.5594,4.5594,4.5594,4.5594,4.5017,4.3983,4.2259,4.16,4.1226,4.0181,3.978,3.9635,3.9539,3.9324,3.9142,3.9115,3.8925,3.8753,3.8707,3.8707,3.8707,3.8707,3.8707,3.8707,3.8707,3.8593,3.851,3.8494,3.843,3.8368,3.8307,3.829,3.8257,3.8209,3.8209,3.8209,3.8209,3.8209,3.8209,3.8209,3.8209,3.8209,3.8209,3.8209,3.8157,3.8123,3.7357,3.6882,3.6726,3.592,3.5667,3.5864,3.527,3.497,0.0,0.0,0.0,0.0,0.0,0.0,2.7012,0.0,2.6289,0.0,0.0,0.0,0.0,0.0,0.0,0.0,0.0,0.0,0.0,0.0,0.0,0.0,0.0,0.0,0.0,0.0,0.0,0.0,3.391,3.5179,3.6312,3.7991,3.9241,3.9957,4.0043,3.9996,3.9888,4.0015,4.0015,3.9888,3.9955,3.9994,4.0014,3.9894,3.9935,4.0139,4.1046,4.1484,4.1663,4.3043,4.3393,4.3162,4.3874,4.4143,4.4201,4.4662,4.4855,4.4921,4.5421,4.5594,4.5404,4.4278,4.3339,4.2354,4.091,4.0466,4.0325,3.9662,3.9452,3.9363,3.9101,3.895,3.8866,3.8866,3.878,3.8707,3.8707,3.8707,3.8707,3.8707,3.8707,3.8707,3.8707,3.8658,3.8593,3.851,3.8478,3.8415,3.8305,3.8307,3.8274,3.8209,3.8209,3.8209,3.8209,3.8209,3.8209,3.8209,3.8209,3.8209,3.8209,3.8209,3.7968,3.7468,3.6999,3.6522,3.6006,3.5526,3.5321,3.5447,3.5142,3.497,3.0156,0.0,0.0,0.0,0.0,0.0,0.0,0.0,0.0,0.0,0.0,0.0,0.0,0.0,0.0,0.0,0.0,0.0,0.0,0.0,0.0,0.0,0.0,0.0,0.0,0.0,0.0,0.0,0.0,3.2651,3.4326,3.6454,3.8179,3.937,3.9667,3.9759,3.9675,3.974,3.974,3.9675,3.972,3.975,3.9802,3.9652,3.9675,3.9827,4.0622,4.1007,4.1151,4.2279,4.2604,4.2412,4.2643,4.256,4.2469,4.3799,4.4243,4.4323,4.5269,4.5405,4.4872,4.3147,4.2007,4.1128,4.0041,3.9728,3.9648,3.9279,3.9192,3.9115,3.8795,3.8707,3.8707,3.8707,3.8707,3.8707,3.8707,3.8707,3.8707,3.8707,3.8707,3.8707,3.8707,3.8707,3.8658,3.8575,3.8525,3.8462,3.8338,3.8305,3.8274,3.8209,3.8209,3.8209,3.8209,3.8209,3.8209,3.8209,3.8209,3.814,3.802,3.802,3.765,3.6919,3.6664,3.6228,3.5616,3.5274,3.5065,3.5041,3.5041,3.4994,0.0,0.0,0.0,2.918,0.0,0.0,0.0,0.0,2.7988,0.0,0.0,0.0,0.0,0.0,0.0,0.0,0.0,0.0,0.0,0.0,0.0,0.0,0.0,0.0,0.0,0.0,0.0,0.0,0.0,0.0,3.2194,3.3998,3.5921,3.8097,3.9033,3.9383,3.9124,3.937,3.937,3.9124,3.9259,3.9401,3.9495,3.9245,3.9377,3.9808,3.9846,4.0001,4.0319,4.1396,4.1335,4.0669,4.1508,4.1217,4.0624,4.3314,4.4134,4.4066,4.5216,4.492,4.3864,4.2693,4.1779,4.0912,3.9825,3.9495,3.9439,3.9036,3.8906,3.8881,3.8753,3.8707,3.8707,3.8707,3.8707,3.8707,3.8707,3.8707,3.8707,3.8707,3.8707,3.8707,3.8707,3.8707,3.8707,3.8692,3.8575,3.8478,3.8417,3.8338,3.8274,3.8209,3.8209,3.8209,3.8209,3.8209,3.8209,3.8209,3.8209,3.8003,3.7542,3.7523,3.7339,3.69,3.6392,3.6037,3.5885,3.5356,3.5018,3.4899,3.4899,3.4899,0.0,0.0,3.3574,3.0723,0.0,0.0,0.0,0.0,0.0,0.0,0.0,0.0,0.0,0.0,0.0,0.0,0.0,0.0,0.0,0.0,0.0,0.0,0.0,0.0,0.0,0.0,0.0,0.0,2.7583,0.0,0.0,3.4323,3.6628,3.7936,3.8795,3.9192,3.9101,3.9178,3.9178,3.9101,3.9156,3.9192,3.9232,3.9142,3.9192,3.9351,3.9525,3.9644,3.9785,4.0257,4.0291,4.0062,4.0348,4.0251,4.0134,4.1781,4.2573,4.2973,4.3928,4.3659,4.2693,4.1647,4.0733,3.9926,3.9352,3.917,3.9115,3.8892,3.8837,3.8807,3.8719,3.8707,3.8707,3.8707,3.8707,3.8707,3.8707,3.8707,3.8707,3.8707,3.8707,3.8707,3.8707,3.8707,3.8658,3.8575,3.8525,3.8462,3.8354,3.8305,3.8274,3.8209,3.8209,3.8209,3.8209,3.8209,3.8054,3.7756,3.7739,3.7541,3.7132,3.7113,3.6919,3.6512,3.6224,3.5941,3.5622,3.5274,3.5065,3.5018,3.4947,3.4899,3.3164,3.3887,0.0,3.1914,3.1367,0.0,2.8457,0.0,0.0,0.0,0.0,0.0,0.0,0.0,0.0,0.0,0.0,0.0,0.0,0.0,0.0,0.0,0.0,0.0,0.0,0.0,2.488,2.5338,2.676,0.0,0.0,0.0,3.603,3.7429,3.8525,3.9101,3.9101,3.9101,3.9101,3.9101,3.9101,3.9101,3.9101,3.9101,3.9101,3.9115,3.9389,3.9514,3.9526,3.9728,3.9808,3.9816,4.0138,4.0197,4.0227,4.0999,4.173,4.2389,4.2769,4.2398,4.1642,4.0903,4.0055,3.9328,3.9398,3.9219,3.9009,3.9187,3.9028,3.8777,3.8723,3.8707,3.8707,3.8707,3.8707,3.8707,3.8707,3.8707,3.8707,3.8707,3.8707,3.8707,3.8707,3.8707,3.8673,3.8575,3.851,3.843,3.8354,3.8289,3.8259,3.8209,3.8209,3.8123,3.7967,3.795,3.7756,3.7321,3.7302,3.7113,3.6698,3.6698,3.6474,3.6067,3.5937,3.5756,3.5492,3.5268,3.5152,3.5088,3.5018,3.4947]}]]